[[{"header":{"parameterUnit":"m.s-1","parameterCategory":1,"la1":30.6,"la2":29.2853,"lo1":-89.7004,"lo2":-87.6739,"dy":0.0162,"dx":0.0183,"nx":112,"ny":82,"refTime":"2024-03-11T18:00:00:Z","depth":0,"parameterNumber":2,"parameterNumberName":"U-component_of_WINDS"},"data":[0.0,0.0,0.0,0.0,0.0,0.0,0.0,0.0,0.0,0.0,0.0,0.0,0.0,0.0,0.0,0.0,0.0,0.0,0.0,0.0,0.0,0.0,0.0,0.0,0.0,0.0,0.0,0.0,0.0,0.0,0.0,0.0,0.0,0.0,0.0,0.0,0.0,0.0,0.0,0.0,0.0,0.0,0.0,0.0,0.0,0.0,0.0,0.0,0.0,0.0,0.0,0.0,0.0,0.0,0.0,0.0,0.0,0.0,0.0,0.0,0.0,0.0,0.0,0.0,0.0,0.0,0.0,0.0,0.0,0.0,0.0,0.0,0.0,0.0,0.0,0.0,0.0,0.0,0.0,0.0,0.0,0.0,0.0,0.0,0.0,0.0,0.0,0.0,0.0,0.0,-3.0849,-3.284,-3.7514,-4.0496,-4.0496,-4.0496,-3.7603,-3.0827,0.0,0.0,0.0,0.0,0.0,0.0,0.0,0.0,0.0,0.0,0.0,0.0,0.0,0.0,0.0,0.0,0.0,0.0,0.0,0.0,0.0,0.0,0.0,0.0,0.0,0.0,0.0,0.0,0.0,0.0,0.0,0.0,0.0,0.0,0.0,0.0,0.0,0.0,0.0,0.0,0.0,0.0,0.0,0.0,0.0,0.0,0.0,0.0,0.0,0.0,0.0,0.0,0.0,0.0,0.0,0.0,0.0,0.0,0.0,0.0,0.0,0.0,0.0,0.0,0.0,0.0,0.0,0.0,0.0,0.0,0.0,0.0,0.0,0.0,0.0,0.0,0.0,0.0,0.0,0.0,0.0,0.0,0.0,0.0,0.0,0.0,0.0,0.0,0.0,0.0,0.0,0.0,0.0,0.0,0.0,0.0,0.0,0.0,0.0,0.0,0.0,0.0,0.0,0.0,-3.1091,-3.838,-3.9977,-4.0496,-4.0496,-4.0496,-3.7603,-3.0827,0.0,0.0,0.0,0.0,0.0,0.0,0.0,0.0,0.0,0.0,0.0,0.0,0.0,0.0,0.0,0.0,0.0,0.0,0.0,0.0,0.0,0.0,0.0,0.0,0.0,0.0,0.0,0.0,0.0,0.0,0.0,0.0,0.0,0.0,0.0,0.0,0.0,0.0,0.0,0.0,0.0,0.0,0.0,0.0,0.0,0.0,0.0,0.0,0.0,0.0,0.0,0.0,0.0,0.0,0.0,0.0,0.0,0.0,0.0,0.0,0.0,0.0,0.0,0.0,0.0,0.0,0.0,0.0,0.0,0.0,0.0,0.0,0.0,0.0,0.0,0.0,0.0,0.0,0.0,0.0,0.0,0.0,0.0,0.0,0.0,0.0,0.0,0.0,0.0,0.0,0.0,0.0,0.0,0.0,0.0,0.0,0.0,0.0,0.0,0.0,0.0,0.0,0.0,-2.8246,-3.2672,-3.9746,-4.0496,-4.0496,-4.0496,-4.0496,-3.7603,-3.0827,-2.8832,0.0,0.0,0.0,0.0,0.0,0.0,0.0,0.0,0.0,0.0,0.0,0.0,0.0,0.0,0.0,0.0,0.0,0.0,0.0,0.0,0.0,0.0,0.0,0.0,0.0,0.0,0.0,0.0,0.0,0.0,0.0,0.0,0.0,0.0,0.0,0.0,0.0,0.0,0.0,0.0,0.0,0.0,0.0,0.0,0.0,0.0,0.0,0.0,0.0,0.0,0.0,0.0,0.0,0.0,0.0,0.0,0.0,0.0,0.0,0.0,0.0,0.0,0.0,0.0,0.0,0.0,0.0,0.0,0.0,0.0,0.0,0.0,0.0,0.0,0.0,0.0,0.0,0.0,0.0,0.0,0.0,0.0,0.0,0.0,0.0,0.0,0.0,0.0,0.0,0.0,0.0,0.0,0.0,0.0,0.0,0.0,0.0,0.0,0.0,0.0,0.0,0.0,-3.2291,-3.5508,-4.0015,-4.0496,-4.0496,-4.0496,-4.0496,-3.7603,-3.0827,-2.8832,0.0,0.0,0.0,0.0,0.0,0.0,0.0,0.0,0.0,0.0,0.0,0.0,0.0,0.0,0.0,0.0,0.0,0.0,0.0,0.0,0.0,0.0,0.0,0.0,0.0,0.0,0.0,0.0,0.0,0.0,0.0,0.0,0.0,0.0,0.0,0.0,0.0,0.0,0.0,0.0,0.0,0.0,0.0,0.0,0.0,0.0,0.0,0.0,0.0,0.0,0.0,0.0,0.0,0.0,0.0,0.0,0.0,0.0,0.0,0.0,0.0,0.0,0.0,0.0,0.0,0.0,0.0,0.0,0.0,0.0,0.0,0.0,0.0,0.0,0.0,0.0,0.0,0.0,0.0,0.0,0.0,0.0,0.0,0.0,0.0,0.0,0.0,0.0,0.0,0.0,0.0,0.0,0.0,0.0,0.0,0.0,0.0,0.0,0.0,0.0,0.0,0.0,-3.5483,-4.0035,-4.0458,-4.0496,-4.0496,-4.0496,-4.0496,-3.7603,-3.0827,-2.8832,0.0,0.0,0.0,0.0,0.0,0.0,0.0,0.0,0.0,0.0,0.0,0.0,0.0,0.0,0.0,0.0,0.0,0.0,0.0,0.0,0.0,0.0,0.0,0.0,0.0,0.0,0.0,0.0,0.0,0.0,0.0,0.0,0.0,0.0,0.0,0.0,0.0,0.0,0.0,0.0,0.0,0.0,0.0,0.0,0.0,0.0,0.0,0.0,0.0,0.0,0.0,0.0,0.0,0.0,0.0,0.0,0.0,0.0,0.0,0.0,0.0,0.0,0.0,0.0,0.0,0.0,0.0,0.0,0.0,0.0,0.0,0.0,0.0,0.0,0.0,0.0,0.0,0.0,0.0,0.0,0.0,0.0,0.0,0.0,0.0,0.0,0.0,0.0,0.0,0.0,0.0,0.0,0.0,0.0,0.0,0.0,0.0,0.0,0.0,0.0,0.0,0.0,-3.3987,-3.8176,0.0,-4.0496,-4.0496,-4.0496,-4.0496,-3.738,-3.0044,0.0,0.0,0.0,0.0,0.0,0.0,0.0,0.0,0.0,0.0,0.0,0.0,0.0,0.0,0.0,0.0,0.0,0.0,0.0,0.0,0.0,0.0,0.0,0.0,0.0,0.0,0.0,0.0,0.0,0.0,0.0,0.0,0.0,0.0,0.0,0.0,0.0,0.0,0.0,0.0,0.0,0.0,0.0,0.0,0.0,0.0,0.0,0.0,0.0,0.0,0.0,0.0,0.0,0.0,0.0,0.0,0.0,0.0,0.0,0.0,0.0,0.0,0.0,0.0,0.0,0.0,0.0,0.0,0.0,0.0,0.0,0.0,0.0,0.0,0.0,0.0,0.0,0.0,0.0,0.0,0.0,0.0,0.0,0.0,0.0,0.0,0.0,0.0,0.0,0.0,0.0,0.0,0.0,0.0,0.0,0.0,0.0,0.0,0.0,0.0,0.0,0.0,-2.9139,-3.3987,-3.7964,0.0,-4.0496,-4.0496,-4.0496,-4.0496,-3.7245,-2.9588,0.0,0.0,0.0,0.0,0.0,0.0,0.0,0.0,0.0,0.0,0.0,0.0,0.0,0.0,0.0,0.0,0.0,0.0,0.0,0.0,0.0,0.0,0.0,0.0,0.0,0.0,0.0,0.0,0.0,0.0,0.0,0.0,0.0,0.0,0.0,0.0,0.0,0.0,0.0,0.0,0.0,0.0,0.0,0.0,0.0,0.0,0.0,0.0,0.0,0.0,0.0,0.0,0.0,0.0,0.0,0.0,0.0,0.0,0.0,0.0,0.0,0.0,0.0,0.0,0.0,0.0,0.0,0.0,0.0,0.0,0.0,0.0,0.0,0.0,0.0,0.0,0.0,0.0,0.0,0.0,0.0,0.0,0.0,0.0,0.0,0.0,0.0,0.0,0.0,0.0,0.0,0.0,0.0,0.0,0.0,0.0,0.0,0.0,0.0,0.0,0.0,0.0,-3.0163,-3.6342,-4.0496,-4.0496,-4.0496,-4.0496,-4.0496,-4.0496,-3.7226,0.0,0.0,0.0,0.0,0.0,0.0,0.0,0.0,0.0,0.0,0.0,0.0,0.0,0.0,0.0,0.0,0.0,0.0,0.0,0.0,0.0,0.0,0.0,0.0,0.0,0.0,0.0,0.0,0.0,0.0,0.0,0.0,0.0,0.0,0.0,0.0,0.0,0.0,0.0,0.0,0.0,0.0,0.0,0.0,0.0,0.0,0.0,0.0,0.0,0.0,0.0,0.0,0.0,0.0,0.0,0.0,0.0,0.0,0.0,0.0,0.0,0.0,0.0,0.0,0.0,0.0,0.0,0.0,0.0,0.0,0.0,0.0,0.0,0.0,0.0,0.0,0.0,0.0,0.0,0.0,0.0,0.0,0.0,0.0,0.0,0.0,0.0,0.0,0.0,0.0,0.0,0.0,0.0,0.0,0.0,0.0,0.0,0.0,0.0,0.0,0.0,0.0,0.0,-3.0169,-3.6342,-4.0496,-4.0496,-4.0496,-4.0496,-4.0496,-4.0496,-3.6995,-2.878,0.0,0.0,0.0,0.0,0.0,0.0,0.0,0.0,0.0,0.0,0.0,0.0,0.0,0.0,0.0,0.0,0.0,0.0,0.0,0.0,0.0,0.0,0.0,0.0,0.0,0.0,0.0,0.0,0.0,0.0,0.0,0.0,0.0,0.0,0.0,0.0,0.0,0.0,0.0,0.0,0.0,0.0,0.0,0.0,0.0,0.0,0.0,0.0,0.0,0.0,0.0,0.0,0.0,0.0,0.0,0.0,0.0,0.0,0.0,0.0,0.0,0.0,0.0,0.0,0.0,0.0,0.0,0.0,0.0,0.0,0.0,0.0,0.0,0.0,0.0,0.0,0.0,0.0,0.0,0.0,0.0,0.0,0.0,0.0,0.0,0.0,0.0,0.0,0.0,0.0,0.0,0.0,0.0,0.0,0.0,0.0,0.0,0.0,0.0,0.0,0.0,0.0,-3.013,-3.6342,-4.0496,-4.0496,-4.0496,-4.0496,-4.0496,-4.0496,-3.7611,-3.0839,0.0,0.0,0.0,0.0,0.0,0.0,0.0,0.0,0.0,0.0,0.0,0.0,0.0,0.0,0.0,0.0,0.0,0.0,0.0,0.0,0.0,0.0,0.0,0.0,0.0,0.0,0.0,0.0,0.0,0.0,0.0,0.0,0.0,0.0,0.0,0.0,0.0,0.0,0.0,0.0,0.0,0.0,0.0,0.0,0.0,0.0,0.0,0.0,0.0,0.0,0.0,0.0,0.0,0.0,0.0,0.0,0.0,0.0,0.0,0.0,0.0,0.0,0.0,0.0,0.0,0.0,0.0,0.0,0.0,0.0,0.0,0.0,0.0,0.0,0.0,0.0,0.0,0.0,0.0,0.0,0.0,0.0,0.0,0.0,0.0,0.0,0.0,0.0,0.0,0.0,0.0,0.0,0.0,0.0,0.0,0.0,0.0,0.0,0.0,0.0,0.0,0.0,-3.0067,-3.6342,-4.0496,-4.0496,-4.0496,-4.0496,-4.0496,-4.0496,-3.8707,-3.4475,0.0,0.0,0.0,0.0,0.0,0.0,0.0,0.0,0.0,0.0,0.0,0.0,0.0,0.0,0.0,0.0,0.0,0.0,0.0,0.0,0.0,0.0,0.0,0.0,0.0,0.0,0.0,0.0,0.0,0.0,0.0,0.0,0.0,0.0,0.0,0.0,0.0,0.0,0.0,0.0,0.0,0.0,0.0,0.0,0.0,0.0,0.0,0.0,0.0,0.0,0.0,0.0,0.0,0.0,0.0,0.0,0.0,0.0,0.0,0.0,-2.6237,0.0,0.0,0.0,0.0,0.0,0.0,0.0,0.0,0.0,0.0,0.0,0.0,0.0,0.0,0.0,0.0,0.0,0.0,0.0,0.0,0.0,0.0,0.0,0.0,0.0,0.0,0.0,0.0,0.0,0.0,0.0,0.0,0.0,0.0,0.0,0.0,0.0,0.0,0.0,0.0,0.0,-3.0067,-3.6342,-4.0496,-4.0496,-4.0496,-4.0496,-4.0496,-4.0496,-3.8707,-3.4475,-3.2352,0.0,0.0,0.0,0.0,0.0,0.0,0.0,0.0,0.0,0.0,0.0,0.0,0.0,0.0,0.0,0.0,0.0,0.0,0.0,0.0,0.0,0.0,0.0,0.0,0.0,0.0,0.0,0.0,0.0,0.0,0.0,0.0,0.0,0.0,0.0,0.0,0.0,0.0,0.0,0.0,0.0,0.0,0.0,0.0,0.0,0.0,0.0,0.0,0.0,0.0,0.0,0.0,0.0,0.0,0.0,0.0,0.0,0.0,0.0,0.0,-2.7056,0.0,0.0,0.0,0.0,0.0,0.0,0.0,0.0,0.0,0.0,0.0,0.0,0.0,0.0,0.0,0.0,0.0,0.0,0.0,0.0,0.0,0.0,0.0,0.0,0.0,0.0,0.0,0.0,0.0,0.0,0.0,0.0,0.0,0.0,0.0,0.0,0.0,0.0,0.0,0.0,-3.0106,-3.6342,-4.0496,-4.0496,-4.0496,-4.0496,-4.0496,-4.0496,-3.9554,-3.738,-3.4507,0.0,0.0,0.0,0.0,0.0,0.0,0.0,0.0,0.0,0.0,0.0,0.0,0.0,0.0,0.0,0.0,0.0,0.0,0.0,0.0,0.0,0.0,0.0,0.0,0.0,0.0,0.0,0.0,0.0,0.0,0.0,0.0,0.0,0.0,0.0,0.0,0.0,0.0,0.0,0.0,0.0,0.0,0.0,0.0,0.0,0.0,0.0,0.0,0.0,0.0,0.0,0.0,0.0,-3.082,-3.146,-3.2165,-3.2166,-3.3705,-3.6188,-3.2684,-3.2819,-3.5014,0.0,0.0,0.0,0.0,0.0,0.0,0.0,0.0,0.0,0.0,0.0,0.0,0.0,0.0,0.0,0.0,0.0,0.0,0.0,0.0,0.0,0.0,0.0,0.0,0.0,-3.4007,-3.5419,0.0,0.0,0.0,0.0,0.0,0.0,0.0,0.0,0.0,0.0,0.0,0.0,-3.0981,-3.6708,-4.0496,-4.0496,-4.0496,-4.0496,-4.0496,-4.0496,-4.0496,-4.0496,-3.6546,-3.3891,0.0,0.0,0.0,0.0,0.0,0.0,0.0,0.0,0.0,0.0,0.0,0.0,0.0,0.0,0.0,0.0,0.0,0.0,0.0,0.0,0.0,0.0,0.0,0.0,0.0,0.0,0.0,0.0,0.0,0.0,0.0,0.0,-2.8083,-2.8312,0.0,0.0,0.0,0.0,0.0,0.0,0.0,0.0,0.0,0.0,0.0,0.0,0.0,0.0,-3.0077,-3.3,-3.4558,-3.4692,-3.7603,-3.9053,-3.9169,-3.9169,-3.9419,-3.9804,-3.9253,0.0,-3.5418,-3.4405,0.0,0.0,0.0,0.0,0.0,0.0,0.0,0.0,0.0,0.0,0.0,0.0,0.0,0.0,0.0,0.0,0.0,0.0,0.0,0.0,0.0,0.0,-3.9423,-3.9307,-3.9713,-3.9946,0.0,-3.3755,-2.8354,-2.6281,0.0,0.0,0.0,0.0,0.0,0.0,0.0,0.0,-3.4231,-3.8157,-4.0496,-4.0496,-4.0496,-4.0496,-4.0496,-4.0496,-4.0496,-4.0496,-3.9861,-3.7861,-3.4186,-3.2756,0.0,0.0,0.0,0.0,0.0,0.0,0.0,0.0,0.0,0.0,0.0,0.0,0.0,0.0,0.0,0.0,0.0,0.0,0.0,0.0,0.0,0.0,0.0,0.0,0.0,0.0,0.0,0.0,0.0,-2.5126,-2.7185,-2.8197,-2.6603,-2.4662,0.0,0.0,0.0,0.0,0.0,0.0,0.0,0.0,0.0,-3.2622,-3.35,-3.4635,-3.6065,-3.7565,-3.8315,-3.8334,-3.9804,-4.0496,-4.0496,-4.0496,-4.0496,-4.0496,-4.0496,-3.9669,-3.8157,-3.6278,-3.3756,-3.089,0.0,0.0,0.0,0.0,0.0,-2.8246,-3.1772,0.0,0.0,0.0,0.0,0.0,0.0,0.0,0.0,0.0,0.0,0.0,0.0,0.0,0.0,-4.0448,-4.0797,-4.0797,-4.0797,-3.8147,-3.4819,0.0,-2.9863,-2.7232,-2.203,0.0,0.0,0.0,0.0,-3.2471,-3.5155,-3.8426,-4.0496,-4.0496,-4.0496,-4.0496,-4.0496,-4.0496,-4.0496,-4.0496,-4.0496,-3.9669,-3.7822,-3.509,-3.166,0.0,0.0,0.0,0.0,0.0,0.0,0.0,0.0,0.0,0.0,0.0,0.0,0.0,0.0,0.0,0.0,0.0,0.0,0.0,0.0,0.0,0.0,0.0,0.0,0.0,0.0,0.0,0.0,-2.6458,-2.8275,-2.8989,-2.8886,-2.7522,0.0,0.0,0.0,0.0,0.0,0.0,-3.1962,-3.2635,-3.416,-3.6699,-3.7353,-3.8584,-4.0477,-4.0496,-4.0496,-4.0496,-4.0496,-4.0496,-4.0496,-4.0496,-4.0496,-4.0496,-4.0496,-4.0496,-4.0304,-3.781,-3.6419,-3.5572,-3.3094,-3.1719,-3.1306,-3.2624,-3.2692,-3.2692,-3.6559,-3.7504,-3.6826,-3.567,0.0,-3.3557,-3.0796,0.0,0.0,0.0,0.0,-3.2957,-3.6168,0.0,-3.8392,-4.0352,-4.0797,-4.0797,-4.0797,-4.0274,-3.9056,0.0,-3.451,-3.1526,-2.6192,0.0,0.0,0.0,0.0,-3.5155,-3.662,-3.8975,-4.0527,-4.0527,-4.0539,-4.0531,-4.0531,-4.0504,-4.0496,-4.0496,-4.0496,-4.0496,-4.0496,-3.7476,-3.4994,-3.3276,0.0,0.0,0.0,0.0,0.0,0.0,0.0,0.0,0.0,0.0,0.0,0.0,0.0,0.0,0.0,0.0,0.0,0.0,0.0,0.0,0.0,0.0,0.0,0.0,0.0,0.0,0.0,0.0,0.0,-3.2814,-3.3913,0.0,0.0,0.0,0.0,-3.1314,-3.1545,-3.3026,-3.6212,-3.6423,-3.7623,-4.0169,-4.0285,-4.0362,-4.0496,-4.0496,-4.0496,-4.0496,-4.0496,-4.0496,-4.0496,-4.0496,-4.0496,-4.0496,-4.0496,-4.0496,-4.0496,-4.0323,-3.8849,-3.6715,-3.6561,-3.4995,-3.3176,-3.5699,-3.6624,-3.6959,-3.9682,-4.0584,-4.0255,-3.856,-3.5814,-3.3436,-3.4872,-3.3576,0.0,0.0,-3.5955,-3.7193,-3.9849,-4.0565,-4.0642,-4.0777,-4.0797,-4.0797,-4.0797,-3.8856,-3.7773,0.0,-4.0371,-3.9152,-3.5612,0.0,-3.5229,-3.4996,-3.5299,-3.6697,-3.9939,-4.0491,-4.0588,-4.0588,-4.0591,-4.0588,-4.0588,-4.0531,-4.0496,-4.0496,-4.0496,-4.0496,-4.0496,-4.0304,-3.8284,-3.4205,-3.3103,0.0,0.0,0.0,0.0,0.0,0.0,0.0,0.0,0.0,0.0,0.0,0.0,0.0,0.0,0.0,0.0,0.0,0.0,0.0,0.0,0.0,0.0,0.0,0.0,0.0,0.0,0.0,0.0,-3.3025,-3.4776,0.0,-3.2685,-3.3653,-3.4577,-3.4885,-3.643,-3.7873,-3.9084,-3.9142,-3.9573,-4.0477,-4.0496,-4.0496,-4.0496,-4.0496,-4.0496,-4.0496,-4.0496,-4.0496,-4.0496,-4.0496,-4.0496,-4.0496,-4.0496,-4.0496,-4.0496,-4.0496,-3.9977,-3.9176,-3.9176,-3.8626,-3.7947,-3.8914,-3.9275,-3.9423,-4.041,-4.0739,-4.0643,-4.0069,-3.905,-3.816,-3.8785,-3.8334,-3.7793,-3.8727,-3.9191,-3.9611,-4.0565,-4.0797,-4.0797,-4.0797,-4.0797,-4.0797,-4.0797,-4.0081,-3.9688,-4.0623,-3.9437,-3.7735,-3.5994,-3.7528,-3.8206,-3.5942,-3.7468,-3.929,-4.044,-4.0595,-4.0595,-4.0595,-4.06,-4.0612,-4.0612,-4.0576,-4.0565,-4.0565,-4.0531,-4.0496,-4.0496,-4.0496,-3.9785,-3.8284,-3.7957,-3.3814,0.0,0.0,0.0,0.0,0.0,0.0,0.0,0.0,0.0,0.0,0.0,0.0,0.0,0.0,0.0,0.0,0.0,0.0,0.0,0.0,0.0,0.0,0.0,0.0,0.0,0.0,-3.5021,-3.3065,-3.5841,-3.693,-3.4433,-3.6486,-3.7988,-3.7988,-3.9554,-4.0496,-4.0496,-4.0496,-4.0496,-4.0496,-4.0496,-4.0496,-4.0496,-4.0496,-4.0496,-4.0496,-4.0496,-4.0496,-4.0496,-4.0496,-4.0496,-4.0496,-4.0496,-4.0496,-4.0496,-4.0496,-4.0496,-4.0496,-4.0496,-4.0496,-4.0516,-4.0573,-4.0607,-4.0615,-4.0673,-4.0707,-4.0739,-4.0784,-4.0797,-4.0797,-4.0797,-4.0797,-4.0797,-4.0797,-4.0797,-4.0797,-4.0797,-4.0797,-4.0797,-4.0797,-4.0797,-4.0797,-4.0797,-4.0797,-4.0797,-4.0797,-3.9398,-3.8044,-3.7502,-3.9307,-3.9817,-3.6907,-3.8916,-4.0514,-3.9876,-4.0301,-4.0668,-4.0668,-4.0654,-4.0628,-4.0628,-3.9834,-3.9678,-4.0552,-3.9752,-3.9641,-4.0492,-3.9434,-3.8811,-3.8815,-3.8815,-3.5199,-2.7865,0.0,0.0,0.0,0.0,0.0,0.0,0.0,0.0,0.0,0.0,0.0,0.0,0.0,0.0,0.0,0.0,0.0,0.0,0.0,0.0,0.0,0.0,0.0,-3.1957,-3.4565,-3.5826,-3.3426,-3.7498,-3.9538,-3.7058,-3.9046,-4.0496,-4.0496,-4.0496,-4.0496,-4.0496,-4.0496,-4.0496,-4.0496,-4.0496,-4.0496,-4.0496,-4.0496,-4.0496,-4.0496,-4.0496,-4.0496,-4.0496,-4.0496,-4.0496,-4.0496,-4.0496,-4.0496,-4.0496,-4.0496,-4.0496,-4.0496,-4.0496,-4.0496,-4.0516,-4.0573,-4.0607,-4.0615,-4.0673,-4.0739,-4.079,-4.079,-4.079,-4.0797,-4.0797,-4.0797,-4.0797,-4.0797,-4.0797,-4.0797,-4.0797,-4.0797,-4.0797,-4.0797,-4.0797,-4.0797,-4.0797,-4.0797,-4.0797,-4.0797,-4.0797,-4.0797,-4.0797,-4.0797,-4.023,-3.8541,-3.9727,0.0,-3.8502,-3.9765,-4.0777,-4.0719,-4.0662,-4.0623,-4.0623,-3.8305,-3.7919,-4.044,-3.8285,-3.8034,-4.0492,-3.7416,-3.5663,-3.5654,-3.55,-3.4596,-3.2891,0.0,0.0,0.0,0.0,0.0,0.0,0.0,0.0,0.0,0.0,0.0,0.0,0.0,0.0,0.0,0.0,0.0,0.0,0.0,0.0,0.0,-3.2747,-3.5055,-3.4339,-3.7154,-3.905,-3.8402,-3.9613,-4.0222,-3.9519,-4.0088,-4.0496,-4.0496,-4.0496,-4.0496,-4.0496,-4.0496,-4.0496,-4.0496,-4.0496,-4.0496,-4.0496,-4.0496,-4.0496,-4.0496,-4.0496,-4.0496,-4.0496,-4.0496,-4.0496,-4.0496,-4.0496,-4.0496,-4.0496,-4.0496,-4.0496,-4.0496,-4.0496,-4.0496,-4.0496,-4.0523,-4.0565,-4.0607,-4.061,-4.0646,-4.0668,-4.0707,-4.0733,-4.0739,-4.0784,-4.0797,-4.0797,-4.0797,-4.0797,-4.0797,-4.0797,-4.0797,-4.0797,-4.0797,-4.0797,-4.0797,-4.0797,-4.0797,-4.0797,-4.0797,-4.0797,-4.0797,-4.0797,-4.0797,-4.0642,-4.0152,-4.0487,0.0,-4.0152,-4.0507,-4.0332,-3.905,-3.8902,-3.8896,-3.8896,-3.8234,-3.864,-4.0552,-3.9965,-3.9874,-4.0574,-3.9697,-3.9167,-3.913,-3.5507,-3.3372,0.0,0.0,0.0,0.0,0.0,0.0,0.0,0.0,0.0,0.0,0.0,0.0,0.0,0.0,0.0,0.0,0.0,0.0,0.0,0.0,0.0,0.0,-3.5517,-3.7383,-3.7395,-3.9072,-4.0316,-4.0362,-4.0424,-4.0449,-4.0449,-4.0479,-4.0503,-4.0503,-4.0508,-4.0669,-4.1027,-4.1046,-4.12,-4.1593,-4.1593,-4.1593,-4.1593,-4.1593,-4.1593,-4.1593,-4.1593,-4.1593,-4.1593,-4.1593,-4.1593,0.0,-4.1593,-4.1373,-4.1046,-4.1046,-4.0843,0.0,0.0,0.0,0.0,0.0,-4.0539,-4.0607,-4.0607,-4.0598,-4.0614,-4.0687,-4.07,-4.0707,-4.0784,-4.0797,-4.0797,-4.0797,-4.0797,-4.0797,-4.0797,-4.0797,-4.0797,-4.0797,-4.0797,-4.0797,-4.0797,-4.0797,-4.0797,-4.0797,0.0,0.0,-4.0797,-4.0797,-4.0545,-3.9823,-4.0326,-4.0545,-3.9804,-4.0352,-4.041,-3.9398,-3.9282,-3.9282,-3.9282,-3.8297,0.0,0.0,0.0,-3.8891,-3.8518,-3.8517,0.0,0.0,0.0,-3.4687,-3.6131,0.0,0.0,0.0,-3.0698,-2.9646,0.0,0.0,0.0,0.0,0.0,0.0,0.0,0.0,0.0,0.0,0.0,0.0,0.0,0.0,0.0,0.0,-3.8169,-4.0301,-4.0289,-4.0298,-4.0298,-4.0316,-4.0362,-4.0407,-4.0415,-4.0477,-4.0502,-4.0491,-4.0588,-4.0969,-4.175,0.0,0.0,0.0,0.0,-4.3104,-4.3104,-4.3104,-4.3104,-4.3104,-4.3104,-4.3104,-4.3104,-4.3104,-4.3104,-4.3104,-4.3104,-4.2662,-4.1942,-4.1942,-4.1489,-4.0766,-4.0573,-4.0496,-4.0496,-4.0496,-4.0539,0.0,0.0,0.0,0.0,-4.0673,-4.0687,-4.07,-4.0778,-4.079,-4.0797,-4.0797,-4.0797,-4.0797,-4.0797,-4.0797,-4.0797,-4.0797,-4.0797,-4.0797,-4.0797,-4.0797,-4.0797,-4.0797,-4.0797,-4.0797,-4.0797,-4.0797,-4.0268,-3.874,-3.9804,0.0,-3.8702,-3.9843,-4.0719,-4.0526,0.0,0.0,-4.0507,-3.8373,-3.8121,-4.0642,-3.8624,-3.6988,-3.6217,-3.6168,-3.6175,-3.615,-3.6113,-3.7577,-4.0595,-4.0546,-4.0504,-4.0312,-3.2032,-3.0215,0.0,0.0,0.0,0.0,0.0,0.0,0.0,0.0,0.0,0.0,0.0,0.0,0.0,0.0,0.0,-3.6061,-3.8532,-4.031,-4.0301,-4.0301,-4.0328,-4.037,-4.0379,-4.0424,-4.0485,-4.0493,-4.0499,-4.05,-4.1154,-4.1623,-4.1788,-4.247,0.0,-4.3085,-4.3104,-4.3104,-4.3104,-4.3104,-4.3104,-4.3104,0.0,0.0,-4.3104,-4.3104,-4.3104,-4.3104,-4.3104,-4.3008,-4.2854,-4.2854,-4.2758,-4.245,-4.1054,-4.0496,-4.0496,-4.0496,-4.0516,-4.0523,-4.0523,-4.0512,-4.0527,-4.0595,-4.0612,-4.0628,-4.07,-4.0752,0.0,-4.0797,-4.0797,-4.0797,-4.0797,-4.0797,-4.0797,-4.0797,-4.0797,-4.0797,-4.0797,-4.0797,-4.0797,-4.0797,-4.0797,-4.0797,-4.0797,-4.0797,-4.07,-4.0352,-4.0584,-4.0681,-4.0346,-4.0584,-4.0249,-3.8856,-3.8702,-3.8702,-3.8702,-3.8232,-3.876,-4.0681,-4.0332,-3.9946,-3.9715,-3.9709,-3.9695,-3.963,-3.9623,-3.9944,-4.06,-4.0593,-4.0571,-4.0534,-3.8683,-3.8279,0.0,0.0,0.0,0.0,0.0,0.0,0.0,0.0,0.0,0.0,0.0,-3.1016,-3.3544,0.0,-3.6455,-3.814,-3.9479,-4.0301,-4.0301,-4.031,-4.0308,-4.0353,-4.0353,-4.0379,-4.0441,-4.0485,-4.0663,-4.1072,-4.153,-4.2181,-4.3008,-4.3451,-4.3893,-4.4335,-4.4355,-4.4355,-4.4355,-4.4355,-4.4355,-4.4355,-4.4355,-4.4355,-4.4355,-4.4355,-4.4355,-4.4355,-4.4355,-4.4105,-4.3662,-4.3278,-4.3104,-4.3008,-4.2143,-4.1797,-4.1797,-4.1797,-4.1797,-4.1797,-4.1797,-4.1797,-4.1747,-4.1362,-4.1258,-4.1191,-4.0815,-4.0713,-4.0752,-4.079,-4.0797,-4.0797,-4.0797,-4.0797,-4.0797,-4.0797,-4.0797,-4.0797,-4.0797,-4.0797,-4.0797,-4.0797,-4.0797,-4.0797,-4.0797,-4.0797,-4.0797,-4.0797,-4.0797,-4.0797,-4.0797,-4.0797,-4.0468,-3.9591,-3.9495,-3.9495,-3.9495,-3.9495,-3.9862,-4.0739,-4.0797,-4.0784,-4.0746,-4.0746,-4.072,-4.0707,-4.0668,-4.0654,-4.0654,-4.0621,-4.06,-4.0598,-4.0564,-4.0564,0.0,0.0,0.0,0.0,0.0,0.0,0.0,-2.7612,-2.83,-3.2363,-3.3219,-3.4048,-3.6738,-3.7233,-3.791,-3.9966,-4.0301,-4.0301,-4.0301,-4.03,-4.0298,-4.0307,-4.0316,-4.0353,-4.0415,-4.0477,-4.0836,-4.1671,-4.1926,-4.272,-4.422,-4.4451,-4.4874,-4.5575,-4.5594,-4.5594,-4.5594,-4.5594,-4.5594,-4.5594,-4.5594,-4.5594,-4.5594,-4.5594,-4.5594,-4.5594,-4.5594,-4.521,-4.4489,-4.3855,-4.3585,-4.3585,-4.3585,-4.3585,-4.3547,-4.322,-4.3104,-4.3104,-4.3104,-4.3104,-4.2997,-4.2337,-4.2121,-4.2009,-4.1354,-4.1189,-4.1209,-4.1255,-4.1274,-4.13,-4.13,-4.13,-4.13,-4.13,-4.1164,-4.1029,-4.1029,-4.0913,-4.0797,-4.0797,-4.0797,-4.0797,-4.0797,-4.0797,-4.0797,-4.0797,-4.0797,-4.0797,-4.0797,-4.0797,-4.0797,-4.0797,-4.0797,-4.0797,-4.0797,-4.0797,-4.0797,-4.0797,-4.0797,-4.0797,-4.0797,-4.0797,-4.0797,-4.0797,-4.0746,-4.0726,-4.0726,-4.0668,-4.0628,-4.0621,-4.0621,-4.0621,-2.5313,-2.3841,-2.5063,-2.8605,-2.8909,-3.0147,0.0,-3.626,-3.5076,-3.8582,-3.9317,-3.9431,-3.9804,-3.9871,-3.9966,-4.0244,-4.0301,-4.0301,-4.0301,-4.031,-4.0291,-4.0298,-4.0362,-4.0424,-4.0493,-4.0502,-4.0864,-4.1723,-4.25,-4.3355,-4.4239,-4.5037,-4.5498,-4.5594,-4.5594,-4.5594,-4.5594,-4.5594,-4.5594,-4.5594,-4.5594,-4.5594,-4.5594,-4.5594,-4.5594,-4.5594,-4.5594,-4.5537,-4.546,-4.5364,-4.5325,-4.5325,-4.5325,-4.5325,-4.5152,-4.3643,-4.3104,-4.3104,-4.3104,-4.3104,-4.3085,-4.2997,-4.2964,-4.2938,-4.2857,-4.2864,-4.2915,-4.2922,-4.2969,-4.3015,-4.3015,-4.3015,-4.3015,-4.3015,-4.2434,-4.1874,-4.1874,-4.1293,-4.0797,-4.0797,-4.0797,-4.0797,-4.0797,-4.0797,-4.0797,-4.0797,-4.0797,-4.0797,-4.0797,-4.0797,-4.0797,-4.0797,-4.0797,-4.0797,-4.0797,-4.0797,-4.0797,-4.0797,-4.0797,-4.0797,-4.0797,-4.0797,-4.0797,-4.0797,-4.079,-4.079,-4.079,-4.0784,-4.0746,-4.0694,-4.0694,-4.0694,-3.1695,-3.0104,-2.9768,-3.2993,-3.3565,-3.4165,-3.736,-3.6978,-3.6787,-3.969,-4.0301,-4.0301,-4.0301,-4.0301,-4.0301,0.0,-4.0301,-4.0301,-4.0301,-4.0291,-4.0299,-4.0307,-4.0362,-4.0424,-4.0502,-4.0502,-4.1075,-4.2442,-4.2893,-4.3662,-4.4998,-4.5402,-4.5594,-4.5594,-4.5594,-4.5594,-4.5594,-4.5594,-4.5594,-4.5594,-4.5594,-4.5594,-4.5594,-4.5594,-4.5594,-4.5594,-4.5594,-4.5594,-4.5594,-4.5594,-4.5594,-4.5594,-4.5594,-4.5594,-4.5518,-4.4806,-4.4547,-4.4547,-4.4547,-4.4547,-4.447,-4.3951,-4.3794,-4.3715,-4.3238,-4.3115,-4.3153,-4.319,-4.3218,-4.3252,-4.3298,-4.3305,-4.3305,-4.3305,-4.3015,-4.2763,-4.2763,-4.2492,-4.2241,-4.2241,-4.2241,-4.2241,-4.2241,-4.2241,-4.2241,-4.2241,-4.1409,-4.0797,-4.0797,-4.0797,-4.0797,-4.0797,-4.0797,-4.0797,-4.0797,-4.0797,-4.0797,-4.0797,-4.0797,-4.0797,-4.0797,-4.0797,-4.0797,-4.0797,-4.0797,-4.0797,-4.0797,-4.0797,-4.0784,-4.0752,-4.0752,-4.0752,-3.3881,-3.3527,-3.3287,-3.5808,-3.6981,-3.7533,-3.7551,-3.7551,-3.8066,-3.9919,-4.0301,-4.0301,-4.0301,-4.0301,-4.0301,-4.0301,-4.0301,-4.0301,-4.0301,-4.03,-4.0308,-4.0308,-4.0344,-4.0407,-4.0477,-4.0493,-4.1209,-4.297,-4.3104,-4.3835,-4.5518,-4.5594,-4.5594,-4.5594,-4.5594,-4.5594,-4.5594,-4.5594,-4.5594,-4.5594,-4.5594,-4.5594,-4.5594,-4.5594,-4.5594,-4.5594,-4.5594,-4.5594,-4.5594,-4.5594,-4.5594,-4.5594,-4.5594,-4.5594,-4.5594,-4.5594,-4.5594,-4.5594,-4.5594,-4.5594,-4.5498,-4.4855,-4.4662,-4.4556,-4.3973,-4.3797,-4.3821,-4.3875,-4.3904,-4.3933,-4.3981,-4.3994,-4.3982,-4.3982,-4.3827,-4.3653,-4.3653,-4.3479,-4.3305,-4.3305,-4.3305,-4.3305,-4.3305,-4.3305,-4.3305,-4.3305,-4.226,-4.1487,-4.1487,-4.1487,-4.1487,-4.1487,-4.128,-4.1126,-4.1126,-4.0932,-4.0797,-4.0797,-4.0797,-4.0797,-4.0797,-4.0797,-4.0797,-4.0797,-4.0797,-4.0797,-4.0797,-4.0797,-4.0797,-4.0797,-4.0797,-4.0797,-2.8662,-3.0829,-3.3236,-3.5834,-3.8298,-4.0101,-4.0177,-4.0186,-4.0205,-4.0282,-4.0301,-4.0301,-4.0301,-4.0301,-4.0301,-4.0301,-4.0301,-4.0301,-4.0301,-4.0301,-4.031,-4.031,-4.0299,-4.0325,0.0,-4.0458,-4.1209,-4.297,-4.3104,-4.3835,-4.5518,-4.5594,-4.5594,-4.5594,-4.5594,-4.5594,-4.5594,-4.5594,-4.5594,-4.5594,-4.5594,-4.5594,-4.5594,-4.5594,-4.5594,-4.5594,-4.5594,-4.5594,-4.5594,-4.5594,-4.5594,-4.5594,-4.5594,-4.5594,-4.5594,-4.5594,-4.5594,-4.5594,-4.5594,-4.5594,-4.5594,-4.5575,-4.5556,-4.5556,-4.5537,-4.5571,-4.5624,-4.5624,-4.5669,-4.573,-4.5711,-4.572,-4.5729,-4.5729,-4.5123,-4.4555,-4.4555,-4.3904,-4.3305,-4.3305,-4.3305,-4.3305,-4.3305,-4.3305,-4.3305,-4.3305,-4.3266,-4.3227,-4.3227,-4.3227,-4.3227,-4.3227,-4.2473,-4.1951,-4.1951,-4.1255,-4.0797,-4.0797,-4.0797,-4.0797,-4.0797,-4.0797,-4.0797,-4.0797,-4.0797,-4.0797,-4.0797,-4.0797,-4.0797,-4.0797,-4.0797,-4.0797,-3.1828,-3.4093,-3.6606,-3.9183,-4.0043,-4.0263,-4.0282,-4.0301,-4.0301,-4.0301,-3.9421,-3.8637,-3.8637,-3.8637,-3.8637,-3.8637,-3.9574,-4.0301,-4.0301,-4.0301,-4.0301,-4.0299,-4.0298,0.0,0.0,0.0,0.0,-4.3008,-4.3585,-4.4393,-4.5537,-4.5594,-4.5594,-4.5594,-4.5594,-4.5594,-4.5594,-4.5594,-4.5893,-4.6471,-4.7009,-4.7259,-4.7259,-4.7259,-4.7259,-4.7259,-4.7259,-4.7259,-4.7259,-4.7259,-4.7259,-4.7259,-4.7259,-4.6932,-4.6471,-4.6471,-4.6105,-4.5594,-4.5594,-4.5594,-4.5594,-4.5594,-4.5594,-4.5594,-4.5594,-4.5622,-4.564,-4.5693,-4.5722,-4.5731,-4.58,-4.5798,-4.5807,-4.5807,-4.5587,-4.5394,-4.5394,-4.5162,-4.4949,-4.4949,-4.4949,-4.4949,-4.4949,-4.4949,-4.4949,-4.4949,-4.4001,-4.3305,-4.3305,-4.3305,-4.3305,-4.3305,-4.3034,-4.286,-4.286,-4.2609,-4.2454,-4.2454,-4.1912,-4.1603,-4.1603,-4.1087,-4.0797,-4.0797,-4.0797,-4.0797,-4.0797,-4.0797,-4.0797,-4.0797,-4.0797,-4.0797,-3.4923,-3.6948,-3.8706,-4.0941,-4.1113,-4.0654,-4.0358,-4.0301,-4.0301,-4.0301,-3.8732,-3.7439,-3.7736,-3.7553,-3.7439,-3.7755,-3.922,-4.0301,-4.0301,-4.0301,-4.0309,-4.0307,-4.0611,-4.1038,0.0,0.0,0.0,-4.3489,-4.4008,-4.4682,-4.5556,-4.5594,-4.5594,-4.5594,-4.5594,-4.5594,-4.5594,-4.5913,-4.649,-4.7336,-4.7855,-4.8105,-4.8105,-4.8105,-4.8105,-4.8105,-4.8105,-4.8105,-4.8105,-4.8105,-4.8105,-4.8105,-4.8105,-4.7778,-4.7336,-4.7336,-4.6971,-4.6413,-4.5806,-4.5594,-4.5594,-4.5594,-4.5594,-4.5594,-4.5594,-4.5594,-4.5622,-4.5648,-4.569,-4.5711,-4.5754,-4.5788,-4.5805,-4.5805,-4.5793,-4.5807,-4.5807,-4.5807,-4.5807,-4.5807,-4.5807,-4.5807,-4.5807,-4.5807,-4.5807,-4.5807,-4.4871,-4.4194,-4.4194,-4.4194,-4.4194,-4.4194,-4.3943,-4.3769,-4.3769,-4.3479,-4.3305,-4.3305,-4.2763,-4.2454,-4.2454,-4.197,-4.168,-4.168,-4.168,-4.1545,-4.1242,-4.1242,-4.1087,-4.0797,-4.0797,-4.0797,-3.7559,-3.9164,-3.9642,-4.1227,-4.159,-4.1342,-4.0559,-4.0358,-4.0301,-4.0138,-3.812,-3.6578,-3.7285,-3.6845,-3.6654,-3.7477,-3.9125,-4.0301,-4.031,-4.029,-4.0326,0.0,0.0,0.0,0.0,0.0,0.0,-4.4355,0.0,-4.472,-4.5556,-4.5594,-4.5594,-4.5594,-4.5594,-4.5614,-4.5671,-4.6567,-4.7413,-4.8163,-4.8221,-4.824,-4.824,-4.824,-4.824,-4.824,-4.824,-4.824,-4.824,-4.824,-4.824,-4.824,-4.824,-4.8221,-4.8163,-4.8163,-4.8144,-4.7875,-4.6278,-4.5729,-4.5729,-4.5729,-4.5729,-4.5729,-4.5729,-4.5729,-4.5729,-4.5729,-4.5783,-4.5836,-4.5836,-4.5843,-4.5858,-4.5865,-4.5836,-4.58,-4.5807,-4.5807,-4.5807,-4.5807,-4.5807,-4.5807,-4.5807,-4.5807,-4.5807,-4.5807,-4.5807,-4.5807,-4.5807,-4.5807,-4.5807,-4.5807,-4.5123,-4.4652,-4.4652,-4.3904,-4.344,-4.344,-4.3401,-4.3363,-4.3363,-4.3324,-4.3305,-4.3305,-4.3305,-4.2899,-4.2067,-4.2067,-4.1661,-4.0932,-4.0932,-4.0932,-3.9556,-4.1313,-4.2822,-4.3261,-4.2908,-4.224,-4.138,-4.1189,-4.0492,-3.7976,-3.6001,-3.4201,-3.2516,-3.3576,-3.4787,-3.5017,-3.7995,0.0,-4.0299,-4.03,0.0,-4.1252,-4.152,-4.2133,-4.3444,-4.4007,0.0,0.0,-4.5241,-4.5364,-4.5594,-4.5594,-4.5594,-4.5594,-4.5594,-4.5913,-4.6567,-4.8029,-4.8875,-4.9086,-4.9721,-5.0029,-5.0029,-5.0029,-5.0029,-5.0029,-5.0029,-5.0029,-5.0029,-5.0029,-5.0029,-5.0029,-5.0029,-4.9644,-4.9067,-4.9067,-4.8663,-4.8048,-4.7605,-4.7451,-4.7451,-4.7451,-4.7451,-4.7451,-4.7451,-4.7451,-4.7451,-4.7451,-4.7507,-4.7561,-4.7561,-4.7141,-4.67,-4.675,-4.6271,-4.5791,-4.58,-4.5807,-4.5807,-4.5807,-4.5807,-4.5807,-4.5807,-4.5807,-4.5807,-4.5807,-4.5807,-4.5807,-4.5807,-4.5807,-4.5807,-4.5807,-4.5633,-4.549,-4.549,-4.5278,-4.5162,-4.5162,-4.4601,-4.4265,-4.4265,-4.3634,-4.3305,-4.3305,-4.3305,-4.3189,-4.2976,-4.2976,-4.286,-4.2667,-4.2667,-4.2667,-4.2087,-4.352,-4.4475,-4.4102,-4.3663,-4.2717,-4.0368,-3.987,-3.8923,-3.5564,-3.3293,-3.159,-3.0497,-3.2063,-3.3652,-3.4036,0.0,0.0,-4.0309,-4.0309,-4.0643,0.0,-4.1971,0.0,-4.4077,-4.4546,-4.4968,0.0,-4.555,-4.5594,-4.5594,-4.5594,-4.5594,-4.5594,-4.597,-4.6759,-4.799,-4.8933,-4.9586,-4.9971,-5.0481,-5.0712,-5.0712,-5.0712,-5.0712,-5.0712,0.0,-5.0712,-5.0712,-5.0712,-5.0712,-5.0712,-5.0712,-5.0404,-4.9971,-4.9971,-4.9663,-4.924,-4.924,-4.924,-4.9106,-4.8355,-4.8105,-4.8105,-4.8105,-4.8105,-4.8105,-4.8105,-4.8124,-4.8161,-4.8161,-4.785,-4.7546,-4.7615,-4.7252,-4.6916,-4.6934,-4.6941,-4.6825,-4.6445,-4.6058,-4.5807,-4.5807,-4.5807,-4.5807,-4.5807,-4.5807,-4.5807,-4.5807,-4.5807,-4.5807,-4.5807,-4.5807,-4.5807,-4.5807,-4.5807,-4.5807,-4.5807,-4.5374,-4.5123,-4.5123,-4.4659,-4.4407,-4.4407,-4.4407,-4.4214,-4.3866,-4.3866,-4.3672,-4.3305,-4.3305,-4.3305,-4.4513,-4.5307,-4.5125,-4.435,-4.4159,-4.308,-3.8848,-3.791,-3.6884,-3.3092,-3.0593,-2.9211,-2.9562,-3.1187,-3.2828,-3.3921,-3.74,-4.0081,-4.0425,-4.0366,-4.0662,-4.1637,-4.243,-4.3273,-4.425,-4.4988,-4.539,-4.539,-4.5504,-4.5577,-4.5577,-4.5577,-4.5643,-4.5768,-4.6721,-4.7932,-4.9394,-4.951,-4.9952,-5.0712,-5.0712,-5.0712,-5.0712,-5.0712,-5.0712,-5.0712,0.0,0.0,-5.0712,-5.0712,-5.0712,-5.0712,-5.0712,-5.0712,-5.0712,-5.0712,-5.0712,-5.0712,-5.0712,-5.0712,-5.0462,-4.8933,-4.8452,-4.8452,-4.8452,-4.8452,-4.8452,-4.8452,-4.8452,-4.8452,-4.8452,-4.8402,-4.839,-4.8441,-4.8376,-4.8319,-4.8377,-4.8392,-4.8179,-4.7424,-4.6581,-4.5981,-4.5981,-4.5884,-4.5807,-4.5807,-4.5807,-4.5807,-4.5807,-4.5807,-4.5807,-4.5807,-4.5807,-4.5807,-4.5807,-4.5807,-4.5807,-4.5807,-4.5807,-4.5807,-4.5807,-4.5807,-4.5807,-4.5807,-4.5807,-4.5452,-4.4755,-4.4755,-4.4369,-4.3634,-4.3634,-4.3634,-4.5154,-4.5307,-4.5269,-4.5105,-4.5067,-4.3969,-3.9745,-3.8779,-3.7064,-3.0983,-2.9397,-2.8507,-2.6523,-2.8672,-3.1475,-3.3741,-3.6433,-3.8979,-4.1073,-4.0759,-4.0873,0.0,-4.2728,-4.3416,-4.4965,-4.5292,0.0,0.0,0.0,-4.5429,-4.5429,-4.5495,-4.5877,-4.6663,-4.8163,-4.9106,-4.9394,-5.0106,-5.0558,-5.0712,-5.0712,-5.0712,-5.0712,-5.0712,-5.0712,-5.0712,0.0,0.0,-5.0712,-5.0712,-5.0712,-5.0712,-5.0712,-5.0712,-5.0712,-5.0712,-5.0712,-5.0712,-5.0712,-5.0712,-5.0654,-5.0346,-5.025,-5.025,-5.025,-5.025,-5.025,-5.025,-5.025,-5.025,-5.025,-4.9711,-4.9211,-4.9276,-4.8789,-4.8298,-4.8319,-4.8369,-4.8353,-4.8198,-4.7463,-4.6864,-4.6864,-4.629,-4.5807,-4.5807,-4.5807,-4.5807,-4.5807,-4.5807,-4.5807,-4.5807,-4.5807,-4.5807,-4.5807,-4.5807,-4.5807,-4.5807,-4.5807,-4.5807,-4.5807,-4.5807,-4.5807,-4.5807,-4.5807,-4.5729,-4.5587,-4.5587,-4.551,-4.5381,-4.5381,-4.5381,-4.5307,-4.5307,-4.5307,-4.5307,-4.5307,-4.3855,-3.8339,-3.7064,-3.5174,-2.8495,-2.7116,-2.6748,-2.5534,-2.7698,-3.0203,-3.1852,-3.5327,-3.8376,-4.003,-4.1026,-4.2059,-4.3282,-4.3415,-4.3921,-4.5182,-4.5328,-4.5338,0.0,0.0,-4.537,-4.54,-4.5889,-4.6772,-4.8116,-4.8952,-4.9625,-5.0067,-5.05,-5.0712,-5.0712,-5.0712,-5.0712,-5.0712,-5.0712,-5.0712,-5.0712,-5.0712,0.0,-5.0712,-5.0712,-5.0712,-5.0712,-5.0712,-5.0712,-5.0712,-5.0712,-5.0712,-5.0712,-5.0712,-5.0712,-5.0712,-5.0712,-5.0712,-5.0712,-5.0712,-5.0712,-5.0712,-5.0712,-5.0712,-5.0712,-5.0712,-5.0385,-5.0086,-5.0133,-4.9869,-4.9639,-4.9644,-4.9347,-4.9088,-4.9088,-4.8372,-4.7773,-4.7773,-4.7038,-4.6484,-4.6484,-4.6097,-4.5807,-4.5807,-4.5807,-4.5807,-4.5807,-4.5807,-4.5807,-4.5807,-4.5807,-4.5807,-4.5807,-4.5807,-4.5807,-4.5807,-4.5807,-4.5807,-4.5807,-4.5807,-4.5807,-4.5807,-4.5807,-4.5807,-4.5807,-4.5807,-4.5807,-4.5154,-4.5307,-4.5307,-4.5307,-4.5307,-4.353,-3.6826,-3.5308,-3.3403,-2.6688,-2.5293,-2.5308,-2.5308,-2.7089,-2.9012,-3.0362,-3.404,-3.7332,-3.9045,-4.0998,-4.2698,-4.3854,-4.4006,0.0,-4.522,-4.5307,0.0,0.0,0.0,0.0,-4.5649,-4.6704,-4.7894,-4.9229,-4.9519,-4.999,-5.0673,-5.0683,-5.0712,-5.0712,-5.0712,-5.0712,-5.0712,-5.0712,-5.0712,-5.0712,-5.0712,0.0,0.0,-5.0712,-5.0712,-5.0712,-5.0712,-5.0712,-5.0712,-5.0712,-5.0712,-5.0712,-5.0712,-5.0712,-5.0712,-5.0712,-5.0712,-5.0712,-5.0712,-5.0712,-5.0712,-5.0712,-5.0712,-5.0712,-5.0712,-5.0712,-5.0702,-5.0711,-5.0784,-5.0872,-5.0899,-5.0391,-4.9958,-4.9958,-4.9262,-4.8682,-4.8682,-4.7966,-4.7386,-4.7386,-4.6631,-4.6078,-4.6078,-4.5923,-4.5807,-4.5807,-4.5807,-4.5807,-4.5807,-4.5807,-4.5807,-4.5807,-4.5807,-4.5807,-4.5807,-4.5807,-4.5807,-4.5807,-4.5807,-4.5807,-4.5807,-4.5807,-4.5807,-4.5807,-4.5807,-4.5904,-4.4676,-4.5307,-4.5307,-4.5307,-4.5307,-4.354,-3.684,-3.5304,-3.3391,-2.6691,-2.5303,-2.5308,-2.5308,-2.6135,-2.7849,-3.0977,-3.2471,-3.4887,-3.9524,-4.0386,-4.139,-4.372,0.0,0.0,-4.522,-4.5307,0.0,0.0,0.0,0.0,-4.6489,-4.8012,-4.899,-4.9196,-5.0045,-5.0526,-5.0603,-5.0663,-5.0712,-5.0712,-5.0712,-5.0712,-5.0712,-5.0712,-5.0712,-5.0712,0.0,0.0,0.0,-5.0712,-5.0712,-5.0712,-5.0712,-5.0712,-5.0712,-5.0712,-5.0712,-5.0712,-5.0712,-5.0712,-5.0712,-5.0712,-5.0712,-5.0712,-5.0712,-5.0712,-5.0712,-5.0712,-5.0712,-5.0712,-5.0712,-5.0712,-5.0702,-5.0711,-5.0766,-5.0838,-5.0891,-5.0835,-5.0782,-5.0782,-5.0152,-4.9591,-4.9591,-4.8856,-4.8275,-4.8275,-4.754,-4.698,-4.698,-4.629,-4.5807,-4.5807,-4.5807,-4.5807,-4.5807,-4.5807,-4.5807,-4.5807,-4.5807,-4.5807,-4.5807,-4.5807,-4.5807,-4.5807,-4.5807,-4.5807,-4.5807,-4.5807,-4.5807,-4.5807,-4.5807,-4.6232,-4.4475,-4.5307,-4.5307,-4.5307,-4.3788,-4.1064,-3.6369,-3.3729,-3.0957,-2.6273,-2.5308,-2.5308,-2.5308,-2.5577,-2.6591,-2.8983,-3.0881,-3.2957,-3.5438,-3.8835,-4.1246,-4.1714,-4.3558,0.0,0.0,0.0,0.0,0.0,0.0,0.0,-4.8081,-4.8745,-4.9352,-4.9899,-5.0359,-5.0603,-5.0603,-5.0682,-5.0712,-5.0712,-5.0712,-5.0712,-5.0712,-5.0712,-5.0712,-5.0712,0.0,0.0,0.0,-5.0712,-5.0712,-5.0712,-5.0712,-5.0712,-5.0712,-5.0712,-5.0712,-5.0712,-5.0712,-5.0712,-5.0712,-5.0712,-5.0712,-5.0712,-5.0712,-5.0712,-5.0712,-5.0712,-5.0712,-5.0712,-5.0712,-5.0712,-5.0693,-5.0693,-5.072,-5.0766,-5.0838,-5.088,-5.0893,-5.0898,-5.0647,-5.0415,-5.0415,-4.9726,-4.9184,-4.9184,-4.843,-4.7869,-4.7869,-4.7579,-4.7366,-4.7366,-4.6426,-4.5807,-4.5807,-4.5807,-4.5807,-4.5807,-4.5807,-4.5807,-4.5807,-4.5807,-4.5807,-4.5807,-4.5807,-4.5807,-4.5807,-4.6329,-4.6581,-4.66,-4.7115,-4.7533,-4.2985,-4.4532,-4.5307,-4.5307,-4.2785,-3.9418,-3.6063,-3.2701,-2.9345,-2.599,-2.5308,-2.5308,-2.5308,-2.5308,-2.5788,-2.7274,-2.9177,-3.1021,-3.2586,-3.6583,-3.9487,-3.9871,0.0,-4.373,0.0,0.0,0.0,0.0,0.0,0.0,0.0,-4.9449,-4.9728,-5.034,-5.0478,-5.0551,-5.0551,-5.0623,-5.0663,-5.0663,-5.0683,-5.0712,-5.0712,-5.0712,-5.0712,-5.0712,0.0,0.0,0.0,-5.0712,-5.0712,-5.0712,-5.0712,-5.0712,-5.0712,-5.0712,-5.0712,-5.0712,-5.0712,-5.0712,-5.0712,-5.0712,-5.0712,-5.0712,-5.0712,-5.0712,-5.0712,-5.0712,-5.0712,-5.0712,-5.0712,-5.0712,-5.0712,-5.0712,-5.0702,-5.071,-5.0766,-5.0838,-5.0908,-5.0893,-5.089,-5.0898,-5.0898,-5.0434,-5.0055,-5.0055,-4.9339,-4.8778,-4.8778,-4.8566,-4.8392,-4.8392,-4.7289,-4.6464,-4.6213,-4.6174,-4.6078,-4.5826,-4.5807,-4.5807,-4.5807,-4.5807,-4.5923,-4.6174,-4.6174,-4.631,-4.6581,-4.7192,-4.7475,-4.7468,-4.8087,-4.8462,-3.9652,-4.2775,-4.5307,-4.5307,-4.2785,-3.9418,-3.6063,-3.2701,-2.9345,-2.599,-2.5308,-2.5308,-2.5308,-2.5308,-2.5596,-2.6467,-2.73,-2.8994,-3.2323,-3.3539,-3.5299,0.0,0.0,-4.0062,0.0,0.0,0.0,0.0,0.0,0.0,0.0,-5.0283,-5.0283,-5.0302,-5.0379,-5.0401,-5.0401,-5.0521,-5.0603,-5.0603,-5.0663,-5.0712,-5.0712,-5.0712,-5.0712,0.0,0.0,0.0,0.0,-5.0712,-5.0712,-5.0712,-5.0712,-5.0712,-5.0712,-5.0712,-5.0712,-5.0712,-5.0712,-5.0712,-5.0712,-5.0712,-5.0712,-5.0712,-5.0712,-5.0712,-5.0712,-5.0712,-5.0712,-5.0712,-5.0712,-5.0712,-5.0712,-5.0712,-5.0702,-5.0701,-5.0701,-5.0812,-5.0899,-5.0899,-5.0893,-5.0898,-5.0898,-5.0898,-5.0898,-5.0898,-5.0202,-4.9687,-4.9687,-4.8933,-4.8392,-4.8392,-4.8372,-4.8024,-4.7154,-4.7096,-4.6709,-4.5845,-4.5807,-4.5807,-4.5807,-4.5807,-4.6213,-4.7076,-4.7096,-4.7502,-4.8372,-4.8372,-4.835,-4.8292,-4.8292,-4.8726,-3.5974,-3.7625,-3.8465,-3.8465,-3.5943,-3.3192,-3.2114,-2.9288,-2.6575,-2.5514,-2.5293,-2.5302,-2.5302,-2.5302,-2.5955,-2.7972,-2.8524,-2.9255,-3.0855,0.0,0.0,-3.7311,-4.0845,-4.3615,0.0,0.0,0.0,0.0,0.0,0.0,0.0,-5.0302,-5.0302,-5.0302,-5.0379,-5.0401,-5.0401,-5.0489,-5.0532,-5.0532,-5.0603,-5.0623,-5.0633,-5.0673,0.0,0.0,0.0,0.0,0.0,-5.0712,-5.0712,-5.0712,-5.0712,-5.0712,-5.0712,-5.0712,-5.0712,-5.0712,-5.0712,-5.0712,-5.0712,-5.0712,-5.0712,-5.0712,-5.0712,-5.0712,-5.0712,-5.0712,-5.0712,-5.0712,-5.0712,-5.0712,-5.0712,-5.0712,-5.0702,-5.0702,-5.0692,-5.0775,-5.0838,-5.0838,-5.0877,-5.089,-5.0905,-5.0901,-5.0898,-5.0898,-5.0685,-5.0511,-5.0511,-5.0279,-5.0105,-5.0105,-5.0105,-4.9533,-4.8101,-4.7985,-4.7869,-4.7579,-4.7579,-4.7579,-4.7579,-4.7579,-4.7715,-4.7985,-4.7985,-4.8106,-4.8334,-4.8933,-4.9489,-5.0008,-4.9954,-5.0124,-3.2416,-3.4301,-3.5293,-3.5293,-3.2783,-3.0311,-3.0311,-2.7712,-2.5308,-2.5308,-2.5307,-2.5311,-2.5311,-2.5311,-2.583,-2.7404,-2.7917,-2.8731,0.0,0.0,0.0,-3.7387,0.0,0.0,0.0,0.0,0.0,0.0,0.0,0.0,0.0,-5.0302,-5.0302,-5.0302,-5.0337,-5.0348,-5.0348,-5.0435,-5.0468,-5.0468,-5.0521,-5.0582,-5.0603,-5.0643,0.0,0.0,0.0,0.0,0.0,-5.0712,-5.0712,-5.0712,-5.0712,-5.0712,-5.0712,-5.0712,-5.0712,-5.0712,-5.0712,-5.0712,-5.0712,-5.0712,-5.0712,-5.0712,-5.0712,-5.0712,-5.0712,-5.0712,-5.0712,-5.0712,-5.0712,-5.0712,-5.0712,-5.0712,-5.0712,-5.0702,-5.0702,-5.073,-5.0766,-5.0766,-5.0827,-5.0869,-5.0899,-5.0905,-5.0901,-5.0898,-5.0898,-5.0898,-5.0898,-5.0898,-5.0898,-5.0898,-5.0898,-5.0473,-4.9436,-4.9068,-4.8759,-4.8411,-4.8392,-4.8392,-4.8392,-4.8392,-4.8539,-4.8852,-4.8852,-4.8991,-4.9233,-4.9757,-5.0272,-5.0747,-5.0773,-5.0822,0.0,-3.2163,-3.4584,-3.4584,-3.2248,-2.9947,-2.9947,-2.7544,0.0,-2.5308,-2.5307,-2.5306,-2.5364,-2.5325,-2.5344,-2.5536,-2.6236,-2.7913,0.0,-3.2678,0.0,0.0,-4.1533,0.0,0.0,0.0,0.0,0.0,0.0,0.0,0.0,-5.0278,-5.0259,-5.0259,-5.0236,-5.0248,-5.0302,-5.0348,-5.0401,-5.0401,-5.0468,-5.0521,-5.0593,-5.0593,0.0,0.0,0.0,0.0,0.0,-5.0712,-5.0712,-5.0712,-5.0712,-5.0712,-5.0712,-5.0712,-5.0712,-5.0712,-5.0712,-5.0712,-5.0712,-5.0712,-5.0712,-5.0712,-5.0712,-5.0712,-5.0712,-5.0712,-5.0712,-5.0712,-5.0712,-5.0712,-5.0712,-5.0712,-5.0712,-5.0712,-5.0712,-5.0702,-5.0701,-5.0692,-5.0738,-5.081,-5.0872,-5.0899,-5.0897,-5.089,-5.0898,-5.0898,-5.0898,-5.0898,-5.0898,-5.0898,-5.0898,-5.0898,-5.0898,-5.0221,-4.9436,-4.8624,-4.8585,-4.8577,-4.8577,-4.8577,-4.893,-4.9663,-4.9674,-5.0044,-5.0793,-5.072,-5.0692,-5.0701,-5.085,-5.0902,-2.4967,0.0,-2.7651,-2.7651,-2.7059,-2.6479,0.0,-2.5875,-2.5308,-2.5308,-2.5253,-2.5428,-2.6099,-2.5677,-2.5869,-2.7807,-2.8842,-3.033,-3.303,0.0,0.0,-4.3463,0.0,0.0,0.0,0.0,0.0,0.0,0.0,0.0,0.0,-5.0051,-4.9929,-4.9929,-4.9674,-4.9771,-5.029,-5.0314,-5.0314,-5.0325,-5.0401,-5.0457,-5.0521,-5.0521,0.0,0.0,0.0,0.0,-5.0712,-5.0712,-5.0712,-5.0712,-5.0712,-5.0712,-5.0712,-5.0712,-5.0712,-5.0712,-5.0712,-5.0712,-5.0712,-5.0712,-5.0712,-5.0712,-5.0712,-5.0712,-5.0712,-5.0712,-5.0712,-5.0712,-5.0712,-5.0712,-5.0712,-5.0712,-5.0712,-5.0712,-5.0712,-5.0702,-5.0711,-5.0693,-5.0758,-5.0801,-5.081,-5.0863,-5.0897,-5.089,-5.0898,-5.0898,-5.0898,-5.0898,-5.0898,-5.0898,-5.0898,-5.0898,-5.0898,-5.0724,-5.0531,-5.0318,-5.0314,-5.0317,-5.0317,-5.0265,-5.0325,-5.051,-5.0466,-5.0536,-5.072,-5.0712,-5.0702,-5.0693,-5.0833,-5.0935,-2.3484,-2.4366,-2.5111,-2.5111,-2.5122,-2.5132,-2.5187,-2.5217,-2.5228,-2.5283,-2.5257,-2.534,-2.5822,-2.678,-2.7579,-2.7802,-3.0828,0.0,0.0,0.0,-4.3157,-4.4532,0.0,0.0,0.0,0.0,0.0,0.0,0.0,0.0,0.0,-4.9674,-4.957,-4.957,-4.939,-4.9483,-4.9844,-4.9993,-5.0063,-5.0076,-5.0259,-5.0401,-5.0457,-5.0457,0.0,0.0,0.0,0.0,-5.0712,-5.0712,-5.0712,-5.0712,-5.0712,-5.0712,-5.0712,-5.0712,-5.0712,-5.0712,-5.0712,-5.0712,-5.0712,-5.0712,-5.0712,-5.0712,-5.0712,-5.0712,-5.0712,-5.0712,-5.0712,-5.0712,-5.0712,-5.0712,-5.0712,-5.0712,-5.0712,-5.0712,-5.0712,-5.0712,-5.0702,-5.0693,-5.0731,-5.0758,-5.0757,-5.0784,-5.0838,-5.0885,-5.0893,-5.0901,-5.0898,-5.0898,-5.0898,-5.0898,-5.0901,-5.0893,-5.0893,-5.0877,-5.0877,-5.0893,-5.0897,-5.0891,-5.0855,-5.081,-5.0793,-5.0747,-5.0711,-5.0702,-5.0702,-5.0702,-5.074,-5.0793,-5.0905,-5.0991,-2.323,-2.4424,-2.5272,-2.4957,-2.4876,-2.4903,-2.5024,-2.5049,-2.5091,-2.522,-2.5215,-2.5371,-2.6035,-2.8147,-2.9358,0.0,0.0,0.0,-4.0329,-4.2658,-4.4137,0.0,0.0,0.0,0.0,0.0,0.0,0.0,0.0,0.0,0.0,-4.9237,0.0,-4.9221,-4.9158,-4.9161,-4.9161,-4.9527,-4.9744,-4.9784,-5.0088,-5.029,-5.0401,-5.039,-5.0457,0.0,0.0,0.0,-5.0663,-5.0673,-5.0673,-5.0692,-5.0702,-5.0712,-5.0712,-5.0712,-5.0712,-5.0712,-5.0712,-5.0712,-5.0712,-5.0712,-5.0712,-5.0712,-5.0712,-5.0712,-5.0712,-5.0712,-5.0712,-5.0712,-5.0712,-5.0712,-5.0712,-5.0712,-5.0712,-5.0712,-5.0712,-5.0712,-5.0712,-5.0712,-5.0712,-5.0702,-5.0692,-5.0701,-5.0729,-5.0874,-5.0899,-5.0897,-5.0909,-5.089,-5.089,-5.089,-5.0897,-5.0872,-5.0872,-5.0819,-5.081,-5.0874,-5.0863,-5.0838,-5.0803,-5.0775,-5.0757,-5.0711,-5.0712,-5.0702,-5.074,-5.074,-5.0801,-5.0913,-5.0997,-5.1084,-2.2829,-2.5319,-2.7028,-2.5246,-2.4821,-2.4825,-2.4847,-2.4854,-2.4869,-2.5013,-2.5032,-2.6155,-2.9843,-2.9051,-2.9144,0.0,0.0,-3.9517,0.0,0.0,0.0,0.0,0.0,0.0,0.0,0.0,0.0,0.0,0.0,0.0,0.0,0.0,-4.8866,-4.8866,-4.8604,-4.8458,-4.8458,-4.9064,-4.9527,-4.9803,-4.9857,-5.0063,-5.0401,-5.0337,-5.0382,0.0,0.0,-5.0468,-5.0532,-5.0593,-5.0613,-5.0623,-5.0692,-5.0712,-5.0712,-5.0712,-5.0712,-5.0712,-5.0712,-5.0712,-5.0712,-5.0712,-5.0712,-5.0712,-5.0712,-5.0712,-5.0712,-5.0712,-5.0712,-5.0712,-5.0712,-5.0712,-5.0712,-5.0712,-5.0712,-5.0712,-5.0712,-5.0712,-5.0712,-5.0712,-5.0712,-5.0702,-5.0692,-5.0701,-5.0739,-5.0801,-5.0855,-5.0899,-5.0908,-5.0908,-5.0908,-5.0908,-5.0855,-5.0829,-5.0829,-5.0801,-5.0784,-5.0729,-5.072,-5.072,-5.0712,-5.0712,-5.0712,-5.0702,-5.0693,-5.0758,-5.0874,-5.0874,-5.092,-5.0997,-5.1118,-5.1187,-2.2097,-2.3509,-2.5004,-2.6702,-2.8462,-2.9836,-3.0048,-3.0102,-2.975,-2.8586,-2.8343,-2.8958,-3.0971,-3.1789,-3.3968,-3.9495,0.0,-4.0262,0.0,0.0,0.0,0.0,0.0,0.0,0.0,0.0,0.0,0.0,0.0,0.0,0.0,0.0,-4.8532,0.0,-4.8383,-4.8306,-4.8306,-4.8623,-4.8934,-4.9256,-4.9632,-4.9897,-5.0076,-5.0236,-5.0348,-5.0446,0.0,-5.0446,-5.0511,-5.0582,-5.0603,-5.0603,-5.0663,-5.0712,-5.0712,-5.0712,-5.0712,-5.0712,-5.0712,-5.0712,-5.0712,-5.0712,-5.0712,-5.0712,-5.0712,-5.0712,-5.0712,-5.0712,-5.0712,-5.0712,-5.0712,-5.0712,-5.0712,-5.0712,-5.0712,-5.0712,-5.0712,-5.0712,-5.0712,-5.0712,-5.0712,-5.0693,-5.0702,-5.0702,-5.0721,-5.0748,-5.0775,-5.0812,-5.0846,-5.0846,-5.0846,-5.0846,-5.0784,-5.0757,-5.0757,-5.0758,-5.072,-5.0701,-5.0692,-5.0693,-5.0693,-5.0712,-5.0712,-5.0712,-5.0776,-5.0833,-5.0894,-5.0937,-5.1004,-5.1118,-5.1163,-5.1245,-2.2065,-2.2645,-2.3962,-2.8298,-3.0556,-3.2175,-3.3997,-3.3824,-3.3014,-3.2062,-3.1928,-3.2087,-3.2467,-3.5115,0.0,-4.2799,-4.1836,0.0,0.0,0.0,0.0,0.0,0.0,0.0,0.0,0.0,0.0,0.0,0.0,0.0,0.0,0.0,-4.8122,0.0,-4.8306,-4.8306,-4.8306,-4.8306,-4.8458,-4.8816,-4.9317,-4.9618,-4.9688,-4.9955,-5.0144,-5.0259,-5.0259,-5.0329,-5.0438,-5.0438,-5.047,-5.0542,-5.0534,-5.0594,-5.0673,-5.0683,-5.0712,-5.0712,-5.0712,-5.0712,-5.0712,-5.0712,-5.0712,-5.0712,-5.0712,-5.0712,-5.0712,-5.0712,-5.0712,-5.0712,-5.0712,-5.0712,-5.0712,-5.0712,-5.0712,-5.0712,-5.0712,-5.0712,-5.0712,-5.0712,-5.0712,-5.0712,-5.0712,-5.0712,-5.0702,-5.0702,-5.0692,-5.071,-5.0775,-5.0784,-5.0784,-5.0784,-5.0739,-5.0702,-5.0702,-5.0693,-5.0702,-5.0702,-5.0712,-5.0712,-5.0712,-5.0712,-5.0712,-5.0712,-5.0801,-5.0871,-5.0928,-5.0979,-5.1098,-5.1248,-5.1248,-5.1297,-2.3465,-2.5157,-2.6891,-2.955,-2.7529,-2.6468,-3.2494,-3.1538,-3.0254,-3.3265,-3.4087,-3.4725,-3.6212,-3.8613,-4.019,-3.96,-4.1397,0.0,0.0,0.0,0.0,0.0,0.0,0.0,0.0,0.0,0.0,0.0,0.0,0.0,0.0,0.0,0.0,0.0,0.0,-4.8306,-4.8306,-4.8306,-4.8458,-4.8799,-4.885,-4.9031,-4.9348,-4.936,-4.9541,-4.9844,-4.9844,-5.0019,-5.0302,-5.0044,-5.0137,-5.0382,-5.0155,-5.0279,-5.0613,-5.0692,-5.0712,-5.0712,-5.0712,-5.0712,-5.0712,-5.0712,-5.0712,-5.0712,-5.0712,-5.0712,-5.0712,-5.0712,-5.0712,-5.0712,-5.0712,-5.0712,-5.0712,-5.0712,-5.0712,-5.0712,-5.0712,-5.0712,-5.0712,-5.0712,-5.0712,-5.0712,-5.0712,-5.0712,-5.0693,-5.0693,-5.0692,-5.0701,-5.0701,-5.0701,-5.0701,-5.0701,-5.0702,-5.0693,-5.0693,-5.0693,-5.0693,-5.0693,-5.0693,-5.0712,-5.0712,-5.0712,-5.0712,-5.0712,-5.0702,-5.0805,-5.099,-5.1002,-5.1137,-5.139,-5.139,-5.139,-2.3079,-2.5017,-2.7071,-2.9003,-2.8698,-2.9534,-3.5689,-3.6155,-3.5644,-3.6939,-3.7694,-3.7977,-3.7598,0.0,-4.2476,-4.0859,0.0,0.0,0.0,0.0,0.0,0.0,0.0,0.0,0.0,0.0,0.0,0.0,0.0,0.0,0.0,0.0,0.0,0.0,0.0,-4.8306,-4.8306,-4.8306,-4.8364,-4.8495,-4.8693,-4.8866,-4.9001,-4.919,-4.936,-4.9498,-4.9498,-4.9556,-4.9674,-4.9613,-4.9669,-4.9765,-4.9706,-4.9773,-4.9936,-5.0171,-5.0283,-5.0347,-5.0573,-5.0682,-5.0712,-5.0712,-5.0712,-5.0712,-5.0712,-5.0712,-5.0712,-5.0712,-5.0712,-5.0712,-5.0712,-5.0712,-5.0712,-5.0712,-5.0712,-5.0712,-5.0712,-5.0712,-5.0712,-5.0712,-5.0712,-5.0712,-5.0712,-5.0712,-5.0712,-5.0712,-5.0702,-5.0693,-5.0693,-5.0693,-5.0693,-5.0693,-5.0702,-5.0712,-5.0712,-5.0712,-5.0712,-5.0712,-5.0712,-5.0712,-5.0712,-5.0712,-5.0712,-5.0712,-5.0775,-5.089,-5.1002,-5.1079,-5.1214,-5.1394,-5.1394,-5.1394,-2.4373,-2.5731,-2.7548,-2.9922,-3.0161,-3.1428,-3.7572,-3.8373,-3.8336,-4.0118,-4.0511,-4.0244,-3.9222,-4.1404,0.0,0.0,0.0,0.0,0.0,0.0,0.0,0.0,0.0,0.0,0.0,0.0,0.0,0.0,0.0,0.0,0.0,0.0,0.0,0.0,0.0,-4.8049,-4.8306,-4.8306,-4.8306,-4.8306,-4.8532,-4.8641,-4.8658,-4.8883,-4.9048,-4.9145,-4.9145,-4.919,-4.9302,-4.9237,-4.9206,-4.9221,-4.9386,-4.9479,-4.9508,-4.9746,-4.9866,-4.9987,-5.0333,-5.0429,-5.0451,-5.0643,-5.0624,-5.0565,-5.0673,-5.0712,-5.0712,-5.0712,-5.0712,-5.0712,-5.0712,-5.0712,-5.0712,-5.0712,-5.0712,-5.0712,-5.0712,-5.0712,-5.0712,-5.0712,-5.0712,-5.0712,-5.0712,-5.0712,-5.0712,-5.0712,-5.0712,-5.0712,-5.0712,-5.0712,-5.0712,-5.0712,-5.0712,-5.0712,-5.0712,-5.0712,-5.0712,-5.0712,-5.0712,-5.0712,-5.0712,-5.0712,-5.0712,-5.0712,-5.0784,-5.0898,-5.1002,-5.1084,-5.1238,-5.1394,-5.1394,-5.1394,-2.7761,-2.7798,-2.8796,-3.2761,-3.1421,-3.0785,-3.7239,-3.6853,-3.6725,-4.2341,-4.2231,-4.119,-4.1453,-4.1295,0.0,0.0,0.0,0.0,0.0,0.0,0.0,0.0,0.0,0.0,0.0,0.0,0.0,0.0,0.0,0.0,0.0,0.0,0.0,0.0,0.0,0.0,-4.8288,-4.8306,-4.8306,-4.8306,-4.8306,-4.8306,-4.8306,-4.8306,-4.8477,-4.8799,-4.8799,-4.8965,-4.9252,-4.8934,-4.8799,-4.8832,-4.9237,-4.939,-4.9405,-4.9479,-4.9547,-4.964,-4.9974,-4.9955,-4.9897,-5.0502,-5.0472,-5.026,-5.0594,-5.0683,-5.0702,-5.0702,-5.0712,-5.0712,-5.0712,-5.0712,-5.0712,-5.0712,-5.0712,-5.0712,-5.0712,-5.0712,-5.0712,-5.0712,-5.0712,-5.0712,-5.0712,-5.0712,-5.0712,-5.0712,-5.0712,-5.0712,-5.0712,-5.0712,-5.0712,-5.0712,-5.0712,-5.0712,-5.0712,-5.0712,-5.0712,-5.0712,-5.0712,-5.0712,-5.0712,-5.0712,-5.0712,-5.0712,-5.0712,-5.0797,-5.1002,-5.1002,-5.1141,-5.1394,-5.1394,-5.1394,-2.4419,-2.7732,-3.1072,-3.0546,-3.3568,-3.7019,-3.8395,-3.8157,-3.8744,-4.2707,-4.2671,-4.1805,-4.1314,-4.2077,0.0,0.0,0.0,0.0,0.0,0.0,0.0,0.0,0.0,0.0,0.0,0.0,0.0,0.0,0.0,0.0,0.0,0.0,0.0,0.0,0.0,0.0,-4.7443,-4.8012,-4.8306,-4.8306,-4.8306,-4.8306,-4.8306,-4.8306,-4.8345,-4.8458,-4.8458,-4.8495,-4.8586,-4.8495,-4.8458,-4.8458,-4.8586,-4.8622,-4.8658,-4.8915,-4.9046,-4.9171,-4.9603,-4.9697,-4.9687,-4.9987,-5.0,-4.9949,-5.0025,-5.0202,-5.0347,-5.0347,-5.0514,-5.0712,-5.0712,-5.0712,-5.0712,-5.0712,-5.0712,-5.0712,-5.0712,-5.0712,-5.0712,-5.0712,-5.0712,-5.0712,-5.0712,-5.0712,-5.0712,-5.0712,-5.0712,-5.0712,-5.0712,-5.0712,-5.0712,-5.0712,-5.0712,-5.0712,-5.0712,-5.0712,-5.0712,-5.0712,-5.0712,-5.0712,-5.0712,-5.0712,-5.0712,-5.0712,-5.0712,-5.0797,-5.1002,-5.1002,-5.1141,-5.1394,-5.1394,-5.1394,-2.8062,-3.087,-3.3335,-3.4486,-3.711,-3.9625,-4.0432,-4.0616,-4.1148,-4.3111,-4.3112,-4.2635,-4.2139,-4.2837,0.0,0.0,0.0,0.0,0.0,0.0,0.0,0.0,0.0,0.0,0.0,0.0,0.0,0.0,0.0,0.0,0.0,0.0,0.0,0.0,0.0,0.0,-4.7094,-4.7571,-4.7994,-4.8306,-4.8306,-4.8306,-4.8306,-4.8306,-4.8306,-4.8306,-4.8306,-4.8306,-4.8306,-4.8306,-4.8306,-4.8306,-4.8306,-4.8306,-4.8325,-4.8532,-4.8658,-4.8799,-4.9196,-4.9271,-4.9249,-4.9584,-4.9632,-4.9589,-4.9697,-4.9872,-5.0056,-5.0171,-5.0347,-5.0544,-5.0663,-5.0712,-5.0712,-5.0712,-5.0712,-5.0712,-5.0712,-5.0712,-5.0712,-5.0712,-5.0712,-5.0712,-5.0712,-5.0712,-5.0712,-5.0712,-5.0712,-5.0712,-5.0712,-5.0712,-5.0712,-5.0712,-5.0712,-5.0712,-5.0712,-5.0712,-5.0712,-5.0712,-5.0712,-5.0712,-5.0712,-5.0712,-5.0712,-5.0712,-5.0712,-5.0797,-5.1002,-5.1002,-5.1141,-5.1394,-5.1394,-5.1394,-3.5014,-3.5473,-3.5661,-4.1605,-4.1075,-3.99,-4.2835,-4.3515,-4.3515,-4.3515,-4.3515,-4.3515,-4.3515,-4.3515,0.0,0.0,0.0,0.0,0.0,0.0,0.0,0.0,0.0,0.0,0.0,0.0,0.0,0.0,0.0,0.0,0.0,0.0,0.0,0.0,0.0,0.0,-4.6874,-4.6947,-4.7388,0.0,-4.8196,-4.8233,-4.8306,-4.8306,-4.8306,-4.8306,-4.8306,-4.8306,-4.8306,-4.8306,-4.8306,-4.8306,-4.8306,-4.8306,-4.8306,-4.8306,-4.8382,-4.8532,-4.8763,-4.8746,-4.8677,-4.9237,-4.9302,-4.9196,-4.9445,-4.9622,-4.9798,-5.0062,-5.0147,-5.0249,-5.0565,-5.0644,-5.0663,-5.0683,-5.0712,-5.0712,-5.0712,-5.0712,-5.0712,-5.0712,-5.0712,-5.0712,-5.0712,-5.0712,-5.0712,-5.0712,-5.0712,-5.0712,-5.0712,-5.0712,-5.0712,-5.0712,-5.0712,-5.0712,-5.0712,-5.0712,-5.0712,-5.0712,-5.0712,-5.0712,-5.0712,-5.0712,-5.0712,-5.0712,-5.0712,-5.0814,-5.1002,-5.1014,-5.115,-5.1394,-5.1394,-5.1394,-2.9524,-3.3678,-3.7973,-3.9386,-4.1111,-4.2635,-4.3349,-4.3515,-4.3515,-4.3515,-4.3515,-4.3515,-4.3515,0.0,0.0,0.0,0.0,0.0,0.0,0.0,0.0,0.0,0.0,0.0,0.0,0.0,0.0,0.0,0.0,0.0,0.0,0.0,0.0,0.0,0.0,-4.4856,-4.5205,-4.5847,-4.6562,0.0,-4.7351,-4.7681,-4.8306,-4.8306,-4.8306,-4.8306,-4.8306,-4.8306,-4.8306,-4.8306,-4.8306,-4.8306,-4.8306,-4.8306,-4.8306,-4.8306,-4.8306,-4.8382,-4.8513,-4.855,-4.855,-4.873,-4.8765,-4.8766,-4.8905,-4.9137,-4.9352,-4.9544,-4.9721,-4.9943,-5.0237,-5.0306,-5.0369,-5.0653,-5.0712,-5.0712,-5.0712,-5.0712,-5.0712,-5.0712,-5.0712,-5.0712,-5.0712,-5.0712,-5.0712,-5.0712,-5.0712,-5.0712,-5.0712,-5.0712,-5.0712,-5.0712,-5.0712,-5.0712,-5.0712,-5.0712,-5.0712,-5.0712,-5.0712,-5.0712,-5.0712,-5.0712,-5.0712,-5.0712,-5.0801,-5.0894,-5.1002,-5.1113,-5.1245,-5.1394,-5.1394,-5.1394,-3.1085,-3.4357,-3.711,-4.0212,-4.2249,-4.3515,-4.3515,-4.3515,-4.3515,-4.3515,-4.3515,-4.3515,0.0,0.0,0.0,0.0,0.0,0.0,0.0,0.0,0.0,0.0,0.0,0.0,0.0,0.0,0.0,0.0,0.0,0.0,0.0,-4.3515,0.0,0.0,-4.3901,-4.4305,-4.4691,-4.5131,-4.5736,-4.6544,-4.6911,-4.7516,-4.8306,-4.8306,-4.8306,-4.8306,-4.8306,-4.8306,-4.8306,-4.8306,-4.8306,-4.8306,-4.8306,-4.8306,-4.8306,-4.8306,-4.8306,-4.8306,-4.8382,-4.8401,-4.8401,-4.8439,-4.8495,-4.8569,-4.8678,-4.8855,-4.9057,-4.9337,-4.9499,-4.9684,-4.9949,-5.0006,-5.0087,-5.0399,-5.0575,-5.0712,-5.0712,-5.0712,-5.0712,-5.0712,-5.0712,-5.0712,-5.0712,-5.0712,-5.0712,-5.0712,-5.0712,-5.0712,-5.0712,-5.0712,-5.0712,-5.0712,-5.0712,-5.0712,-5.0712,-5.0712,-5.0712,-5.0712,-5.0712,-5.0712,-5.0712,-5.0712,-5.0712,-5.0712,-5.0825,-5.093,-5.1002,-5.1137,-5.1262,-5.1394,-5.1394,-5.1394,-3.3211,-3.5004,-3.5899,-4.1991,-4.3515,-4.3515,-4.3515,-4.3515,-4.3515,-4.3515,-4.3515,0.0,0.0,0.0,0.0,0.0,0.0,0.0,0.0,0.0,0.0,0.0,0.0,0.0,0.0,0.0,0.0,0.0,0.0,0.0,-4.3515,-4.3515,-4.3515,-4.3515,-4.3515,-4.3809,-4.4488,-4.4488,-4.4911,-4.57,-4.6507,-4.7296,-4.8104,-4.8104,-4.8177,-4.8306,-4.8306,-4.8306,-4.8306,-4.8306,-4.8306,-4.8306,-4.8306,-4.8306,-4.8306,-4.8306,-4.8306,-4.8306,-4.8306,-4.8306,-4.8306,-4.8306,-4.8382,-4.8476,-4.855,-4.8678,-4.8839,-4.9193,-4.9305,-4.938,-4.967,-4.9735,-4.9803,-5.0075,-5.0388,-5.0624,-5.0683,-5.0712,-5.0712,-5.0712,-5.0712,-5.0712,-5.0712,-5.0712,-5.0712,-5.0712,-5.0712,-5.0712,-5.0712,-5.0712,-5.0712,-5.0712,-5.0712,-5.0712,-5.0712,-5.0712,-5.0712,-5.0712,-5.0712,-5.0712,-5.0712,-5.0712,-5.0712,-5.0712,-5.083,-5.0932,-5.1002,-5.1155,-5.1291,-5.1394,-5.1394,-5.1394,-2.7407,-3.229,-3.8062,-4.2413,-4.3515,-4.3515,-4.3515,-4.3515,-4.3515,0.0,0.0,0.0,0.0,0.0,0.0,0.0,0.0,0.0,0.0,0.0,0.0,0.0,0.0,0.0,0.0,0.0,0.0,0.0,0.0,0.0,-4.3515,-4.3515,-4.3515,-4.3515,-4.3515,-4.3551,-4.3644,-4.3644,-4.4066,-4.4856,-4.5681,-4.6489,-4.7259,-4.7259,-4.7626,-4.8306,-4.8306,-4.8306,-4.8306,-4.8306,-4.8306,-4.8306,-4.8306,-4.8306,-4.8306,-4.8306,-4.8306,-4.8306,-4.8306,-4.8306,-4.8306,-4.8306,-4.8306,-4.8363,-4.8476,-4.8569,-4.866,-4.8821,-4.8926,-4.9044,-4.9365,-4.9457,-4.9514,-4.979,-5.0075,-5.0347,-5.0653,-5.0712,-5.0712,-5.0712,-5.0712,-5.0712,-5.0712,-5.0712,-5.0712,-5.0712,-5.0712,-5.0712,-5.0712,-5.0712,-5.0712,-5.0712,-5.0712,-5.0712,-5.0712,-5.0712,-5.0712,-5.0712,-5.0712,-5.0712,-5.0712,-5.0712,-5.0712,-5.0712,-5.0882,-5.099,-5.1002,-5.1252,-5.1388,-5.1394,-5.1394,-5.1394,-2.8565,-3.3918,-3.9019,-4.2615,-4.3515,-4.3515,-4.3515,-4.3515,-4.3515,-4.3515,0.0,0.0,0.0,0.0,0.0,0.0,0.0,0.0,0.0,0.0,0.0,0.0,0.0,0.0,0.0,0.0,0.0,0.0,0.0,-4.3515,-4.3515,-4.3515,-4.3515,-4.3515,-4.3515,-4.3515,-4.3515,-4.3515,-4.3901,-4.4691,-4.5057,-4.5663,-4.6452,-4.6892,-4.7535,-4.8306,-4.8306,-4.8306,-4.8306,-4.8306,-4.8306,-4.8306,-4.8306,-4.8306,-4.8306,-4.8306,-4.8306,-4.8306,-4.8306,-4.8306,-4.8306,-4.8306,-4.8306,-4.8343,-4.8457,-4.8513,-4.8569,-4.8751,-4.8822,-4.8891,-4.9077,-4.9127,-4.922,-4.9693,-4.9878,-5.0099,-5.0594,-5.0712,-5.0712,-5.0712,-5.0712,-5.0712,-5.0712,-5.0712,-5.0712,-5.0712,-5.0712,-5.0712,-5.0712,-5.0712,-5.0712,-5.0712,-5.0712,-5.0712,-5.0712,-5.0712,-5.0712,-5.0712,-5.0712,-5.0712,-5.0712,-5.0712,-5.0712,-5.0712,-5.0903,-5.1002,-5.1002,-5.1262,-5.1394,-5.1394,-5.1394,-5.1668,-2.9076,-3.325,-3.6537,-4.1048,-4.2182,-4.2419,-4.3296,0.0,-4.3515,0.0,0.0,0.0,0.0,0.0,0.0,0.0,0.0,0.0,0.0,0.0,0.0,0.0,0.0,0.0,0.0,0.0,0.0,0.0,0.0,-4.3515,-4.3515,-4.3515,-4.3515,-4.3515,-4.3515,-4.3515,-4.3515,-4.3515,-4.3791,-4.4397,-4.4397,-4.4819,-4.5626,-4.6415,-4.7223,-4.8012,-4.8214,-4.8306,-4.8306,-4.8306,-4.8306,-4.8306,-4.8306,-4.8306,-4.8306,-4.8306,-4.8306,-4.8306,-4.8306,-4.8306,-4.8306,-4.8306,-4.8306,-4.8306,-4.8419,-4.8476,-4.8531,-4.8679,-4.8751,-4.8804,-4.8856,-4.8891,-4.9025,-4.9565,-4.9749,-4.9962,-5.0573,-5.0712,-5.0712,-5.0712,-5.0712,-5.0712,-5.0712,-5.0712,-5.0712,-5.0712,-5.0712,-5.0712,-5.0712,-5.0712,-5.0712,-5.0712,-5.0712,-5.0712,-5.0712,-5.0712,-5.0712,-5.0712,-5.0712,-5.0712,-5.0712,-5.0712,-5.0712,-5.0712,-5.0903,-5.1002,-5.1002,-5.1241,-5.1364,-5.1394,-5.1394,-5.1863,-2.5554,-2.6843,-2.8508,-3.656,-3.8571,-3.9438,0.0,0.0,0.0,0.0,0.0,0.0,0.0,0.0,0.0,0.0,0.0,0.0,0.0,0.0,0.0,0.0,0.0,0.0,0.0,0.0,0.0,0.0,0.0,-4.3515,-4.3515,-4.3515,-4.3515,-4.3515,-4.3515,-4.3515,-4.3515,-4.3515,-4.3533,-4.3552,-4.3552,-4.3975,-4.4783,-4.5608,-4.6416,-4.7204,-4.7957,-4.8306,-4.8306,-4.8306,-4.8306,-4.8306,-4.8306,-4.8306,-4.8306,-4.8306,-4.8306,-4.8306,-4.8306,-4.8306,-4.8306,-4.8306,-4.8306,-4.8306,-4.8306,-4.8401,-4.8513,-4.8513,-4.8642,-4.8787,-4.8804,-4.8839,-4.8976,-4.9334,-4.9612,-4.9962,-5.0573,-5.0712,-5.0712,-5.0712,-5.0712,-5.0712,-5.0712,-5.0712,-5.0712,-5.0712,-5.0712,-5.0712,-5.0712,-5.0712,-5.0712,-5.0712,-5.0712,-5.0712,-5.0712,-5.0712,-5.0712,-5.0712,-5.0712,-5.0712,-5.0712,-5.0712,-5.0712,-5.0712,-5.0903,-5.1002,-5.1002,-5.1141,-5.1284,-5.1394,-5.1394,-5.1863,-2.3789,-2.6091,-2.8541,-3.3102,-3.6279,-3.8625,-3.9891,-4.189,0.0,0.0,0.0,0.0,0.0,0.0,0.0,0.0,0.0,0.0,0.0,0.0,0.0,0.0,0.0,0.0,0.0,0.0,0.0,0.0,0.0,0.0,-4.3105,-4.3105,-4.3232,-4.3479,-4.3515,-4.3515,-4.3515,-4.3515,-4.3515,-4.3515,-4.3515,-4.3662,-4.3956,-4.4764,-4.5571,-4.6379,-4.7168,-4.781,-4.8306,-4.8306,-4.8306,-4.8306,-4.8306,-4.8306,-4.8306,-4.8306,-4.8306,-4.8306,-4.8306,-4.8306,-4.8306,-4.8306,-4.8306,-4.8306,-4.8306,-4.8325,-4.8382,-4.8494,-4.8569,-4.8697,-4.8787,-4.8839,-4.8976,-4.9321,-4.974,-5.0123,-5.0336,-5.0554,-5.0712,-5.0712,-5.0712,-5.0712,-5.0712,-5.0712,-5.0712,-5.0712,-5.0712,-5.0712,-5.0712,-5.0712,-5.0712,-5.0712,-5.0712,-5.0712,-5.0712,-5.0712,-5.0712,-5.0712,-5.0712,-5.0712,-5.0712,-5.0712,-5.0712,-5.0712,-5.0764,-5.0859,-5.1002,-5.1214,-5.1357,-5.1394,-5.1394,-5.2175,-2.1679,-2.3904,-2.6441,-2.979,-3.2565,-3.517,-3.8033,0.0,0.0,0.0,0.0,0.0,0.0,0.0,0.0,0.0,0.0,0.0,0.0,0.0,0.0,0.0,0.0,0.0,0.0,0.0,0.0,0.0,0.0,0.0,-4.2673,-4.2825,-4.3069,-4.3497,-4.3515,-4.3515,-4.3515,-4.3515,-4.3515,-4.3515,-4.3515,-4.3515,-4.3533,-4.4342,-4.5149,-4.5938,-4.6746,-4.7553,-4.8306,-4.8306,-4.8306,-4.8306,-4.8306,-4.8306,-4.8306,-4.8306,-4.8306,-4.8306,-4.8306,-4.8306,-4.8306,-4.8306,-4.8306,-4.8306,-4.8306,-4.8306,-4.8325,-4.8457,-4.855,-4.8642,-4.8769,-4.8926,-4.9127,-4.9352,-4.9735,-5.0099,-5.0183,-5.0453,-5.0712,-5.0712,-5.0712,-5.0712,-5.0712,-5.0712,-5.0712,-5.0712,-5.0712,-5.0712,-5.0712,-5.0712,-5.0712,-5.0712,-5.0712,-5.0712,-5.0712,-5.0712,-5.0712,-5.0712,-5.0712,-5.0712,-5.0712,-5.0712,-5.0712,-5.0712,-5.074,-5.083,-5.0959,-5.1142,-5.1281,-5.1394,-5.1357,-5.2296,0.0,0.0,0.0,-2.6474,-2.7221,0.0,-3.714,0.0,0.0,0.0,0.0,0.0,0.0,0.0,0.0,0.0,0.0,0.0,0.0,0.0,0.0,0.0,0.0,0.0,0.0,0.0,0.0,0.0,0.0,-4.2653,-4.2198,-4.2634,-4.3069,-4.3444,-4.348,-4.348,-4.3462,-4.3462,-4.3462,-4.3462,-4.348,-4.3479,-4.3516,-4.4305,-4.5112,-4.5902,-4.6709,-4.7516,-4.8269,-4.8306,-4.8306,-4.8306,-4.8306,-4.8306,-4.8306,-4.8306,-4.8306,-4.8306,-4.8306,-4.8306,-4.8306,-4.8306,-4.8306,-4.8306,-4.8306,-4.8306,-4.8343,-4.8457,-4.855,-4.8642,-4.875,-4.9077,-4.9384,-4.9384,-4.9583,-4.987,-5.0123,-5.0442,-5.0683,-5.0712,-5.0712,-5.0712,-5.0712,-5.0712,-5.0712,-5.0712,-5.0712,-5.0712,-5.0712,-5.0712,-5.0712,-5.0712,-5.0712,-5.0712,-5.0712,-5.0712,-5.0712,-5.0712,-5.0712,-5.0712,-5.0712,-5.0712,-5.0712,-5.0712,-5.0836,-5.0906,-5.0894,-5.0902,-5.1078,-5.1388,-5.131,-5.2253,-1.8597,0.0,0.0,0.0,0.0,0.0,-2.9608,-3.3771,0.0,0.0,0.0,0.0,0.0,0.0,0.0,0.0,0.0,0.0,0.0,0.0,0.0,0.0,0.0,0.0,0.0,0.0,0.0,0.0,-4.17,-4.1678,-4.1547,-4.24,-4.2806,-4.2577,-4.2883,-4.2902,-4.2559,-4.2559,-4.2559,-4.2559,-4.2902,-4.3068,-4.3087,-4.3595,-4.4268,-4.5094,-4.5883,-4.6691,-4.748,-4.8067,-4.8306,-4.8306,-4.8306,-4.8306,-4.8306,-4.8306,-4.8306,-4.8306,-4.8306,-4.8306,-4.8306,-4.8306,-4.8306,-4.8306,-4.8306,-4.8306,-4.8306,-4.8325,-4.8438,-4.8569,-4.8751,-4.8909,-4.9044,-4.9044,-4.9286,-4.9529,-4.9617,-4.9987,-5.041,-5.0663,-5.0712,-5.0712,-5.0712,-5.0712,-5.0712,-5.0712,-5.0712,-5.0712,-5.0712,-5.0712,-5.0712,-5.0712,-5.0712,-5.0712,-5.0712,-5.0712,-5.0712,-5.0712,-5.0712,-5.0712,-5.0712,-5.0712,-5.0712,-5.0712,-5.075,-5.0801,-5.0894,-5.0945,-5.1027,-5.1138,-5.2372,-5.3213,-1.9234,-2.0337,-2.1561,-2.1406,0.0,0.0,-2.8629,-3.2001,-3.5225,0.0,0.0,0.0,0.0,0.0,0.0,0.0,0.0,0.0,0.0,0.0,0.0,0.0,0.0,0.0,0.0,0.0,0.0,-4.1145,-4.1168,-4.1236,-4.1303,-4.1952,-4.2297,-4.2198,-4.2458,-4.2478,-4.2198,-4.2198,-4.2198,-4.2198,-4.2478,-4.2614,-4.2634,-4.305,-4.3688,-4.451,-4.548,-4.6361,-4.7168,-4.7957,-4.8306,-4.8306,-4.8306,-4.8306,-4.8306,-4.8306,-4.8306,-4.8306,-4.8306,-4.8306,-4.8306,-4.8306,-4.8306,-4.8306,-4.8306,-4.8306,-4.8306,-4.8363,-4.8513,-4.8642,-4.8769,-4.8839,-4.8909,-4.8909,-4.9044,-4.9241,-4.9384,-4.9641,-4.9987,-5.041,-5.0604,-5.0712,-5.0712,-5.0712,-5.0712,-5.0712,-5.0712,-5.0712,-5.0712,-5.0712,-5.0712,-5.0712,-5.0712,-5.0712,-5.0712,-5.0712,-5.0712,-5.0712,-5.0712,-5.0712,-5.0712,-5.0712,-5.0712,-5.0712,-5.0712,-5.075,-5.0827,-5.0859,-5.0903,-5.1004,-5.277,-5.3598,-2.0618,-2.1061,-2.1751,-2.2406,-2.1561,0.0,-3.0204,-3.1285,-3.2458,0.0,0.0,0.0,0.0,0.0,0.0,0.0,0.0,0.0,0.0,0.0,0.0,0.0,0.0,0.0,0.0,-4.1486,-4.1464,-4.103,-4.1007,-4.1094,-4.123,-4.1405,-4.1648,-4.2011,-4.2074,-4.2074,-4.2011,-4.2032,-4.2032,-4.2032,-4.2074,-4.2115,-4.2136,-4.2614,-4.3242,-4.4024,-4.5205,-4.6177,-4.7021,-4.7828,-4.8233,-4.8306,-4.8306,-4.8306,-4.8306,-4.8306,-4.8306,-4.8306,-4.8306,-4.8306,-4.8306,-4.8306,-4.8306,-4.8306,-4.8306,-4.8306,-4.8325,-4.8438,-4.8606,-4.8769,-4.8787,-4.8821,-4.8891,-4.8909,-4.8909,-4.8976,-4.9289,-4.9384,-4.9544,-5.0025,-5.0399,-5.0663,-5.0683,-5.0712,-5.0712,-5.0712,-5.0712,-5.0712,-5.0712,-5.0712,-5.0712,-5.0712,-5.0712,-5.0712,-5.0712,-5.0712,-5.0712,-5.0712,-5.0712,-5.0712,-5.0712,-5.0712,-5.0712,-5.0712,-5.0712,-5.0712,-5.0712,-5.0712,-5.0767,-5.0929,-5.262,-5.345,-2.2026,-2.1475,0.0,0.0,0.0,0.0,-2.2704,-2.5574,-2.8256,0.0,0.0,0.0,0.0,0.0,0.0,0.0,0.0,0.0,0.0,0.0,0.0,0.0,0.0,0.0,0.0,-4.0789,-4.0669,-4.0468,-4.0566,-4.0686,-4.0806,-4.1134,-4.1225,-4.0995,-4.1316,-4.1253,-4.0836,-4.0948,-4.0995,-4.0995,-4.1316,-4.1543,-4.1648,-4.2115,-4.2627,-4.3191,-4.4065,-4.5093,-4.6195,-4.7003,-4.7718,-4.8306,-4.8306,-4.8306,-4.8306,-4.8306,-4.8306,-4.8306,-4.8306,-4.8306,-4.8306,-4.8306,-4.8306,-4.8306,-4.8306,-4.8306,-4.8306,-4.8325,-4.8457,-4.8569,-4.8624,-4.8732,-4.884,-4.8891,-4.8909,-4.8926,-4.8976,-4.9209,-4.9427,-4.9529,-4.9949,-5.038,-5.0663,-5.0712,-5.0712,-5.0712,-5.0712,-5.0712,-5.0712,-5.0712,-5.0712,-5.0712,-5.0712,-5.0712,-5.0712,-5.0712,-5.0712,-5.0712,-5.0712,-5.0712,-5.0712,-5.0712,-5.0712,-5.0712,-5.0712,-5.0712,-5.0712,-5.0712,-5.0712,-5.0769,-5.1769,-5.2608,0.0,0.0,0.0,-2.2612,0.0,0.0,0.0,-2.5485,-2.7016,0.0,0.0,0.0,0.0,0.0,0.0,0.0,0.0,0.0,0.0,0.0,0.0,0.0,0.0,0.0,0.0,-4.0485,-4.0387,-4.0387,-4.0461,-4.0534,-4.06,-4.0795,-4.0795,-4.0607,-4.0795,-4.0772,-4.0493,-4.0558,-4.0583,-4.0607,-4.0795,-4.0943,-4.103,-4.1455,-4.1785,-4.2071,-4.3105,-4.414,-4.5194,-4.6268,-4.7186,-4.7957,-4.821,-4.8306,-4.8306,-4.8306,-4.8306,-4.8306,-4.8306,-4.8306,-4.8306,-4.8306,-4.8306,-4.8306,-4.8306,-4.8306,-4.8306,-4.8306,-4.84,-4.8513,-4.8532,-4.866,-4.8804,-4.8839,-4.8874,-4.8909,-4.8909,-4.9027,-4.9209,-4.9368,-4.974,-5.0099,-5.0399,-5.0594,-5.0712,-5.0712,-5.0712,-5.0712,-5.0712,-5.0712,-5.0712,-5.0712,-5.0712,-5.0712,-5.0712,-5.0712,-5.0712,-5.0712,-5.0712,-5.0712,-5.0712,-5.0712,-5.0712,-5.0712,-5.0712,-5.0712,-5.0712,-5.0712,-5.0712,-5.0731,-5.1529,-5.2365,0.0,0.0,0.0,0.0,0.0,-2.3227,0.0,0.0,0.0,0.0,0.0,0.0,0.0,0.0,0.0,0.0,0.0,0.0,0.0,0.0,0.0,0.0,0.0,0.0,0.0,-3.9518,-3.9732,-4.041,-3.9939,-3.9877,-4.0476,-4.0485,-4.0461,-4.0461,-4.0461,-4.0461,-4.0419,-4.0461,-4.0461,-4.0461,-4.0461,-4.0485,-4.0493,-4.0849,-4.1024,-4.1157,-4.2203,-4.3244,-4.4361,-4.5455,-4.6513,-4.7467,-4.8075,-4.8306,-4.8306,-4.8306,-4.8306,-4.8306,-4.8306,-4.8306,-4.8306,-4.8306,-4.8306,-4.8306,-4.8306,-4.8306,-4.8306,-4.8306,-4.8382,-4.8457,-4.8476,-4.8606,-4.8751,-4.8787,-4.8839,-4.8891,-4.8909,-4.8909,-4.8976,-4.9257,-4.9525,-4.9811,-5.0147,-5.0483,-5.0712,-5.0712,-5.0712,-5.0712,-5.0712,-5.0712,-5.0712,-5.0712,-5.0712,-5.0712,-5.0712,-5.0712,-5.0712,-5.0712,-5.0712,-5.0712,-5.0712,-5.0712,-5.0712,-5.0712,-5.0712,-5.0712,-5.0712,-5.0712,-5.0712,-5.0731,-5.1375,-5.2222,0.0,0.0,0.0,0.0,-2.4599,0.0,0.0,0.0,0.0,0.0,0.0,0.0,0.0,0.0,0.0,0.0,0.0,0.0,0.0,0.0,0.0,0.0,0.0,0.0,0.0,0.0,-3.749,-4.0109,-3.7899,-3.761,-4.0356,-4.0387,-4.0313,-4.0313,-4.0313,-4.0263,-4.0163,-4.0263,-4.0313,-4.0313,-4.0313,-4.0387,-4.051,-4.0541,-4.0754,-4.1116,-4.1255,-4.2389,-4.4134,-4.4418,-4.5428,-4.6895,-4.7915,-4.8306,-4.8306,-4.8306,-4.8306,-4.8306,-4.8306,-4.8306,-4.8306,-4.8306,-4.8306,-4.8306,-4.8306,-4.8306,-4.8306,-4.8306,-4.8306,-4.8363,-4.8457,-4.8531,-4.8587,-4.8751,-4.8804,-4.884,-4.8891,-4.8909,-4.8926,-4.8942,-4.9222,-4.9617,-5.0123,-5.0483,-5.0712,-5.0712,-5.0712,-5.0712,-5.0712,-5.0712,-5.0712,-5.0712,-5.0712,-5.0712,-5.0712,-5.0712,-5.0712,-5.0712,-5.0712,-5.0712,-5.0712,-5.0712,-5.0712,-5.0712,-5.0712,-5.0712,-5.0712,-5.0712,-5.0712,-5.0712,-5.0789,-5.1683,0.0,0.0,0.0,0.0,0.0,0.0,-2.3439,0.0,-2.2924,0.0,0.0,0.0,0.0,0.0,0.0,0.0,0.0,0.0,0.0,0.0,0.0,0.0,0.0,0.0,0.0,0.0,0.0,0.0,0.0,-3.9088,-4.0319,-4.0263,-4.0188,-4.0188,-4.0188,-4.0163,-4.0096,-4.0163,-4.0188,-4.0188,-4.0188,-4.0213,-4.0288,-4.0288,-4.0353,-4.0514,-4.0514,-4.1285,-4.2601,-4.3377,-4.4472,-4.5717,-4.6896,-4.7591,-4.7935,-4.8191,-4.8306,-4.8306,-4.8306,-4.8306,-4.8306,-4.8306,-4.8306,-4.8306,-4.8306,-4.8306,-4.8306,-4.8306,-4.8306,-4.8306,-4.8363,-4.8438,-4.8531,-4.8624,-4.8661,-4.8696,-4.8804,-4.8839,-4.8839,-4.8891,-4.9176,-4.9514,-4.9891,-5.0214,-5.0483,-5.0673,-5.0712,-5.0712,-5.0712,-5.0712,-5.0712,-5.0712,-5.0712,-5.0712,-5.0712,-5.0712,-5.0712,-5.0712,-5.0712,-5.0712,-5.0712,-5.0712,-5.0712,-5.0712,-5.0712,-5.0712,-5.0712,-5.0712,-5.0712,-5.0712,-5.1183,-5.2049,-2.7589,0.0,0.0,0.0,0.0,0.0,0.0,0.0,0.0,0.0,0.0,0.0,0.0,0.0,0.0,0.0,0.0,0.0,0.0,0.0,0.0,0.0,0.0,0.0,0.0,0.0,0.0,0.0,0.0,0.0,-4.0254,-4.0163,-4.0096,-4.0096,-4.0096,-4.0096,-4.0096,-4.0096,-4.0096,-4.0096,-4.0096,-4.0096,-4.0096,-4.0096,-4.0096,-4.0096,-4.0096,-4.057,-4.1444,-4.2601,-4.3635,-4.464,-4.5963,-4.685,-4.7403,-4.7917,-4.8191,-4.8306,-4.8306,-4.8306,-4.8306,-4.8306,-4.8306,-4.8306,-4.8306,-4.8306,-4.8306,-4.8306,-4.8306,-4.8306,-4.8306,-4.8363,-4.8457,-4.8494,-4.8532,-4.8605,-4.8715,-4.8769,-4.8822,-4.8856,-4.9077,-4.9365,-4.9641,-4.9968,-5.0306,-5.0653,-5.0712,-5.0712,-5.0712,-5.0712,-5.0712,-5.0712,-5.0712,-5.0712,-5.0712,-5.0712,-5.0712,-5.0712,-5.0712,-5.0712,-5.0712,-5.0712,-5.0712,-5.0712,-5.0712,-5.0712,-5.0712,-5.0712,-5.0808,-5.1029,-5.1625,-5.2365,0.0,0.0,0.0,-2.5875,0.0,0.0,0.0,0.0,-2.4432,0.0,0.0,0.0,0.0,0.0,0.0,-2.3621,0.0,0.0,0.0,0.0,0.0,0.0,0.0,0.0,0.0,0.0,0.0,0.0,0.0,0.0,-4.0135,-4.0163,-4.0096,-4.0096,-4.0096,-4.0096,-4.0096,-4.0096,-4.0096,-4.0096,-4.0096,-4.0096,-4.0096,-4.0096,-4.0096,-4.0096,-4.0096,-4.0536,-4.1255,-4.2149,-4.301,-4.3873,-4.5362,-4.6244,-4.6799,-4.7403,-4.7897,-4.8306,-4.8306,-4.8306,-4.8306,-4.8306,-4.8306,-4.8306,-4.8306,-4.8306,-4.8306,-4.8306,-4.8306,-4.8306,-4.8306,-4.8306,-4.8343,-4.8457,-4.8513,-4.8532,-4.8605,-4.8715,-4.8787,-4.8804,-4.8856,-4.9027,-4.9368,-4.9844,-5.0306,-5.0653,-5.0712,-5.0712,-5.0712,-5.0712,-5.0712,-5.0712,-5.0712,-5.0712,-5.0712,-5.0712,-5.0712,-5.0712,-5.0712,-5.0712,-5.0712,-5.0712,-5.0712,-5.0712,-5.0712,-5.0712,-5.0712,-5.0712,-5.1106,-5.1865,-5.1885,-5.2365,0.0,0.0,-3.5977,-2.9788,0.0,0.0,0.0,0.0,0.0,0.0,0.0,0.0,0.0,0.0,-2.4218,-2.3762,-2.3306,0.0,0.0,0.0,0.0,0.0,0.0,0.0,0.0,0.0,0.0,0.0,0.0,0.0,0.0,-4.0121,-4.0096,-4.0096,-4.0096,-4.0096,-4.0096,-4.0096,-4.0096,-4.0096,-4.0096,-4.0096,-4.0096,-4.0096,-4.0096,-4.0096,-4.0096,-4.0248,-4.057,-4.1831,-4.2658,-4.3261,-4.4732,-4.5657,-4.6293,-4.7252,-4.7897,-4.8306,-4.8306,-4.8306,-4.8306,-4.8306,-4.8306,-4.8306,-4.8306,-4.8306,-4.8306,-4.8306,-4.8306,-4.8306,-4.8306,-4.8306,-4.8306,-4.8363,-4.8363,-4.8401,-4.8495,-4.8569,-4.8606,-4.866,-4.8696,-4.8802,-4.9155,-4.9382,-4.9725,-5.0283,-5.0369,-5.0442,-5.0673,-5.0712,-5.0712,-5.0712,-5.0712,-5.0712,-5.0712,-5.0712,-5.0712,-5.0712,-5.0653,-5.0633,-5.0633,-5.0633,-5.0633,-5.0633,-5.0692,-5.0712,-5.0712,-5.0712,-5.1106,-5.1904,-5.2481,-5.3241,-3.7493,-3.8608,0.0,-3.3085,-3.2747,0.0,-2.6691,0.0,0.0,0.0,0.0,0.0,0.0,0.0,0.0,-2.5214,-2.3907,0.0,0.0,-1.9585,0.0,0.0,0.0,0.0,0.0,0.0,0.0,0.0,0.0,0.0,0.0,0.0,-4.0096,-4.0096,-4.0096,-4.0096,-4.0096,-4.0096,-4.0096,-4.0096,-4.0096,-4.0096,-4.0096,-4.0096,-4.0096,-4.0096,-4.0096,-4.0096,-4.0214,-4.1677,-4.2436,-4.2781,-4.437,-4.5328,-4.5925,-4.6786,-4.7506,-4.8075,-4.823,-4.8306,-4.8306,-4.8306,-4.8306,-4.8306,-4.8306,-4.8306,-4.8306,-4.8306,-4.8306,-4.8306,-4.8306,-4.8306,-4.8306,-4.8306,-4.8306,-4.8325,-4.8401,-4.8457,-4.8513,-4.8569,-4.8569,-4.8678,-4.8886,-4.8971,-4.9209,-4.9879,-5.0092,-5.026,-5.0493,-5.0604,-5.0653,-5.0653,-5.0692,-5.0683,-5.0682,-5.0643,-5.0633,-5.0633,-5.0593,-5.0553,-5.0553,-5.0553,-5.0706,-5.0994,-5.1025,-5.1065,-5.1065,-5.1065,-5.1479,-5.2345,-5.2902,-5.3797]},{"header":{"parameterUnit":"m.s-1","parameterCategory":1,"la1":30.6,"la2":29.2853,"lo1":-89.7004,"lo2":-87.6739,"dy":0.0162,"dx":0.0183,"nx":112,"ny":82,"refTime":"2024-03-11T18:00:00:Z","depth":0,"parameterNumber":3,"parameterNumberName":"V-component_of_WINDS"},"data":[0.0,0.0,0.0,0.0,0.0,0.0,0.0,0.0,0.0,0.0,0.0,0.0,0.0,0.0,0.0,0.0,0.0,0.0,0.0,0.0,0.0,0.0,0.0,0.0,0.0,0.0,0.0,0.0,0.0,0.0,0.0,0.0,0.0,0.0,0.0,0.0,0.0,0.0,0.0,0.0,0.0,0.0,0.0,0.0,0.0,0.0,0.0,0.0,0.0,0.0,0.0,0.0,0.0,0.0,0.0,0.0,0.0,0.0,0.0,0.0,0.0,0.0,0.0,0.0,0.0,0.0,0.0,0.0,0.0,0.0,0.0,0.0,0.0,0.0,0.0,0.0,0.0,0.0,0.0,0.0,0.0,0.0,0.0,0.0,0.0,0.0,0.0,0.0,0.0,0.0,0.499,0.5754,0.6573,0.7095,0.7095,0.7095,0.663,0.547,0.0,0.0,0.0,0.0,0.0,0.0,0.0,0.0,0.0,0.0,0.0,0.0,0.0,0.0,0.0,0.0,0.0,0.0,0.0,0.0,0.0,0.0,0.0,0.0,0.0,0.0,0.0,0.0,0.0,0.0,0.0,0.0,0.0,0.0,0.0,0.0,0.0,0.0,0.0,0.0,0.0,0.0,0.0,0.0,0.0,0.0,0.0,0.0,0.0,0.0,0.0,0.0,0.0,0.0,0.0,0.0,0.0,0.0,0.0,0.0,0.0,0.0,0.0,0.0,0.0,0.0,0.0,0.0,0.0,0.0,0.0,0.0,0.0,0.0,0.0,0.0,0.0,0.0,0.0,0.0,0.0,0.0,0.0,0.0,0.0,0.0,0.0,0.0,0.0,0.0,0.0,0.0,0.0,0.0,0.0,0.0,0.0,0.0,0.0,0.0,0.0,0.0,0.0,0.0,0.5203,0.6724,0.7004,0.7095,0.7095,0.7095,0.663,0.547,0.0,0.0,0.0,0.0,0.0,0.0,0.0,0.0,0.0,0.0,0.0,0.0,0.0,0.0,0.0,0.0,0.0,0.0,0.0,0.0,0.0,0.0,0.0,0.0,0.0,0.0,0.0,0.0,0.0,0.0,0.0,0.0,0.0,0.0,0.0,0.0,0.0,0.0,0.0,0.0,0.0,0.0,0.0,0.0,0.0,0.0,0.0,0.0,0.0,0.0,0.0,0.0,0.0,0.0,0.0,0.0,0.0,0.0,0.0,0.0,0.0,0.0,0.0,0.0,0.0,0.0,0.0,0.0,0.0,0.0,0.0,0.0,0.0,0.0,0.0,0.0,0.0,0.0,0.0,0.0,0.0,0.0,0.0,0.0,0.0,0.0,0.0,0.0,0.0,0.0,0.0,0.0,0.0,0.0,0.0,0.0,0.0,0.0,0.0,0.0,0.0,0.0,0.0,0.4569,0.5577,0.6964,0.7095,0.7095,0.7095,0.7095,0.663,0.547,0.5084,0.0,0.0,0.0,0.0,0.0,0.0,0.0,0.0,0.0,0.0,0.0,0.0,0.0,0.0,0.0,0.0,0.0,0.0,0.0,0.0,0.0,0.0,0.0,0.0,0.0,0.0,0.0,0.0,0.0,0.0,0.0,0.0,0.0,0.0,0.0,0.0,0.0,0.0,0.0,0.0,0.0,0.0,0.0,0.0,0.0,0.0,0.0,0.0,0.0,0.0,0.0,0.0,0.0,0.0,0.0,0.0,0.0,0.0,0.0,0.0,0.0,0.0,0.0,0.0,0.0,0.0,0.0,0.0,0.0,0.0,0.0,0.0,0.0,0.0,0.0,0.0,0.0,0.0,0.0,0.0,0.0,0.0,0.0,0.0,0.0,0.0,0.0,0.0,0.0,0.0,0.0,0.0,0.0,0.0,0.0,0.0,0.0,0.0,0.0,0.0,0.0,0.0,0.5367,0.6141,0.7011,0.7095,0.7095,0.7095,0.7095,0.663,0.547,0.5084,0.0,0.0,0.0,0.0,0.0,0.0,0.0,0.0,0.0,0.0,0.0,0.0,0.0,0.0,0.0,0.0,0.0,0.0,0.0,0.0,0.0,0.0,0.0,0.0,0.0,0.0,0.0,0.0,0.0,0.0,0.0,0.0,0.0,0.0,0.0,0.0,0.0,0.0,0.0,0.0,0.0,0.0,0.0,0.0,0.0,0.0,0.0,0.0,0.0,0.0,0.0,0.0,0.0,0.0,0.0,0.0,0.0,0.0,0.0,0.0,0.0,0.0,0.0,0.0,0.0,0.0,0.0,0.0,0.0,0.0,0.0,0.0,0.0,0.0,0.0,0.0,0.0,0.0,0.0,0.0,0.0,0.0,0.0,0.0,0.0,0.0,0.0,0.0,0.0,0.0,0.0,0.0,0.0,0.0,0.0,0.0,0.0,0.0,0.0,0.0,0.0,0.0,0.6057,0.7014,0.7088,0.7095,0.7095,0.7095,0.7095,0.663,0.547,0.5084,0.0,0.0,0.0,0.0,0.0,0.0,0.0,0.0,0.0,0.0,0.0,0.0,0.0,0.0,0.0,0.0,0.0,0.0,0.0,0.0,0.0,0.0,0.0,0.0,0.0,0.0,0.0,0.0,0.0,0.0,0.0,0.0,0.0,0.0,0.0,0.0,0.0,0.0,0.0,0.0,0.0,0.0,0.0,0.0,0.0,0.0,0.0,0.0,0.0,0.0,0.0,0.0,0.0,0.0,0.0,0.0,0.0,0.0,0.0,0.0,0.0,0.0,0.0,0.0,0.0,0.0,0.0,0.0,0.0,0.0,0.0,0.0,0.0,0.0,0.0,0.0,0.0,0.0,0.0,0.0,0.0,0.0,0.0,0.0,0.0,0.0,0.0,0.0,0.0,0.0,0.0,0.0,0.0,0.0,0.0,0.0,0.0,0.0,0.0,0.0,0.0,0.0,0.5649,0.6646,0.0,0.7095,0.7095,0.7095,0.7095,0.6549,0.5298,0.0,0.0,0.0,0.0,0.0,0.0,0.0,0.0,0.0,0.0,0.0,0.0,0.0,0.0,0.0,0.0,0.0,0.0,0.0,0.0,0.0,0.0,0.0,0.0,0.0,0.0,0.0,0.0,0.0,0.0,0.0,0.0,0.0,0.0,0.0,0.0,0.0,0.0,0.0,0.0,0.0,0.0,0.0,0.0,0.0,0.0,0.0,0.0,0.0,0.0,0.0,0.0,0.0,0.0,0.0,0.0,0.0,0.0,0.0,0.0,0.0,0.0,0.0,0.0,0.0,0.0,0.0,0.0,0.0,0.0,0.0,0.0,0.0,0.0,0.0,0.0,0.0,0.0,0.0,0.0,0.0,0.0,0.0,0.0,0.0,0.0,0.0,0.0,0.0,0.0,0.0,0.0,0.0,0.0,0.0,0.0,0.0,0.0,0.0,0.0,0.0,0.0,0.442,0.5649,0.6609,0.0,0.7095,0.7095,0.7095,0.7095,0.6525,0.5184,0.0,0.0,0.0,0.0,0.0,0.0,0.0,0.0,0.0,0.0,0.0,0.0,0.0,0.0,0.0,0.0,0.0,0.0,0.0,0.0,0.0,0.0,0.0,0.0,0.0,0.0,0.0,0.0,0.0,0.0,0.0,0.0,0.0,0.0,0.0,0.0,0.0,0.0,0.0,0.0,0.0,0.0,0.0,0.0,0.0,0.0,0.0,0.0,0.0,0.0,0.0,0.0,0.0,0.0,0.0,0.0,0.0,0.0,0.0,0.0,0.0,0.0,0.0,0.0,0.0,0.0,0.0,0.0,0.0,0.0,0.0,0.0,0.0,0.0,0.0,0.0,0.0,0.0,0.0,0.0,0.0,0.0,0.0,0.0,0.0,0.0,0.0,0.0,0.0,0.0,0.0,0.0,0.0,0.0,0.0,0.0,0.0,0.0,0.0,0.0,0.0,0.0,0.4946,0.6245,0.7095,0.7095,0.7095,0.7095,0.7095,0.7095,0.6522,0.0,0.0,0.0,0.0,0.0,0.0,0.0,0.0,0.0,0.0,0.0,0.0,0.0,0.0,0.0,0.0,0.0,0.0,0.0,0.0,0.0,0.0,0.0,0.0,0.0,0.0,0.0,0.0,0.0,0.0,0.0,0.0,0.0,0.0,0.0,0.0,0.0,0.0,0.0,0.0,0.0,0.0,0.0,0.0,0.0,0.0,0.0,0.0,0.0,0.0,0.0,0.0,0.0,0.0,0.0,0.0,0.0,0.0,0.0,0.0,0.0,0.0,0.0,0.0,0.0,0.0,0.0,0.0,0.0,0.0,0.0,0.0,0.0,0.0,0.0,0.0,0.0,0.0,0.0,0.0,0.0,0.0,0.0,0.0,0.0,0.0,0.0,0.0,0.0,0.0,0.0,0.0,0.0,0.0,0.0,0.0,0.0,0.0,0.0,0.0,0.0,0.0,0.0,0.4913,0.6245,0.7095,0.7095,0.7095,0.7095,0.7095,0.7095,0.6482,0.5042,0.0,0.0,0.0,0.0,0.0,0.0,0.0,0.0,0.0,0.0,0.0,0.0,0.0,0.0,0.0,0.0,0.0,0.0,0.0,0.0,0.0,0.0,0.0,0.0,0.0,0.0,0.0,0.0,0.0,0.0,0.0,0.0,0.0,0.0,0.0,0.0,0.0,0.0,0.0,0.0,0.0,0.0,0.0,0.0,0.0,0.0,0.0,0.0,0.0,0.0,0.0,0.0,0.0,0.0,0.0,0.0,0.0,0.0,0.0,0.0,0.0,0.0,0.0,0.0,0.0,0.0,0.0,0.0,0.0,0.0,0.0,0.0,0.0,0.0,0.0,0.0,0.0,0.0,0.0,0.0,0.0,0.0,0.0,0.0,0.0,0.0,0.0,0.0,0.0,0.0,0.0,0.0,0.0,0.0,0.0,0.0,0.0,0.0,0.0,0.0,0.0,0.0,0.4907,0.6245,0.7095,0.7095,0.7095,0.7095,0.7095,0.7095,0.6589,0.5403,0.0,0.0,0.0,0.0,0.0,0.0,0.0,0.0,0.0,0.0,0.0,0.0,0.0,0.0,0.0,0.0,0.0,0.0,0.0,0.0,0.0,0.0,0.0,0.0,0.0,0.0,0.0,0.0,0.0,0.0,0.0,0.0,0.0,0.0,0.0,0.0,0.0,0.0,0.0,0.0,0.0,0.0,0.0,0.0,0.0,0.0,0.0,0.0,0.0,0.0,0.0,0.0,0.0,0.0,0.0,0.0,0.0,0.0,0.0,0.0,0.0,0.0,0.0,0.0,0.0,0.0,0.0,0.0,0.0,0.0,0.0,0.0,0.0,0.0,0.0,0.0,0.0,0.0,0.0,0.0,0.0,0.0,0.0,0.0,0.0,0.0,0.0,0.0,0.0,0.0,0.0,0.0,0.0,0.0,0.0,0.0,0.0,0.0,0.0,0.0,0.0,0.0,0.493,0.6245,0.7095,0.7095,0.7095,0.7095,0.7095,0.7095,0.6782,0.604,0.0,0.0,0.0,0.0,0.0,0.0,0.0,0.0,0.0,0.0,0.0,0.0,0.0,0.0,0.0,0.0,0.0,0.0,0.0,0.0,0.0,0.0,0.0,0.0,0.0,0.0,0.0,0.0,0.0,0.0,0.0,0.0,0.0,0.0,0.0,0.0,0.0,0.0,0.0,0.0,0.0,0.0,0.0,0.0,0.0,0.0,0.0,0.0,0.0,0.0,0.0,0.0,0.0,0.0,0.0,0.0,0.0,0.0,0.0,0.0,0.4391,0.0,0.0,0.0,0.0,0.0,0.0,0.0,0.0,0.0,0.0,0.0,0.0,0.0,0.0,0.0,0.0,0.0,0.0,0.0,0.0,0.0,0.0,0.0,0.0,0.0,0.0,0.0,0.0,0.0,0.0,0.0,0.0,0.0,0.0,0.0,0.0,0.0,0.0,0.0,0.0,0.0,0.493,0.6245,0.7095,0.7095,0.7095,0.7095,0.7095,0.7095,0.6782,0.604,0.5705,0.0,0.0,0.0,0.0,0.0,0.0,0.0,0.0,0.0,0.0,0.0,0.0,0.0,0.0,0.0,0.0,0.0,0.0,0.0,0.0,0.0,0.0,0.0,0.0,0.0,0.0,0.0,0.0,0.0,0.0,0.0,0.0,0.0,0.0,0.0,0.0,0.0,0.0,0.0,0.0,0.0,0.0,0.0,0.0,0.0,0.0,0.0,0.0,0.0,0.0,0.0,0.0,0.0,0.0,0.0,0.0,0.0,0.0,0.0,0.0,0.4467,0.0,0.0,0.0,0.0,0.0,0.0,0.0,0.0,0.0,0.0,0.0,0.0,0.0,0.0,0.0,0.0,0.0,0.0,0.0,0.0,0.0,0.0,0.0,0.0,0.0,0.0,0.0,0.0,0.0,0.0,0.0,0.0,0.0,0.0,0.0,0.0,0.0,0.0,0.0,0.0,0.4937,0.6245,0.7095,0.7095,0.7095,0.7095,0.7095,0.7095,0.693,0.6549,0.6084,0.0,0.0,0.0,0.0,0.0,0.0,0.0,0.0,0.0,0.0,0.0,0.0,0.0,0.0,0.0,0.0,0.0,0.0,0.0,0.0,0.0,0.0,0.0,0.0,0.0,0.0,0.0,0.0,0.0,0.0,0.0,0.0,0.0,0.0,0.0,0.0,0.0,0.0,0.0,0.0,0.0,0.0,0.0,0.0,0.0,0.0,0.0,0.0,0.0,0.0,0.0,0.0,0.0,0.54,0.5477,0.5527,0.5636,0.5905,0.6218,0.5506,0.5529,0.6017,0.0,0.0,0.0,0.0,0.0,0.0,0.0,0.0,0.0,0.0,0.0,0.0,0.0,0.0,0.0,0.0,0.0,0.0,0.0,0.0,0.0,0.0,0.0,0.0,0.0,0.4742,0.4938,0.0,0.0,0.0,0.0,0.0,0.0,0.0,0.0,0.0,0.0,0.0,0.0,0.515,0.6308,0.7095,0.7095,0.7095,0.7095,0.7095,0.7095,0.7095,0.7095,0.6444,0.5976,0.0,0.0,0.0,0.0,0.0,0.0,0.0,0.0,0.0,0.0,0.0,0.0,0.0,0.0,0.0,0.0,0.0,0.0,0.0,0.0,0.0,0.0,0.0,0.0,0.0,0.0,0.0,0.0,0.0,0.0,0.0,0.0,0.5586,0.5632,0.0,0.0,0.0,0.0,0.0,0.0,0.0,0.0,0.0,0.0,0.0,0.0,0.0,0.0,0.5337,0.5856,0.6132,0.6156,0.663,0.6842,0.6862,0.6862,0.6906,0.6974,0.6833,0.0,0.6086,0.5873,0.0,0.0,0.0,0.0,0.0,0.0,0.0,0.0,0.0,0.0,0.0,0.0,0.0,0.0,0.0,0.0,0.0,0.0,0.0,0.0,0.0,0.0,0.5497,0.5481,0.5537,0.557,0.0,0.4706,0.3985,0.3723,0.0,0.0,0.0,0.0,0.0,0.0,0.0,0.0,0.5844,0.6642,0.7095,0.7095,0.7095,0.7095,0.7095,0.7095,0.7095,0.7095,0.6984,0.6633,0.599,0.5776,0.0,0.0,0.0,0.0,0.0,0.0,0.0,0.0,0.0,0.0,0.0,0.0,0.0,0.0,0.0,0.0,0.0,0.0,0.0,0.0,0.0,0.0,0.0,0.0,0.0,0.0,0.0,0.0,0.0,0.5226,0.5593,0.5513,0.5111,0.4654,0.0,0.0,0.0,0.0,0.0,0.0,0.0,0.0,0.0,0.5752,0.5945,0.6146,0.6359,0.6624,0.6756,0.6759,0.6974,0.7095,0.7095,0.7095,0.7095,0.7095,0.7095,0.695,0.6642,0.6274,0.5725,0.51,0.0,0.0,0.0,0.0,0.0,0.419,0.4642,0.0,0.0,0.0,0.0,0.0,0.0,0.0,0.0,0.0,0.0,0.0,0.0,0.0,0.0,0.564,0.5688,0.5688,0.5688,0.5319,0.4855,0.0,0.4197,0.3827,0.3096,0.0,0.0,0.0,0.0,0.5361,0.6001,0.6689,0.7095,0.7095,0.7095,0.7095,0.7095,0.7095,0.7095,0.7095,0.7095,0.695,0.6627,0.6148,0.5583,0.0,0.0,0.0,0.0,0.0,0.0,0.0,0.0,0.0,0.0,0.0,0.0,0.0,0.0,0.0,0.0,0.0,0.0,0.0,0.0,0.0,0.0,0.0,0.0,0.0,0.0,0.0,0.0,0.5443,0.5913,0.5635,0.5549,0.5194,0.0,0.0,0.0,0.0,0.0,0.0,0.5672,0.5791,0.6023,0.6471,0.6586,0.6803,0.7092,0.7095,0.7095,0.7095,0.7095,0.7095,0.7095,0.7095,0.7095,0.7095,0.7095,0.7095,0.7061,0.6582,0.6258,0.6112,0.5538,0.5237,0.5099,0.5021,0.4959,0.4959,0.5382,0.5396,0.5175,0.5251,0.0,0.4716,0.4294,0.0,0.0,0.0,0.0,0.4632,0.5083,0.0,0.5396,0.5626,0.5688,0.5688,0.5688,0.5615,0.5445,0.0,0.4812,0.4431,0.3652,0.0,0.0,0.0,0.0,0.5647,0.6128,0.661,0.6918,0.6918,0.6966,0.701,0.701,0.7051,0.7095,0.7095,0.7095,0.7095,0.7095,0.6566,0.6131,0.5867,0.0,0.0,0.0,0.0,0.0,0.0,0.0,0.0,0.0,0.0,0.0,0.0,0.0,0.0,0.0,0.0,0.0,0.0,0.0,0.0,0.0,0.0,0.0,0.0,0.0,0.0,0.0,0.0,0.0,0.6527,0.6707,0.0,0.0,0.0,0.0,0.5521,0.5562,0.5823,0.6426,0.6463,0.6634,0.7038,0.7058,0.7071,0.7095,0.7095,0.7095,0.7095,0.7095,0.7095,0.7095,0.7095,0.7095,0.7095,0.7095,0.7095,0.7095,0.7065,0.6763,0.6268,0.6241,0.5895,0.5403,0.5455,0.5474,0.5482,0.5621,0.5659,0.5613,0.5462,0.5073,0.4736,0.4901,0.4719,0.0,0.0,0.5053,0.5227,0.5556,0.5656,0.5667,0.5686,0.5688,0.5688,0.5688,0.5461,0.5309,0.0,0.5629,0.5459,0.4965,0.0,0.5029,0.5269,0.5354,0.5648,0.6281,0.6413,0.6428,0.6428,0.6656,0.6792,0.6792,0.701,0.7095,0.7095,0.7095,0.7095,0.7095,0.7061,0.6707,0.5993,0.5837,0.0,0.0,0.0,0.0,0.0,0.0,0.0,0.0,0.0,0.0,0.0,0.0,0.0,0.0,0.0,0.0,0.0,0.0,0.0,0.0,0.0,0.0,0.0,0.0,0.0,0.0,0.0,0.0,0.6569,0.6878,0.0,0.6168,0.6086,0.6136,0.619,0.6424,0.6678,0.6892,0.6902,0.6933,0.7092,0.7095,0.7095,0.7095,0.7095,0.7095,0.7095,0.7095,0.7095,0.7095,0.7095,0.7095,0.7095,0.7095,0.7095,0.7095,0.7095,0.7004,0.682,0.682,0.668,0.6478,0.6381,0.6352,0.6288,0.6039,0.5952,0.5938,0.5676,0.5488,0.5363,0.5408,0.5388,0.5311,0.54,0.5464,0.5567,0.5656,0.5688,0.5688,0.5688,0.5688,0.5688,0.5688,0.5588,0.5578,0.5664,0.5542,0.5303,0.5059,0.5232,0.5455,0.5412,0.5641,0.6003,0.636,0.6384,0.6384,0.6384,0.6476,0.6523,0.6523,0.6745,0.6925,0.6925,0.701,0.7095,0.7095,0.7095,0.697,0.6707,0.665,0.5962,0.0,0.0,0.0,0.0,0.0,0.0,0.0,0.0,0.0,0.0,0.0,0.0,0.0,0.0,0.0,0.0,0.0,0.0,0.0,0.0,0.0,0.0,0.0,0.0,0.0,0.0,0.7046,0.6465,0.6926,0.7053,0.6382,0.6557,0.6698,0.6698,0.693,0.7095,0.7095,0.7095,0.7095,0.7095,0.7095,0.7095,0.7095,0.7095,0.7095,0.7095,0.7095,0.7095,0.7095,0.7095,0.7095,0.7095,0.7095,0.7095,0.7095,0.7095,0.7095,0.7095,0.7095,0.7095,0.7098,0.6881,0.6795,0.6751,0.626,0.6038,0.5952,0.5777,0.5688,0.5688,0.5688,0.5688,0.5688,0.5688,0.5688,0.5688,0.5688,0.5688,0.5688,0.5688,0.5688,0.5688,0.5688,0.5688,0.5688,0.5688,0.5537,0.5347,0.5271,0.5481,0.564,0.5433,0.5729,0.601,0.6048,0.6113,0.6169,0.6169,0.6257,0.6299,0.6299,0.6443,0.6551,0.665,0.6697,0.6767,0.7003,0.682,0.6756,0.6844,0.6844,0.6207,0.4945,0.0,0.0,0.0,0.0,0.0,0.0,0.0,0.0,0.0,0.0,0.0,0.0,0.0,0.0,0.0,0.0,0.0,0.0,0.0,0.0,0.0,0.0,0.0,0.6429,0.6836,0.7004,0.6346,0.6992,0.7239,0.6576,0.6885,0.7095,0.7095,0.7095,0.7095,0.7095,0.7095,0.7095,0.7095,0.7095,0.7095,0.7095,0.7095,0.7095,0.7095,0.7095,0.7095,0.7095,0.7095,0.7095,0.7095,0.7095,0.7095,0.7095,0.7095,0.7095,0.7095,0.7095,0.7095,0.7098,0.6881,0.6795,0.6751,0.626,0.5952,0.5733,0.5733,0.5733,0.5688,0.5688,0.5688,0.5688,0.5688,0.5688,0.5688,0.5688,0.5688,0.5688,0.5688,0.5688,0.5688,0.5688,0.5688,0.5688,0.5688,0.5688,0.5688,0.5688,0.5688,0.5654,0.5459,0.5583,0.0,0.5454,0.5589,0.5686,0.5677,0.5941,0.6071,0.6071,0.5981,0.6048,0.636,0.6107,0.6194,0.6776,0.6219,0.6048,0.6327,0.63,0.6139,0.58,0.0,0.0,0.0,0.0,0.0,0.0,0.0,0.0,0.0,0.0,0.0,0.0,0.0,0.0,0.0,0.0,0.0,0.0,0.0,0.0,0.0,0.6662,0.7172,0.6869,0.7433,0.7812,0.7465,0.7476,0.7409,0.7235,0.7159,0.7095,0.7095,0.7095,0.7095,0.7095,0.7095,0.7095,0.7095,0.7095,0.7095,0.7095,0.7095,0.7095,0.7095,0.7095,0.7095,0.7095,0.7095,0.7095,0.7095,0.7095,0.7095,0.7095,0.7095,0.7095,0.7095,0.7095,0.7095,0.7095,0.7054,0.6925,0.6795,0.6659,0.6438,0.6169,0.6038,0.5997,0.5952,0.5777,0.5688,0.5688,0.5688,0.5688,0.5688,0.5688,0.5688,0.5688,0.5688,0.5688,0.5688,0.5688,0.5688,0.5688,0.5688,0.5688,0.5688,0.5688,0.5688,0.5667,0.5643,0.5645,0.0,0.5643,0.5648,0.5623,0.5488,0.5554,0.5596,0.5596,0.5671,0.5861,0.6151,0.624,0.6315,0.6517,0.6554,0.6642,0.6856,0.6261,0.5884,0.0,0.0,0.0,0.0,0.0,0.0,0.0,0.0,0.0,0.0,0.0,0.0,0.0,0.0,0.0,0.0,0.0,0.0,0.0,0.0,0.0,0.0,0.7347,0.7776,0.7523,0.7905,0.8157,0.8028,0.7812,0.768,0.768,0.7411,0.7279,0.7279,0.7143,0.7125,0.7234,0.7238,0.7265,0.7287,0.7287,0.7287,0.7287,0.7287,0.7287,0.7287,0.7287,0.7287,0.7287,0.7287,0.7287,0.0,0.7287,0.7295,0.7238,0.7238,0.7156,0.0,0.0,0.0,0.0,0.0,0.6966,0.6795,0.6795,0.6612,0.6387,0.6171,0.6083,0.6038,0.5777,0.5688,0.5688,0.5688,0.5688,0.5688,0.5688,0.5688,0.5688,0.5688,0.5688,0.5688,0.5688,0.5688,0.5688,0.5688,0.0,0.0,0.5688,0.5688,0.5653,0.5597,0.5667,0.5653,0.5594,0.5626,0.5634,0.5537,0.5521,0.5521,0.5521,0.551,0.0,0.0,0.0,0.5899,0.5885,0.6144,0.0,0.0,0.0,0.596,0.6208,0.0,0.0,0.0,0.5413,0.5194,0.0,0.0,0.0,0.0,0.0,0.0,0.0,0.0,0.0,0.0,0.0,0.0,0.0,0.0,0.0,0.0,0.8026,0.852,0.8288,0.8245,0.8245,0.8157,0.8028,0.79,0.7856,0.7639,0.7507,0.7459,0.7248,0.7224,0.7409,0.0,0.0,0.0,0.0,0.76,0.76,0.76,0.76,0.76,0.76,0.76,0.76,0.76,0.76,0.76,0.76,0.7522,0.7443,0.7443,0.7316,0.7142,0.7109,0.7095,0.7095,0.7095,0.6966,0.0,0.0,0.0,0.0,0.626,0.6171,0.6083,0.5822,0.5733,0.5688,0.5688,0.5688,0.5688,0.5688,0.5688,0.5688,0.5688,0.5688,0.5688,0.5688,0.5688,0.5688,0.5688,0.5688,0.5688,0.5688,0.5688,0.5659,0.5445,0.5594,0.0,0.5439,0.56,0.5677,0.565,0.0,0.0,0.5648,0.5393,0.5358,0.5667,0.5428,0.5281,0.5292,0.5486,0.5568,0.5604,0.5841,0.6204,0.6748,0.6922,0.7051,0.7017,0.5612,0.5226,0.0,0.0,0.0,0.0,0.0,0.0,0.0,0.0,0.0,0.0,0.0,0.0,0.0,0.0,0.0,0.7419,0.8102,0.8568,0.852,0.852,0.8388,0.7984,0.794,0.7812,0.7595,0.7551,0.7415,0.7187,0.7303,0.7339,0.7415,0.7489,0.0,0.7597,0.76,0.76,0.76,0.76,0.76,0.76,0.0,0.0,0.76,0.76,0.76,0.76,0.76,0.7584,0.7556,0.7556,0.7539,0.7485,0.7193,0.7095,0.7095,0.7095,0.7098,0.7054,0.7054,0.7007,0.6918,0.6748,0.6523,0.6299,0.6083,0.5863,0.0,0.5688,0.5688,0.5688,0.5688,0.5688,0.5688,0.5688,0.5688,0.5688,0.5688,0.5688,0.5688,0.5688,0.5688,0.5688,0.5688,0.5688,0.5675,0.5626,0.5659,0.5672,0.567,0.5659,0.5657,0.5461,0.5439,0.5439,0.5439,0.5416,0.5447,0.5672,0.5623,0.5703,0.5935,0.5979,0.6065,0.6232,0.6276,0.6371,0.6476,0.652,0.6653,0.6874,0.669,0.6621,0.0,0.0,0.0,0.0,0.0,0.0,0.0,0.0,0.0,0.0,0.0,0.6451,0.7053,0.0,0.7541,0.7976,0.8346,0.8612,0.8612,0.8476,0.8292,0.8072,0.8072,0.794,0.7724,0.7595,0.7491,0.7427,0.7416,0.7438,0.7584,0.7662,0.774,0.7818,0.7821,0.7821,0.7821,0.7821,0.7821,0.7821,0.7821,0.7821,0.7821,0.7821,0.7821,0.7821,0.7821,0.7777,0.7699,0.7631,0.76,0.7584,0.7431,0.737,0.737,0.737,0.737,0.737,0.737,0.737,0.7314,0.7015,0.6812,0.6616,0.6236,0.5994,0.5863,0.5733,0.5688,0.5688,0.5688,0.5688,0.5688,0.5688,0.5688,0.5688,0.5688,0.5688,0.5688,0.5688,0.5688,0.5688,0.5688,0.5688,0.5688,0.5688,0.5688,0.5688,0.5688,0.5688,0.5642,0.5564,0.5551,0.5551,0.5551,0.5551,0.5602,0.568,0.5688,0.5777,0.5908,0.5908,0.5949,0.6038,0.6169,0.6257,0.6257,0.6343,0.6476,0.6612,0.6697,0.6697,0.0,0.0,0.0,0.0,0.0,0.0,0.0,0.5838,0.5983,0.6879,0.6985,0.7121,0.7809,0.7829,0.7928,0.8495,0.8612,0.8612,0.8612,0.8428,0.8245,0.8201,0.8157,0.8072,0.7856,0.7639,0.7522,0.7629,0.7534,0.7533,0.7797,0.7838,0.7913,0.7985,0.7988,0.7988,0.7988,0.7988,0.7988,0.7988,0.7988,0.7988,0.7988,0.7988,0.7988,0.7988,0.7988,0.7921,0.7845,0.7733,0.7685,0.7685,0.7685,0.7685,0.7678,0.7621,0.76,0.76,0.76,0.76,0.7533,0.7227,0.7096,0.6936,0.6457,0.6248,0.6113,0.5936,0.5801,0.5758,0.5758,0.5758,0.5758,0.5758,0.5739,0.5721,0.5721,0.5704,0.5688,0.5688,0.5688,0.5688,0.5688,0.5688,0.5688,0.5688,0.5688,0.5688,0.5688,0.5688,0.5688,0.5688,0.5688,0.5688,0.5688,0.5688,0.5688,0.5688,0.5688,0.5688,0.5688,0.5688,0.5688,0.5688,0.5908,0.6041,0.6041,0.6169,0.6299,0.6343,0.6343,0.6343,0.5381,0.5258,0.5614,0.6145,0.631,0.6683,0.0,0.7707,0.7456,0.8245,0.8357,0.8381,0.8506,0.8475,0.8495,0.86,0.8612,0.8612,0.8612,0.8568,0.8472,0.8245,0.8028,0.7812,0.7551,0.7507,0.7481,0.7451,0.7542,0.7645,0.7801,0.7891,0.7971,0.7988,0.7988,0.7988,0.7988,0.7988,0.7988,0.7988,0.7988,0.7988,0.7988,0.7988,0.7988,0.7988,0.7988,0.7978,0.7965,0.7948,0.7941,0.7941,0.7941,0.7941,0.7911,0.7695,0.76,0.76,0.76,0.76,0.7597,0.7533,0.7383,0.7185,0.7076,0.6789,0.6461,0.6415,0.623,0.6045,0.6045,0.6045,0.6045,0.6045,0.5964,0.5885,0.5885,0.5803,0.5688,0.5688,0.5688,0.5688,0.5688,0.5688,0.5688,0.5688,0.5688,0.5688,0.5688,0.5688,0.5688,0.5688,0.5688,0.5688,0.5688,0.5688,0.5688,0.5688,0.5688,0.5688,0.5688,0.5688,0.5688,0.5688,0.5733,0.5733,0.5733,0.5777,0.5908,0.6127,0.6127,0.6127,0.6918,0.6605,0.6497,0.7201,0.7326,0.7418,0.7984,0.7902,0.7861,0.8482,0.8612,0.8612,0.8612,0.8612,0.8612,0.0,0.8612,0.8612,0.8612,0.8472,0.8336,0.8201,0.8028,0.7812,0.7507,0.7507,0.752,0.7531,0.7563,0.7699,0.7884,0.7955,0.7988,0.7988,0.7988,0.7988,0.7988,0.7988,0.7988,0.7988,0.7988,0.7988,0.7988,0.7988,0.7988,0.7988,0.7988,0.7988,0.7988,0.7988,0.7988,0.7988,0.7988,0.7988,0.7975,0.785,0.7855,0.7855,0.7855,0.7855,0.7841,0.775,0.7624,0.7512,0.7284,0.707,0.6835,0.6599,0.6411,0.6319,0.6133,0.6086,0.6086,0.6086,0.6045,0.601,0.601,0.5972,0.5937,0.5937,0.5937,0.5937,0.5937,0.5937,0.5937,0.5937,0.582,0.5688,0.5688,0.5688,0.5688,0.5688,0.5688,0.5688,0.5688,0.5688,0.5688,0.5688,0.5688,0.5688,0.5688,0.5688,0.5688,0.5688,0.5688,0.5688,0.5688,0.5688,0.5777,0.5863,0.5863,0.5863,0.7434,0.7318,0.7227,0.7857,0.8072,0.8106,0.8024,0.8024,0.8135,0.8531,0.8612,0.8612,0.8612,0.8612,0.8612,0.8612,0.8612,0.8612,0.8612,0.8428,0.8292,0.8292,0.8116,0.79,0.7639,0.7551,0.7545,0.7577,0.76,0.7729,0.7975,0.7988,0.7988,0.7988,0.7988,0.7988,0.7988,0.7988,0.7988,0.7988,0.7988,0.7988,0.7988,0.7988,0.7988,0.7988,0.7988,0.7988,0.7988,0.7988,0.7988,0.7988,0.7988,0.7988,0.7988,0.7988,0.7988,0.7988,0.7988,0.7988,0.7971,0.7909,0.7875,0.7806,0.7507,0.7378,0.7235,0.69,0.6709,0.6517,0.6328,0.6232,0.6181,0.6181,0.6159,0.6135,0.6135,0.6111,0.6086,0.6086,0.6086,0.6086,0.6086,0.6086,0.6086,0.6086,0.5939,0.5831,0.5831,0.5831,0.5831,0.5831,0.5756,0.5734,0.5734,0.5707,0.5688,0.5688,0.5688,0.5688,0.5688,0.5688,0.5688,0.5688,0.5688,0.5688,0.5688,0.5688,0.5688,0.5688,0.5688,0.5688,0.6158,0.6764,0.7368,0.7739,0.8359,0.8798,0.8632,0.8588,0.8592,0.8608,0.8612,0.8612,0.8612,0.8612,0.8612,0.8612,0.8612,0.8612,0.8612,0.8612,0.8568,0.8568,0.8336,0.8113,0.0,0.7635,0.7545,0.7577,0.76,0.7729,0.7975,0.7988,0.7988,0.7988,0.7988,0.7988,0.7988,0.7988,0.7988,0.7988,0.7988,0.7988,0.7988,0.7988,0.7988,0.7988,0.7988,0.7988,0.7988,0.7988,0.7988,0.7988,0.7988,0.7988,0.7988,0.7988,0.7988,0.7988,0.7988,0.7988,0.7988,0.7985,0.7982,0.7982,0.7978,0.7779,0.7584,0.7584,0.7182,0.6783,0.6781,0.6578,0.6376,0.6376,0.6342,0.6311,0.6311,0.617,0.6086,0.6086,0.6086,0.6086,0.6086,0.6086,0.6086,0.6086,0.6081,0.6075,0.6075,0.6075,0.6075,0.6075,0.5969,0.5896,0.5896,0.5798,0.5688,0.5688,0.5688,0.5688,0.5688,0.5688,0.5688,0.5688,0.5688,0.5688,0.5688,0.5688,0.5688,0.5688,0.5688,0.5688,0.6765,0.7286,0.7864,0.8329,0.8603,0.8696,0.8608,0.8612,0.8612,0.8612,0.8334,0.808,0.808,0.808,0.808,0.808,0.8367,0.8612,0.8612,0.8612,0.852,0.8336,0.8245,0.0,0.0,0.0,0.0,0.7584,0.7685,0.7828,0.7978,0.7988,0.7988,0.7988,0.7988,0.7988,0.7988,0.7988,0.8092,0.8194,0.8289,0.8333,0.8333,0.8333,0.8333,0.8333,0.8333,0.8333,0.8333,0.8333,0.8333,0.8333,0.8333,0.8275,0.8194,0.8194,0.813,0.7988,0.7988,0.7988,0.7988,0.7988,0.7988,0.7988,0.7988,0.7942,0.7842,0.7646,0.7344,0.7039,0.6845,0.6589,0.6387,0.6387,0.6407,0.638,0.638,0.6347,0.6317,0.6317,0.6317,0.6317,0.6317,0.6317,0.6317,0.6317,0.6184,0.6086,0.6086,0.6086,0.6086,0.6086,0.6048,0.6024,0.6024,0.5988,0.5966,0.5966,0.589,0.5847,0.5847,0.5729,0.5688,0.5688,0.5688,0.5688,0.5688,0.5688,0.5688,0.5688,0.5688,0.5688,0.7423,0.7854,0.8227,0.8702,0.8739,0.8641,0.8624,0.8612,0.8612,0.8612,0.81,0.7702,0.7806,0.7726,0.7702,0.781,0.8247,0.8612,0.8612,0.852,0.8384,0.8201,0.8078,0.793,0.0,0.0,0.0,0.7668,0.776,0.7879,0.7982,0.7988,0.7988,0.7988,0.7988,0.7988,0.7988,0.8096,0.8197,0.8347,0.8438,0.8482,0.8482,0.8482,0.8482,0.8482,0.8482,0.8482,0.8482,0.8482,0.8482,0.8482,0.8482,0.8425,0.8347,0.8347,0.8282,0.8184,0.8025,0.7988,0.7988,0.7988,0.7988,0.7988,0.7988,0.7988,0.7942,0.7793,0.7543,0.7291,0.7144,0.6792,0.6539,0.6539,0.6487,0.6387,0.6387,0.6387,0.6387,0.6387,0.6387,0.6387,0.6387,0.6387,0.6387,0.6387,0.6306,0.6211,0.6211,0.6211,0.6211,0.6211,0.6176,0.6151,0.6151,0.6111,0.6086,0.6086,0.601,0.5966,0.5966,0.5899,0.5858,0.5858,0.5858,0.5839,0.575,0.575,0.5729,0.5688,0.5688,0.5688,0.7983,0.8325,0.8426,0.8763,0.884,0.8787,0.8621,0.8624,0.8612,0.8532,0.7972,0.7525,0.7671,0.758,0.7541,0.771,0.8227,0.8612,0.8568,0.838,0.8204,0.0,0.0,0.0,0.0,0.0,0.0,0.7821,0.0,0.7885,0.7982,0.7988,0.7988,0.7988,0.7988,0.7992,0.8002,0.8211,0.836,0.8492,0.8503,0.8506,0.8506,0.8506,0.8506,0.8506,0.8506,0.8506,0.8506,0.8506,0.8506,0.8506,0.8506,0.8503,0.8492,0.8492,0.8489,0.8442,0.816,0.8012,0.8012,0.8012,0.8012,0.8012,0.8012,0.8012,0.8012,0.8012,0.7816,0.7619,0.7619,0.721,0.6853,0.6803,0.6595,0.6437,0.6387,0.6387,0.6387,0.6387,0.6387,0.6387,0.6387,0.6387,0.6387,0.6387,0.6387,0.6387,0.6387,0.6387,0.6387,0.6387,0.6342,0.6325,0.6325,0.617,0.6105,0.6105,0.61,0.6094,0.6094,0.6089,0.6086,0.6086,0.6086,0.6029,0.5912,0.5912,0.5855,0.5707,0.5707,0.5707,0.8453,0.8829,0.9151,0.9245,0.912,0.8978,0.8796,0.8755,0.8561,0.7899,0.7324,0.6764,0.6321,0.6602,0.692,0.6965,0.7903,0.0,0.8336,0.8428,0.0,0.8159,0.8212,0.8333,0.8346,0.8206,0.0,0.0,0.8079,0.7948,0.7988,0.7988,0.7988,0.7988,0.7988,0.8096,0.8211,0.8469,0.8618,0.8655,0.8767,0.8821,0.8821,0.8821,0.8821,0.8821,0.8821,0.8821,0.8821,0.8821,0.8821,0.8821,0.8821,0.8754,0.8652,0.8652,0.8581,0.8472,0.8394,0.8367,0.8367,0.8367,0.8367,0.8367,0.8367,0.8367,0.8367,0.8367,0.8163,0.7959,0.7959,0.7625,0.7292,0.7091,0.6864,0.6639,0.6437,0.6387,0.6387,0.6387,0.6387,0.6387,0.6387,0.6387,0.6387,0.6387,0.6387,0.6387,0.6387,0.6387,0.6387,0.6387,0.6363,0.6393,0.6393,0.6363,0.6347,0.6347,0.6268,0.627,0.627,0.6132,0.6086,0.6086,0.6086,0.607,0.604,0.604,0.6024,0.5996,0.5996,0.5996,0.8946,0.925,0.9453,0.9424,0.9331,0.908,0.858,0.8384,0.814,0.7316,0.6622,0.6069,0.5756,0.6196,0.6618,0.6693,0.0,0.0,0.8384,0.8384,0.8408,0.0,0.8348,0.0,0.8568,0.8508,0.8487,0.0,0.8237,0.7988,0.7988,0.7988,0.7988,0.7988,0.8106,0.8245,0.8462,0.8628,0.8743,0.8811,0.8844,0.8885,0.8885,0.8885,0.8885,0.8885,0.0,0.8885,0.8885,0.8885,0.8885,0.8885,0.8885,0.8831,0.8811,0.8811,0.8757,0.8682,0.8682,0.8682,0.8659,0.8526,0.8482,0.8482,0.8482,0.8482,0.8482,0.8482,0.8377,0.8276,0.8276,0.8007,0.769,0.7382,0.7167,0.6907,0.6648,0.6597,0.6581,0.6476,0.6422,0.6387,0.6387,0.6387,0.6387,0.6387,0.6387,0.6387,0.6387,0.6387,0.6387,0.6387,0.6387,0.6387,0.6387,0.6387,0.6387,0.6387,0.6377,0.6342,0.6342,0.6276,0.6241,0.6241,0.6241,0.6214,0.6165,0.6165,0.6138,0.6086,0.6086,0.6086,0.9462,0.9579,0.9592,0.9477,0.9437,0.9157,0.8213,0.7928,0.7588,0.6733,0.5981,0.5513,0.5546,0.5992,0.6456,0.667,0.7694,0.8519,0.8593,0.8396,0.8319,0.8519,0.844,0.8509,0.8702,0.8796,0.8874,0.8874,0.8382,0.8088,0.8088,0.8088,0.8048,0.8019,0.8238,0.8452,0.871,0.873,0.8808,0.8885,0.8885,0.8885,0.8885,0.8885,0.8885,0.8885,0.0,0.0,0.8885,0.8885,0.8885,0.8885,0.8885,0.8885,0.8885,0.8885,0.8885,0.8885,0.8885,0.8885,0.8841,0.8628,0.8543,0.8543,0.8543,0.8543,0.8543,0.8543,0.8543,0.8543,0.8543,0.8371,0.8098,0.7781,0.7446,0.7167,0.6907,0.6801,0.6771,0.6665,0.6495,0.6411,0.6411,0.6398,0.6387,0.6387,0.6387,0.6387,0.6387,0.6387,0.6387,0.6387,0.6387,0.6387,0.6387,0.6387,0.6387,0.6387,0.6387,0.6387,0.6387,0.6387,0.6387,0.6387,0.6387,0.6388,0.629,0.629,0.6236,0.6132,0.6132,0.6132,0.9546,0.9579,0.9571,0.9587,0.9579,0.9296,0.8312,0.8066,0.7583,0.6022,0.5581,0.5348,0.4796,0.5314,0.6047,0.6673,0.7454,0.8063,0.845,0.8524,0.8548,0.0,0.8839,0.908,0.9404,0.9266,0.0,0.0,0.0,0.8676,0.8676,0.8432,0.8296,0.8228,0.8492,0.8659,0.871,0.8835,0.8858,0.8885,0.8885,0.8885,0.8885,0.8885,0.8885,0.8885,0.0,0.0,0.8885,0.8885,0.8885,0.8885,0.8885,0.8885,0.8885,0.8885,0.8885,0.8885,0.8885,0.8885,0.8875,0.8821,0.8804,0.8804,0.8804,0.8804,0.8804,0.8804,0.8804,0.8804,0.8804,0.871,0.8511,0.8246,0.7837,0.7434,0.7167,0.6959,0.6796,0.6774,0.6671,0.6586,0.6586,0.6454,0.6387,0.6387,0.6387,0.6387,0.6387,0.6387,0.6387,0.6387,0.6387,0.6387,0.6387,0.6387,0.6387,0.6387,0.6387,0.6387,0.6387,0.6387,0.6387,0.6387,0.6387,0.6376,0.6407,0.6407,0.6396,0.6327,0.6327,0.6327,0.9579,0.9579,0.9579,0.9579,0.9579,0.9272,0.7975,0.7583,0.7076,0.541,0.5026,0.4867,0.456,0.5102,0.5734,0.6155,0.7107,0.7895,0.819,0.858,0.8892,0.9052,0.9179,0.9336,0.9604,0.948,0.943,0.0,0.0,0.9076,0.8825,0.866,0.8616,0.8755,0.8742,0.875,0.8828,0.8848,0.8885,0.8885,0.8885,0.8885,0.8885,0.8885,0.8885,0.8885,0.8885,0.0,0.8885,0.8885,0.8885,0.8885,0.8885,0.8885,0.8885,0.8885,0.8885,0.8885,0.8885,0.8885,0.8885,0.8885,0.8885,0.8885,0.8885,0.8885,0.8885,0.8885,0.8885,0.8885,0.8885,0.8828,0.8719,0.8446,0.801,0.7585,0.7419,0.7155,0.6899,0.6899,0.6798,0.6714,0.6714,0.6611,0.6481,0.6481,0.6427,0.6387,0.6387,0.6387,0.6387,0.6387,0.6387,0.6387,0.6387,0.6387,0.6387,0.6387,0.6387,0.6387,0.6387,0.6387,0.6387,0.6387,0.6387,0.6387,0.6387,0.6387,0.6387,0.6387,0.6387,0.6387,0.9546,0.9579,0.9579,0.9579,0.9579,0.9203,0.7576,0.7103,0.6569,0.4977,0.4574,0.4491,0.4491,0.4959,0.541,0.573,0.6771,0.7638,0.8033,0.8621,0.9076,0.9371,0.9404,0.0,0.9612,0.9579,0.0,0.0,0.0,0.0,0.8977,0.8973,0.9093,0.9291,0.901,0.8927,0.8992,0.8937,0.8885,0.8885,0.8885,0.8885,0.8885,0.8885,0.8885,0.8885,0.8885,0.0,0.0,0.8885,0.8885,0.8885,0.8885,0.8885,0.8885,0.8885,0.8885,0.8885,0.8885,0.8885,0.8885,0.8885,0.8885,0.8885,0.8885,0.8885,0.8885,0.8885,0.8885,0.8885,0.8885,0.8885,0.8826,0.8543,0.81,0.766,0.7607,0.7306,0.7021,0.7021,0.6923,0.6842,0.6842,0.6741,0.666,0.666,0.6554,0.6425,0.6425,0.6403,0.6387,0.6387,0.6387,0.6387,0.6387,0.6387,0.6387,0.6387,0.6387,0.6387,0.6387,0.6387,0.6387,0.6387,0.6387,0.6387,0.6387,0.6387,0.6387,0.6387,0.6387,0.64,0.9445,0.9579,0.9579,0.9579,0.9579,0.9155,0.7412,0.7022,0.6528,0.4857,0.4519,0.4491,0.4491,0.4638,0.5036,0.5846,0.6349,0.7019,0.8131,0.8492,0.8845,0.9343,0.0,0.0,0.9612,0.9579,0.0,0.0,0.0,0.0,0.9458,0.9714,0.98,0.9563,0.9388,0.9364,0.9379,0.9047,0.8885,0.8885,0.8885,0.8885,0.8885,0.8885,0.8885,0.8885,0.0,0.0,0.0,0.8885,0.8885,0.8885,0.8885,0.8885,0.8885,0.8885,0.8885,0.8885,0.8885,0.8885,0.8885,0.8885,0.8885,0.8885,0.8885,0.8885,0.8885,0.8885,0.8885,0.8885,0.8885,0.8885,0.8826,0.8543,0.8211,0.7881,0.7662,0.7371,0.7193,0.7193,0.7048,0.697,0.697,0.6866,0.6785,0.6785,0.6681,0.6603,0.6603,0.6454,0.6387,0.6387,0.6387,0.6387,0.6387,0.6387,0.6387,0.6387,0.6387,0.6387,0.6387,0.6387,0.6387,0.6387,0.6387,0.6387,0.6387,0.6387,0.6387,0.6387,0.6387,0.6446,0.9453,0.9579,0.9579,0.9579,0.9208,0.8495,0.7276,0.6633,0.5947,0.4751,0.4491,0.4491,0.4491,0.4539,0.4749,0.5241,0.5828,0.6406,0.7049,0.7989,0.8673,0.8914,0.9259,0.0,0.0,0.0,0.0,0.0,0.0,0.0,1.0056,1.0028,0.9985,1.0039,0.9618,0.9379,0.9379,0.9051,0.8885,0.8885,0.8885,0.8885,0.8885,0.8885,0.8885,0.8885,0.0,0.0,0.0,0.8885,0.8885,0.8885,0.8885,0.8885,0.8885,0.8885,0.8885,0.8885,0.8885,0.8885,0.8885,0.8885,0.8885,0.8885,0.8885,0.8885,0.8885,0.8885,0.8885,0.8885,0.8885,0.8885,0.8881,0.8768,0.8488,0.8211,0.7881,0.7604,0.7379,0.721,0.7174,0.7141,0.7141,0.6989,0.6912,0.6912,0.6806,0.6728,0.6728,0.6687,0.6657,0.6657,0.6473,0.6387,0.6387,0.6387,0.6387,0.6387,0.6387,0.6387,0.6387,0.6387,0.6387,0.6387,0.6387,0.6387,0.6387,0.646,0.6495,0.6497,0.6622,0.6733,0.9137,0.9466,0.9579,0.9579,0.8948,0.8064,0.7214,0.6393,0.5538,0.467,0.4491,0.4491,0.4491,0.4491,0.4576,0.4809,0.5375,0.5925,0.6371,0.7401,0.8213,0.8475,0.0,0.9295,0.0,0.0,0.0,0.0,0.0,0.0,0.0,1.0285,1.0287,1.0414,0.9926,0.9655,0.9655,0.9268,0.9047,0.9047,0.8937,0.8885,0.8885,0.8885,0.8885,0.8885,0.0,0.0,0.0,0.8885,0.8885,0.8885,0.8885,0.8885,0.8885,0.8885,0.8885,0.8885,0.8885,0.8885,0.8885,0.8885,0.8885,0.8885,0.8885,0.8885,0.8885,0.8885,0.8885,0.8885,0.8885,0.8885,0.8885,0.8885,0.8712,0.8429,0.8211,0.7881,0.7551,0.7379,0.7265,0.721,0.721,0.7144,0.7035,0.7035,0.6934,0.6855,0.6855,0.6825,0.6801,0.6801,0.6646,0.6478,0.6443,0.6438,0.6425,0.6389,0.6387,0.6387,0.6387,0.6387,0.6403,0.6438,0.6438,0.6457,0.6495,0.6632,0.6725,0.6777,0.6865,0.7135,0.8473,0.9092,0.9579,0.9579,0.8948,0.8064,0.7214,0.6393,0.5538,0.467,0.4491,0.4491,0.4491,0.4491,0.4542,0.4667,0.4998,0.5505,0.6393,0.6786,0.7342,0.0,0.0,0.8515,0.0,0.0,0.0,0.0,0.0,0.0,0.0,1.0688,1.0688,1.0692,1.0421,1.0312,1.0312,0.9706,0.9379,0.9379,0.9047,0.8885,0.8885,0.8885,0.8885,0.0,0.0,0.0,0.0,0.8885,0.8885,0.8885,0.8885,0.8885,0.8885,0.8885,0.8885,0.8885,0.8885,0.8885,0.8885,0.8885,0.8885,0.8885,0.8885,0.8885,0.8885,0.8885,0.8885,0.8885,0.8885,0.8885,0.8885,0.8885,0.8712,0.8484,0.8484,0.8048,0.7607,0.7607,0.7379,0.721,0.721,0.721,0.721,0.721,0.7111,0.6983,0.6983,0.6877,0.6801,0.6801,0.6798,0.6749,0.6627,0.6619,0.6564,0.6392,0.6387,0.6387,0.6387,0.6387,0.6443,0.6616,0.6619,0.6676,0.6798,0.6798,0.6957,0.7217,0.7217,0.7608,0.7646,0.7955,0.8044,0.8044,0.7313,0.6527,0.6242,0.5527,0.4836,0.4556,0.4574,0.4632,0.4632,0.4632,0.4752,0.5121,0.5254,0.5488,0.5963,0.0,0.0,0.7931,0.8682,0.9271,0.0,0.0,0.0,0.0,0.0,0.0,0.0,1.0692,1.0692,1.0692,1.0421,1.0312,1.0312,0.9871,0.9651,0.9651,0.9379,0.9268,0.9213,0.8992,0.0,0.0,0.0,0.0,0.0,0.8885,0.8885,0.8885,0.8885,0.8885,0.8885,0.8885,0.8885,0.8885,0.8885,0.8885,0.8885,0.8885,0.8885,0.8885,0.8885,0.8885,0.8885,0.8885,0.8885,0.8885,0.8885,0.8885,0.8885,0.8885,0.8826,0.8712,0.854,0.8156,0.7881,0.7881,0.749,0.7265,0.7438,0.7324,0.721,0.721,0.718,0.7155,0.7155,0.7122,0.7098,0.7098,0.7098,0.6961,0.676,0.6744,0.6728,0.6687,0.6687,0.6687,0.6687,0.6687,0.6706,0.6744,0.6744,0.6868,0.7062,0.715,0.7396,0.7753,0.7968,0.7771,0.6816,0.7057,0.718,0.718,0.6484,0.5789,0.5789,0.5136,0.4491,0.4491,0.4605,0.4691,0.4691,0.4691,0.4787,0.5079,0.5206,0.5422,0.0,0.0,0.0,0.7947,0.0,0.0,0.0,0.0,0.0,0.0,0.0,0.0,0.0,1.0692,1.0692,1.0692,1.0527,1.0472,1.0472,1.0147,0.9981,0.9981,0.9706,0.9489,0.9379,0.9158,0.0,0.0,0.0,0.0,0.0,0.8885,0.8885,0.8885,0.8885,0.8885,0.8885,0.8885,0.8885,0.8885,0.8885,0.8885,0.8885,0.8885,0.8885,0.8885,0.8885,0.8885,0.8885,0.8885,0.8885,0.8885,0.8885,0.8885,0.8885,0.8885,0.8885,0.8826,0.8712,0.8432,0.8211,0.8211,0.7823,0.7546,0.7607,0.7438,0.7324,0.721,0.721,0.721,0.721,0.721,0.721,0.721,0.721,0.715,0.6948,0.6896,0.6853,0.6804,0.6801,0.6801,0.6801,0.6801,0.6876,0.7029,0.7029,0.7158,0.7523,0.7714,0.7962,0.8208,0.8042,0.7595,0.0,0.6398,0.684,0.684,0.6268,0.5719,0.5719,0.5074,0.0,0.4491,0.4605,0.4719,0.4729,0.4722,0.4726,0.4762,0.4951,0.5331,0.0,0.6611,0.0,0.0,0.8828,0.0,0.0,0.0,0.0,0.0,0.0,0.0,0.0,1.0802,1.0798,1.0798,1.0907,1.0852,1.0692,1.0472,1.0312,1.0312,0.9981,0.9706,0.9434,0.9434,0.0,0.0,0.0,0.0,0.0,0.8885,0.8885,0.8885,0.8885,0.8885,0.8885,0.8885,0.8885,0.8885,0.8885,0.8885,0.8885,0.8885,0.8885,0.8885,0.8885,0.8885,0.8885,0.8885,0.8885,0.8885,0.8885,0.8885,0.8885,0.8885,0.8885,0.8885,0.8885,0.8712,0.8484,0.854,0.8263,0.7934,0.766,0.7607,0.7493,0.7265,0.721,0.721,0.721,0.721,0.721,0.721,0.721,0.721,0.721,0.7114,0.6948,0.6834,0.6828,0.6881,0.6881,0.6881,0.704,0.7422,0.7479,0.7647,0.8045,0.8374,0.854,0.8484,0.7543,0.7041,0.6023,0.0,0.525,0.525,0.5015,0.4818,0.0,0.465,0.4491,0.4491,0.468,0.4914,0.5044,0.4962,0.4999,0.5468,0.5672,0.5999,0.6645,0.0,0.0,0.9238,0.0,0.0,0.0,0.0,0.0,0.0,0.0,0.0,0.0,1.1555,1.1987,1.1987,1.2847,1.2467,1.0747,1.0637,1.0637,1.0582,1.0312,1.0036,0.9706,0.9706,0.0,0.0,0.0,0.0,0.8885,0.8885,0.8885,0.8885,0.8885,0.8885,0.8885,0.8885,0.8885,0.8885,0.8885,0.8885,0.8885,0.8885,0.8885,0.8885,0.8885,0.8885,0.8885,0.8885,0.8885,0.8885,0.8885,0.8885,0.8885,0.8885,0.8885,0.8885,0.8885,0.8712,0.8543,0.8768,0.838,0.7989,0.7934,0.7715,0.7493,0.7265,0.721,0.721,0.721,0.721,0.721,0.721,0.721,0.721,0.721,0.7185,0.7158,0.7128,0.7295,0.7408,0.7408,0.7624,0.7746,0.7831,0.8106,0.8287,0.8374,0.8657,0.8826,0.8768,0.7654,0.6649,0.6155,0.5681,0.5395,0.5395,0.534,0.5199,0.4924,0.4873,0.4818,0.4629,0.4767,0.4954,0.5136,0.5327,0.5517,0.5593,0.6202,0.0,0.0,0.0,0.9173,0.9466,0.0,0.0,0.0,0.0,0.0,0.0,0.0,0.0,0.0,1.2847,1.3166,1.3166,1.3755,1.3491,1.2254,1.1714,1.15,1.1446,1.0798,1.0312,1.0036,1.0036,0.0,0.0,0.0,0.0,0.8885,0.8885,0.8885,0.8885,0.8885,0.8885,0.8885,0.8885,0.8885,0.8885,0.8885,0.8885,0.8885,0.8885,0.8885,0.8885,0.8885,0.8885,0.8885,0.8885,0.8885,0.8885,0.8885,0.8885,0.8885,0.8885,0.8885,0.8885,0.8885,0.8771,0.8712,0.8881,0.866,0.838,0.8266,0.81,0.7881,0.7435,0.7379,0.7324,0.721,0.721,0.721,0.721,0.7324,0.7379,0.7379,0.749,0.749,0.7379,0.7493,0.7662,0.7771,0.7934,0.8045,0.8208,0.8543,0.8712,0.8712,0.8826,0.8605,0.8045,0.6871,0.5697,0.6497,0.6573,0.6653,0.6309,0.6231,0.6122,0.5605,0.5496,0.5391,0.4959,0.4987,0.5104,0.5267,0.5855,0.6173,0.0,0.0,0.0,0.8572,0.9262,0.9633,0.0,0.0,0.0,0.0,0.0,0.0,0.0,0.0,0.0,0.0,1.4293,0.0,1.4347,1.4561,1.462,1.462,1.3329,1.2575,1.2413,1.1391,1.0747,1.0312,1.0366,1.0036,0.0,0.0,0.0,0.9047,0.8992,0.8992,0.8995,0.894,0.8885,0.8885,0.8885,0.8885,0.8885,0.8885,0.8885,0.8885,0.8885,0.8885,0.8885,0.8885,0.8885,0.8885,0.8885,0.8885,0.8885,0.8885,0.8885,0.8885,0.8885,0.8885,0.8885,0.8885,0.8885,0.8885,0.8885,0.8885,0.8826,0.854,0.8484,0.8318,0.7773,0.7607,0.7493,0.7268,0.7265,0.7265,0.7265,0.7493,0.766,0.766,0.7878,0.7934,0.7773,0.7715,0.7881,0.8103,0.8156,0.8266,0.8543,0.8771,0.8826,0.8605,0.8605,0.7989,0.6816,0.5641,0.4582,0.7418,0.8288,0.8717,0.6824,0.6448,0.6507,0.6426,0.6399,0.6258,0.5746,0.575,0.5918,0.6241,0.6573,0.6863,0.0,0.0,0.8355,0.0,0.0,0.0,0.0,0.0,0.0,0.0,0.0,0.0,0.0,0.0,0.0,0.0,0.0,1.5642,1.5642,1.6558,1.7041,1.7041,1.4942,1.3329,1.2417,1.22,1.15,1.0312,1.0527,1.0308,0.0,0.0,0.9981,0.9651,0.9434,0.9323,0.9268,0.8995,0.8885,0.8885,0.8885,0.8885,0.8885,0.8885,0.8885,0.8885,0.8885,0.8885,0.8885,0.8885,0.8885,0.8885,0.8885,0.8885,0.8885,0.8885,0.8885,0.8885,0.8885,0.8885,0.8885,0.8885,0.8885,0.8885,0.8885,0.8885,0.8826,0.854,0.8484,0.8377,0.7989,0.7771,0.7607,0.7551,0.7551,0.7551,0.7551,0.7771,0.7937,0.7937,0.7989,0.81,0.8318,0.8374,0.8488,0.8771,0.8771,0.8771,0.8826,0.8881,0.838,0.7376,0.7376,0.676,0.5641,0.4416,0.3804,0.7636,0.8152,0.861,0.8515,0.8974,0.9229,0.8368,0.8171,0.7902,0.6929,0.6772,0.6885,0.7115,0.7559,0.8273,0.9345,0.0,0.9666,0.0,0.0,0.0,0.0,0.0,0.0,0.0,0.0,0.0,0.0,0.0,0.0,0.0,0.0,1.6829,0.0,1.7312,1.7582,1.7582,1.6505,1.5429,1.4298,1.3009,1.2037,1.1446,1.0907,1.0472,1.0091,0.0,1.0091,0.9761,0.9489,0.9379,0.9379,0.9047,0.8885,0.8885,0.8885,0.8885,0.8885,0.8885,0.8885,0.8885,0.8885,0.8885,0.8885,0.8885,0.8885,0.8885,0.8885,0.8885,0.8885,0.8885,0.8885,0.8885,0.8885,0.8885,0.8885,0.8885,0.8885,0.8885,0.8885,0.8885,0.8881,0.8712,0.8712,0.8602,0.8322,0.8156,0.8048,0.7826,0.7826,0.7826,0.7826,0.81,0.8266,0.8266,0.838,0.8488,0.8484,0.8654,0.8768,0.8881,0.8885,0.8885,0.8885,0.8269,0.7654,0.7096,0.648,0.5586,0.4416,0.3858,0.3246,0.7786,0.8019,0.8515,1.0021,1.0783,1.1,1.0313,0.9939,0.9506,0.8629,0.822,0.8149,0.8397,0.9,0.0,1.1268,1.1014,0.0,0.0,0.0,0.0,0.0,0.0,0.0,0.0,0.0,0.0,0.0,0.0,0.0,0.0,0.0,1.7515,0.0,1.7582,1.7582,1.7582,1.7582,1.7041,1.5861,1.4083,1.3063,1.2792,1.1878,1.1232,1.0798,1.0798,1.0468,1.0033,1.0033,0.9868,0.9596,0.9537,0.932,0.8992,0.8937,0.8885,0.8885,0.8885,0.8885,0.8885,0.8885,0.8885,0.8885,0.8885,0.8885,0.8885,0.8885,0.8885,0.8885,0.8885,0.8885,0.8885,0.8885,0.8885,0.8885,0.8885,0.8885,0.8885,0.8885,0.8885,0.8885,0.8885,0.8885,0.8826,0.8598,0.854,0.8429,0.8156,0.81,0.81,0.81,0.8377,0.8598,0.8598,0.8768,0.8826,0.8598,0.8771,0.8885,0.8885,0.8885,0.8885,0.8885,0.7989,0.7263,0.6705,0.5808,0.4639,0.3191,0.3191,0.2688,0.828,0.9001,0.9721,1.0464,0.985,0.9568,1.1627,1.1284,1.0639,1.113,1.0421,0.9916,1.0469,1.1026,1.1619,1.2296,1.2361,0.0,0.0,0.0,0.0,0.0,0.0,0.0,0.0,0.0,0.0,0.0,0.0,0.0,0.0,0.0,0.0,0.0,0.0,1.7582,1.7582,1.7582,1.7041,1.5914,1.5755,1.5049,1.3976,1.3863,1.3275,1.2254,1.2254,1.1605,1.0692,1.1496,1.1173,1.0308,1.1004,1.0515,0.9323,0.8995,0.8885,0.8885,0.8885,0.8885,0.8885,0.8885,0.8885,0.8885,0.8885,0.8885,0.8885,0.8885,0.8885,0.8885,0.8885,0.8885,0.8885,0.8885,0.8885,0.8885,0.8885,0.8885,0.8885,0.8885,0.8885,0.8885,0.8885,0.8885,0.8881,0.8881,0.8654,0.8484,0.8484,0.8484,0.8484,0.8484,0.8712,0.8881,0.8881,0.8881,0.8881,0.8881,0.8881,0.8885,0.8885,0.8885,0.8885,0.8885,0.8826,0.7706,0.5528,0.5417,0.4193,0.1907,0.1907,0.1907,0.8315,0.9044,0.9853,1.0485,1.041,1.0567,1.2072,1.2097,1.184,1.2091,1.1975,1.1792,1.1629,0.0,1.2431,1.2981,0.0,0.0,0.0,0.0,0.0,0.0,0.0,0.0,0.0,0.0,0.0,0.0,0.0,0.0,0.0,0.0,0.0,0.0,0.0,1.7582,1.7582,1.7582,1.7364,1.6935,1.6234,1.5642,1.5215,1.4454,1.3863,1.3437,1.3437,1.3221,1.2847,1.3004,1.2788,1.2408,1.2566,1.2295,1.1701,1.0836,1.0402,1.0186,0.943,0.9051,0.8885,0.8885,0.8885,0.8885,0.8885,0.8885,0.8885,0.8885,0.8885,0.8885,0.8885,0.8885,0.8885,0.8885,0.8885,0.8885,0.8885,0.8885,0.8885,0.8885,0.8885,0.8885,0.8885,0.8885,0.8885,0.8885,0.8826,0.8768,0.8768,0.8768,0.8768,0.8768,0.8826,0.8885,0.8885,0.8885,0.8885,0.8885,0.8885,0.8885,0.8885,0.8885,0.8885,0.8885,0.8156,0.6982,0.5417,0.4637,0.3413,0.1795,0.1795,0.1795,0.8871,0.9365,1.0027,1.0928,1.1015,1.1245,1.2663,1.2793,1.278,1.3423,1.3604,1.3417,1.2649,1.3005,0.0,0.0,0.0,0.0,0.0,0.0,0.0,0.0,0.0,0.0,0.0,0.0,0.0,0.0,0.0,0.0,0.0,0.0,0.0,0.0,0.0,1.7488,1.7582,1.7582,1.7582,1.7582,1.6829,1.6452,1.6399,1.5589,1.4995,1.4674,1.4674,1.4454,1.4137,1.4293,1.44,1.4347,1.3696,1.3431,1.3324,1.2403,1.1914,1.1483,1.0355,0.9974,0.9864,0.9158,0.9154,0.9372,0.8992,0.8885,0.8885,0.8885,0.8885,0.8885,0.8885,0.8885,0.8885,0.8885,0.8885,0.8885,0.8885,0.8885,0.8885,0.8885,0.8885,0.8885,0.8885,0.8885,0.8885,0.8885,0.8885,0.8885,0.8885,0.8885,0.8885,0.8885,0.8885,0.8885,0.8885,0.8885,0.8885,0.8885,0.8885,0.8885,0.8885,0.8885,0.8885,0.8885,0.81,0.6927,0.5417,0.4582,0.3358,0.1795,0.1795,0.1795,1.007,1.0083,1.0481,1.1924,1.1436,1.1243,1.3554,1.3414,1.3367,1.5411,1.5371,1.4687,1.3619,1.427,0.0,0.0,0.0,0.0,0.0,0.0,0.0,0.0,0.0,0.0,0.0,0.0,0.0,0.0,0.0,0.0,0.0,0.0,0.0,0.0,0.0,0.0,1.7575,1.7582,1.7582,1.7582,1.7582,1.7582,1.7582,1.7582,1.6988,1.5914,1.5914,1.5263,1.4239,1.5429,1.5914,1.5749,1.4293,1.3755,1.3701,1.3431,1.3102,1.2665,1.1538,1.1705,1.2037,0.9702,0.9754,1.0511,0.932,0.8937,0.894,0.894,0.8885,0.8885,0.8885,0.8885,0.8885,0.8885,0.8885,0.8885,0.8885,0.8885,0.8885,0.8885,0.8885,0.8885,0.8885,0.8885,0.8885,0.8885,0.8885,0.8885,0.8885,0.8885,0.8885,0.8885,0.8885,0.8885,0.8885,0.8885,0.8885,0.8885,0.8885,0.8885,0.8885,0.8885,0.8885,0.8885,0.8885,0.7762,0.5417,0.5417,0.4137,0.1795,0.1795,0.1795,0.8918,1.0094,1.1309,1.1156,1.2218,1.3474,1.3975,1.3888,1.4102,1.5491,1.5531,1.5113,1.463,1.5107,0.0,0.0,0.0,0.0,0.0,0.0,0.0,0.0,0.0,0.0,0.0,0.0,0.0,0.0,0.0,0.0,0.0,0.0,0.0,0.0,0.0,0.0,1.7326,1.7534,1.7582,1.7582,1.7582,1.7582,1.7582,1.7582,1.7417,1.71,1.71,1.6876,1.6611,1.6935,1.71,1.7041,1.6611,1.6446,1.634,1.5423,1.4936,1.4449,1.3117,1.2679,1.2561,1.1655,1.1601,1.1819,1.1492,1.0785,1.0186,1.0186,0.9533,0.8885,0.8885,0.8885,0.8885,0.8885,0.8885,0.8885,0.8885,0.8885,0.8885,0.8885,0.8885,0.8885,0.8885,0.8885,0.8885,0.8885,0.8885,0.8885,0.8885,0.8885,0.8885,0.8885,0.8885,0.8885,0.8885,0.8885,0.8885,0.8885,0.8885,0.8885,0.8885,0.8885,0.8885,0.8885,0.8885,0.7762,0.5417,0.5417,0.4137,0.1795,0.1795,0.1795,1.0214,1.1236,1.2174,1.2552,1.3507,1.4422,1.4716,1.4783,1.4977,1.5638,1.5691,1.5518,1.5337,1.5591,0.0,0.0,0.0,0.0,0.0,0.0,0.0,0.0,0.0,0.0,0.0,0.0,0.0,0.0,0.0,0.0,0.0,0.0,0.0,0.0,0.0,0.0,1.7199,1.7373,1.7468,1.7582,1.7582,1.7582,1.7582,1.7582,1.7582,1.7582,1.7582,1.7582,1.7582,1.7582,1.7582,1.7582,1.7582,1.7582,1.7529,1.6829,1.6399,1.5914,1.4572,1.4245,1.418,1.3112,1.3009,1.3171,1.2679,1.1973,1.1269,1.0836,1.0186,0.9482,0.9047,0.8885,0.8885,0.8885,0.8885,0.8885,0.8885,0.8885,0.8885,0.8885,0.8885,0.8885,0.8885,0.8885,0.8885,0.8885,0.8885,0.8885,0.8885,0.8885,0.8885,0.8885,0.8885,0.8885,0.8885,0.8885,0.8885,0.8885,0.8885,0.8885,0.8885,0.8885,0.8885,0.8885,0.8885,0.7762,0.5417,0.5417,0.4137,0.1795,0.1795,0.1795,1.2701,1.2867,1.2979,1.5092,1.495,1.4522,1.5538,1.5784,1.5784,1.5784,1.5784,1.5784,1.5784,1.5784,0.0,0.0,0.0,0.0,0.0,0.0,0.0,0.0,0.0,0.0,0.0,0.0,0.0,0.0,0.0,0.0,0.0,0.0,0.0,0.0,0.0,0.0,1.7119,1.7146,1.7306,0.0,1.7542,1.7555,1.7582,1.7582,1.7582,1.7582,1.7582,1.7582,1.7582,1.7582,1.7582,1.7582,1.7582,1.7582,1.7582,1.7582,1.743,1.7067,1.5962,1.6074,1.6405,1.4293,1.4137,1.4572,1.348,1.2891,1.2358,1.1328,1.0945,1.0566,0.9372,0.9044,0.9047,0.8937,0.8885,0.8885,0.8885,0.8885,0.8885,0.8885,0.8885,0.8885,0.8885,0.8885,0.8885,0.8885,0.8885,0.8885,0.8885,0.8885,0.8885,0.8885,0.8885,0.8885,0.8885,0.8885,0.8885,0.8885,0.8885,0.8885,0.8885,0.8885,0.8885,0.8885,0.8771,0.7651,0.5417,0.5306,0.4026,0.1795,0.1795,0.1795,1.0709,1.2258,1.3821,1.4335,1.4963,1.5518,1.5724,1.5784,1.5784,1.5784,1.5784,1.5784,1.5784,0.0,0.0,0.0,0.0,0.0,0.0,0.0,0.0,0.0,0.0,0.0,0.0,0.0,0.0,0.0,0.0,0.0,0.0,0.0,0.0,0.0,0.0,1.6382,1.6509,1.6687,1.6947,0.0,1.7293,1.7414,1.7582,1.7582,1.7582,1.7582,1.7582,1.7582,1.7582,1.7582,1.7582,1.7582,1.7582,1.7582,1.7582,1.7582,1.7582,1.743,1.7001,1.6955,1.6955,1.6187,1.608,1.614,1.5713,1.4905,1.4035,1.3565,1.2743,1.176,1.0621,1.0292,1.0076,0.9103,0.8885,0.8885,0.8885,0.8885,0.8885,0.8885,0.8885,0.8885,0.8885,0.8885,0.8885,0.8885,0.8885,0.8885,0.8885,0.8885,0.8885,0.8885,0.8885,0.8885,0.8885,0.8885,0.8885,0.8885,0.8885,0.8885,0.8885,0.8885,0.8885,0.8885,0.7989,0.6813,0.5417,0.4472,0.3246,0.1795,0.1795,0.1795,1.1275,1.2505,1.3507,1.4636,1.5378,1.5784,1.5784,1.5784,1.5784,1.5784,1.5784,1.5784,0.0,0.0,0.0,0.0,0.0,0.0,0.0,0.0,0.0,0.0,0.0,0.0,0.0,0.0,0.0,0.0,0.0,0.0,0.0,1.5784,0.0,0.0,1.5979,1.6126,1.6321,1.6426,1.6647,1.6941,1.7132,1.7353,1.7582,1.7582,1.7582,1.7582,1.7582,1.7582,1.7582,1.7582,1.7582,1.7582,1.7582,1.7582,1.7582,1.7582,1.7582,1.7582,1.743,1.7378,1.7378,1.7213,1.7054,1.6902,1.6583,1.5992,1.5232,1.4439,1.3727,1.2965,1.1819,1.1487,1.1219,1.0025,0.9316,0.8885,0.8885,0.8885,0.8885,0.8885,0.8885,0.8885,0.8885,0.8885,0.8885,0.8885,0.8885,0.8885,0.8885,0.8885,0.8885,0.8885,0.8885,0.8885,0.8885,0.8885,0.8885,0.8885,0.8885,0.8885,0.8885,0.8885,0.8885,0.8885,0.7709,0.6536,0.5417,0.4193,0.2967,0.1795,0.1795,0.1795,1.217,1.2784,1.3066,1.5232,1.5784,1.5784,1.5784,1.5784,1.5784,1.5784,1.5784,0.0,0.0,0.0,0.0,0.0,0.0,0.0,0.0,0.0,0.0,0.0,0.0,0.0,0.0,0.0,0.0,0.0,0.0,0.0,1.5784,1.5784,1.5784,1.5784,1.5784,1.5945,1.6192,1.6192,1.6346,1.6633,1.6985,1.7273,1.7508,1.7508,1.7535,1.7582,1.7582,1.7582,1.7582,1.7582,1.7582,1.7582,1.7582,1.7582,1.7582,1.7582,1.7582,1.7582,1.7582,1.7582,1.7582,1.7582,1.743,1.7226,1.6895,1.6583,1.6105,1.4922,1.4546,1.4218,1.3019,1.2689,1.2417,1.1273,1.008,0.9154,0.8937,0.8885,0.8885,0.8885,0.8885,0.8885,0.8885,0.8885,0.8885,0.8885,0.8885,0.8885,0.8885,0.8885,0.8885,0.8885,0.8885,0.8885,0.8885,0.8885,0.8885,0.8885,0.8885,0.8885,0.8885,0.8885,0.8885,0.8885,0.754,0.6366,0.5417,0.397,0.28,0.1795,0.1795,0.1795,1.0624,1.2073,1.3806,1.5385,1.5784,1.5784,1.5784,1.5784,1.5784,0.0,0.0,0.0,0.0,0.0,0.0,0.0,0.0,0.0,0.0,0.0,0.0,0.0,0.0,0.0,0.0,0.0,0.0,0.0,0.0,0.0,1.5784,1.5784,1.5784,1.5784,1.5784,1.5798,1.5885,1.5885,1.6039,1.6382,1.6627,1.6921,1.7259,1.7259,1.7393,1.7582,1.7582,1.7582,1.7582,1.7582,1.7582,1.7582,1.7582,1.7582,1.7582,1.7582,1.7582,1.7582,1.7582,1.7582,1.7582,1.7582,1.7582,1.7483,1.7226,1.6902,1.6577,1.6158,1.5838,1.5405,1.4272,1.3948,1.3673,1.2472,1.1273,1.0186,0.9103,0.8885,0.8885,0.8885,0.8885,0.8885,0.8885,0.8885,0.8885,0.8885,0.8885,0.8885,0.8885,0.8885,0.8885,0.8885,0.8885,0.8885,0.8885,0.8885,0.8885,0.8885,0.8885,0.8885,0.8885,0.8885,0.8885,0.8885,0.6755,0.5528,0.5417,0.3135,0.1963,0.1795,0.1795,0.1795,1.0822,1.2513,1.4202,1.5458,1.5784,1.5784,1.5784,1.5784,1.5784,1.5784,0.0,0.0,0.0,0.0,0.0,0.0,0.0,0.0,0.0,0.0,0.0,0.0,0.0,0.0,0.0,0.0,0.0,0.0,0.0,1.5784,1.5784,1.5784,1.5784,1.5784,1.5784,1.5784,1.5784,1.5784,1.5979,1.6321,1.64,1.662,1.6907,1.7125,1.736,1.7582,1.7582,1.7582,1.7582,1.7582,1.7582,1.7582,1.7582,1.7582,1.7582,1.7582,1.7582,1.7582,1.7582,1.7582,1.7582,1.7582,1.7582,1.7536,1.7279,1.712,1.6902,1.643,1.6217,1.5945,1.5298,1.5137,1.4696,1.2852,1.2032,1.1164,0.932,0.8885,0.8885,0.8885,0.8885,0.8885,0.8885,0.8885,0.8885,0.8885,0.8885,0.8885,0.8885,0.8885,0.8885,0.8885,0.8885,0.8885,0.8885,0.8885,0.8885,0.8885,0.8885,0.8885,0.8885,0.8885,0.8885,0.8885,0.6589,0.5417,0.5417,0.2967,0.1795,0.1795,0.1795,0.1804,1.1344,1.268,1.3706,1.5194,1.5562,1.5597,1.5758,0.0,1.5784,0.0,0.0,0.0,0.0,0.0,0.0,0.0,0.0,0.0,0.0,0.0,0.0,0.0,0.0,0.0,0.0,0.0,0.0,0.0,0.0,1.5784,1.5784,1.5784,1.5784,1.5784,1.5784,1.5784,1.5784,1.5784,1.5939,1.6159,1.6159,1.6313,1.6607,1.6951,1.7246,1.7475,1.7549,1.7582,1.7582,1.7582,1.7582,1.7582,1.7582,1.7582,1.7582,1.7582,1.7582,1.7582,1.7582,1.7582,1.7582,1.7582,1.7582,1.7582,1.7384,1.7226,1.7126,1.6643,1.643,1.6271,1.6051,1.5945,1.5399,1.3339,1.2635,1.1764,0.943,0.8885,0.8885,0.8885,0.8885,0.8885,0.8885,0.8885,0.8885,0.8885,0.8885,0.8885,0.8885,0.8885,0.8885,0.8885,0.8885,0.8885,0.8885,0.8885,0.8885,0.8885,0.8885,0.8885,0.8885,0.8885,0.8885,0.8885,0.6589,0.5417,0.5417,0.3302,0.2074,0.1795,0.1795,0.1811,1.1747,1.1881,1.1918,1.4355,1.4951,1.509,0.0,0.0,0.0,0.0,0.0,0.0,0.0,0.0,0.0,0.0,0.0,0.0,0.0,0.0,0.0,0.0,0.0,0.0,0.0,0.0,0.0,0.0,0.0,1.5784,1.5784,1.5784,1.5784,1.5784,1.5784,1.5784,1.5784,1.5784,1.5791,1.5852,1.5852,1.6005,1.6355,1.66,1.6894,1.7239,1.7514,1.7582,1.7582,1.7582,1.7582,1.7582,1.7582,1.7582,1.7582,1.7582,1.7582,1.7582,1.7582,1.7582,1.7582,1.7582,1.7582,1.7582,1.7582,1.7378,1.7179,1.7179,1.6749,1.6324,1.6271,1.6105,1.5618,1.4379,1.3236,1.1764,0.943,0.8885,0.8885,0.8885,0.8885,0.8885,0.8885,0.8885,0.8885,0.8885,0.8885,0.8885,0.8885,0.8885,0.8885,0.8885,0.8885,0.8885,0.8885,0.8885,0.8885,0.8885,0.8885,0.8885,0.8885,0.8885,0.8885,0.8885,0.6589,0.5417,0.5417,0.4137,0.2912,0.1795,0.1795,0.1811,1.053,1.1311,1.2189,1.3585,1.4428,1.4972,1.5163,1.5506,0.0,0.0,0.0,0.0,0.0,0.0,0.0,0.0,0.0,0.0,0.0,0.0,0.0,0.0,0.0,0.0,0.0,0.0,0.0,0.0,0.0,0.0,1.6763,1.6763,1.6487,1.5825,1.5784,1.5784,1.5784,1.5784,1.5784,1.5784,1.5784,1.5838,1.5999,1.6293,1.6587,1.6881,1.7226,1.746,1.7582,1.7582,1.7582,1.7582,1.7582,1.7582,1.7582,1.7582,1.7582,1.7582,1.7582,1.7582,1.7582,1.7582,1.7582,1.7582,1.7582,1.7529,1.743,1.7232,1.6902,1.653,1.6324,1.6105,1.5618,1.4493,1.2748,1.1055,1.0241,0.9427,0.8885,0.8885,0.8885,0.8885,0.8885,0.8885,0.8885,0.8885,0.8885,0.8885,0.8885,0.8885,0.8885,0.8885,0.8885,0.8885,0.8885,0.8885,0.8885,0.8885,0.8885,0.8885,0.8885,0.8885,0.8885,0.8885,0.8097,0.6922,0.5417,0.3413,0.2242,0.1795,0.1795,0.1822,0.9937,1.0894,1.2015,1.2992,1.3656,1.4254,1.4933,0.0,0.0,0.0,0.0,0.0,0.0,0.0,0.0,0.0,0.0,0.0,0.0,0.0,0.0,0.0,0.0,0.0,0.0,0.0,0.0,0.0,0.0,0.0,1.7785,1.7466,1.6857,1.5832,1.5784,1.5784,1.5784,1.5784,1.5784,1.5784,1.5784,1.5784,1.5791,1.6139,1.6433,1.672,1.7072,1.7367,1.7582,1.7582,1.7582,1.7582,1.7582,1.7582,1.7582,1.7582,1.7582,1.7582,1.7582,1.7582,1.7582,1.7582,1.7582,1.7582,1.7582,1.7582,1.7529,1.7279,1.6955,1.663,1.6377,1.5838,1.5137,1.4385,1.2689,1.1164,1.0781,0.975,0.8885,0.8885,0.8885,0.8885,0.8885,0.8885,0.8885,0.8885,0.8885,0.8885,0.8885,0.8885,0.8885,0.8885,0.8885,0.8885,0.8885,0.8885,0.8885,0.8885,0.8885,0.8885,0.8885,0.8885,0.8885,0.8885,0.8491,0.754,0.5975,0.4362,0.2968,0.1795,0.2242,0.2226,0.0,0.0,0.0,1.2592,1.2657,0.0,1.4958,0.0,0.0,0.0,0.0,0.0,0.0,0.0,0.0,0.0,0.0,0.0,0.0,0.0,0.0,0.0,0.0,0.0,0.0,0.0,0.0,0.0,0.0,1.7831,1.8788,1.7878,1.6857,1.592,1.5879,1.5879,1.5872,1.5872,1.5872,1.5872,1.5879,1.5825,1.5838,1.6126,1.642,1.6707,1.7058,1.7353,1.7569,1.7582,1.7582,1.7582,1.7582,1.7582,1.7582,1.7582,1.7582,1.7582,1.7582,1.7582,1.7582,1.7582,1.7582,1.7582,1.7582,1.7582,1.7536,1.7279,1.6955,1.663,1.6371,1.5298,1.4277,1.4277,1.3344,1.2146,1.1055,0.9805,0.8937,0.8885,0.8885,0.8885,0.8885,0.8885,0.8885,0.8885,0.8885,0.8885,0.8885,0.8885,0.8885,0.8885,0.8885,0.8885,0.8885,0.8885,0.8885,0.8885,0.8885,0.8885,0.8885,0.8885,0.8885,0.8885,0.7768,0.7154,0.7096,0.7041,0.5256,0.1963,0.3138,0.3082,0.9914,0.0,0.0,0.0,0.0,0.0,1.3066,1.4465,0.0,0.0,0.0,0.0,0.0,0.0,0.0,0.0,0.0,0.0,0.0,0.0,0.0,0.0,0.0,0.0,0.0,0.0,0.0,0.0,1.9778,1.9824,2.0096,1.8326,1.7512,1.7963,1.7271,1.7225,1.7956,1.7956,1.7956,1.7956,1.7225,1.6911,1.6864,1.6245,1.6112,1.6413,1.67,1.6994,1.734,1.7495,1.7582,1.7582,1.7582,1.7582,1.7582,1.7582,1.7582,1.7582,1.7582,1.7582,1.7582,1.7582,1.7582,1.7582,1.7582,1.7582,1.7582,1.7529,1.7272,1.6961,1.643,1.5891,1.5405,1.5405,1.4541,1.3619,1.3295,1.1655,0.997,0.9047,0.8885,0.8885,0.8885,0.8885,0.8885,0.8885,0.8885,0.8885,0.8885,0.8885,0.8885,0.8885,0.8885,0.8885,0.8885,0.8885,0.8885,0.8885,0.8885,0.8885,0.8885,0.8885,0.8885,0.8885,0.8549,0.7989,0.7096,0.6255,0.5363,0.4418,0.487,0.489,1.0254,1.0842,1.1494,1.1412,0.0,0.0,1.3655,1.4837,1.596,0.0,0.0,0.0,0.0,0.0,0.0,0.0,0.0,0.0,0.0,0.0,0.0,0.0,0.0,0.0,0.0,0.0,0.0,2.0908,2.0863,2.0728,2.0593,1.9285,1.8611,1.8788,1.8241,1.8195,1.8788,1.8788,1.8788,1.8788,1.8195,1.7924,1.7878,1.6904,1.6607,1.6919,1.6779,1.6874,1.7226,1.7514,1.7582,1.7582,1.7582,1.7582,1.7582,1.7582,1.7582,1.7582,1.7582,1.7582,1.7582,1.7582,1.7582,1.7582,1.7582,1.7582,1.7582,1.7483,1.712,1.6749,1.6377,1.6105,1.5891,1.5891,1.5405,1.4761,1.4277,1.3127,1.1655,0.997,0.9265,0.8885,0.8885,0.8885,0.8885,0.8885,0.8885,0.8885,0.8885,0.8885,0.8885,0.8885,0.8885,0.8885,0.8885,0.8885,0.8885,0.8885,0.8885,0.8885,0.8885,0.8885,0.8885,0.8885,0.8885,0.8549,0.7823,0.7204,0.6589,0.6093,0.5779,0.5574,1.1021,1.1228,1.1595,1.1945,1.1494,0.0,1.5059,1.5428,1.5831,0.0,0.0,0.0,0.0,0.0,0.0,0.0,0.0,0.0,0.0,0.0,0.0,0.0,0.0,0.0,0.0,2.0178,2.0223,2.1132,2.1177,2.1051,2.0782,2.0475,1.9977,1.9201,1.9063,1.9063,1.9201,1.9155,1.9155,1.9155,1.9063,1.8972,1.8926,1.7924,1.7581,1.7731,1.707,1.6921,1.7172,1.7467,1.7555,1.7582,1.7582,1.7582,1.7582,1.7582,1.7582,1.7582,1.7582,1.7582,1.7582,1.7582,1.7582,1.7582,1.7582,1.7582,1.7529,1.7331,1.6855,1.6377,1.6324,1.6158,1.5945,1.5891,1.5891,1.5618,1.46,1.4277,1.3565,1.1492,1.0025,0.9047,0.8937,0.8885,0.8885,0.8885,0.8885,0.8885,0.8885,0.8885,0.8885,0.8885,0.8885,0.8885,0.8885,0.8885,0.8885,0.8885,0.8885,0.8885,0.8885,0.8885,0.8885,0.8885,0.8885,0.8885,0.8885,0.8885,0.8325,0.7271,0.6403,0.6031,1.1742,1.1448,0.0,0.0,0.0,0.0,1.1882,1.3348,1.4709,0.0,0.0,0.0,0.0,0.0,0.0,0.0,0.0,0.0,0.0,0.0,0.0,0.0,0.0,0.0,0.0,2.1802,2.2024,2.2432,2.2255,2.2033,2.1811,2.1015,2.0836,2.1454,2.0656,2.0737,2.1713,2.1544,2.1454,2.1454,2.0656,2.015,1.9977,1.8972,1.8094,1.7395,1.7524,1.7309,1.6814,1.7166,1.7427,1.7582,1.7582,1.7582,1.7582,1.7582,1.7582,1.7582,1.7582,1.7582,1.7582,1.7582,1.7582,1.7582,1.7582,1.7582,1.7582,1.7529,1.7279,1.6961,1.6683,1.6424,1.6164,1.5945,1.5891,1.5838,1.5618,1.4869,1.4056,1.3619,1.1819,1.0021,0.9047,0.8885,0.8885,0.8885,0.8885,0.8885,0.8885,0.8885,0.8885,0.8885,0.8885,0.8885,0.8885,0.8885,0.8885,0.8885,0.8885,0.8885,0.8885,0.8885,0.8885,0.8885,0.8885,0.8885,0.8885,0.8885,0.8771,0.8553,0.8489,0.8568,0.0,0.0,0.0,1.2055,0.0,0.0,0.0,1.3765,1.463,0.0,0.0,0.0,0.0,0.0,0.0,0.0,0.0,0.0,0.0,0.0,0.0,0.0,0.0,0.0,0.0,2.2441,2.2618,2.2618,2.2485,2.2353,2.2274,2.1748,2.1748,2.222,2.1748,2.1793,2.2388,2.2309,2.2264,2.222,2.1748,2.1427,2.1302,2.0331,1.9596,1.9117,1.891,1.8679,1.8432,1.8167,1.8231,1.8349,1.7786,1.7582,1.7582,1.7582,1.7582,1.7582,1.7582,1.7582,1.7582,1.7582,1.7582,1.7582,1.7582,1.7582,1.7582,1.7582,1.7437,1.7179,1.7008,1.6636,1.6271,1.6105,1.5998,1.5891,1.5891,1.5458,1.4869,1.4331,1.2748,1.1164,1.0025,0.932,0.8885,0.8885,0.8885,0.8885,0.8885,0.8885,0.8885,0.8885,0.8885,0.8885,0.8885,0.8885,0.8885,0.8885,0.8885,0.8885,0.8885,0.8885,0.8885,0.8885,0.8885,0.8885,0.8885,0.8885,0.8885,0.8888,0.9086,0.9292,0.0,0.0,0.0,0.0,0.0,1.248,0.0,0.0,0.0,0.0,0.0,0.0,0.0,0.0,0.0,0.0,0.0,0.0,0.0,0.0,0.0,0.0,0.0,0.0,0.0,2.2131,2.2308,2.2457,2.2138,2.2047,2.2378,2.2441,2.2485,2.2485,2.2485,2.2485,2.252,2.2485,2.2485,2.2485,2.2485,2.2441,2.2388,2.1606,2.1186,2.097,2.0356,2.0165,2.0216,1.9529,1.9385,1.948,1.8094,1.7582,1.7582,1.7582,1.7582,1.7582,1.7582,1.7582,1.7582,1.7582,1.7582,1.7582,1.7582,1.7582,1.7582,1.7582,1.743,1.7279,1.7226,1.6855,1.643,1.6324,1.6105,1.5945,1.5891,1.5891,1.5618,1.4708,1.356,1.2304,1.0945,0.9699,0.8885,0.8885,0.8885,0.8885,0.8885,0.8885,0.8885,0.8885,0.8885,0.8885,0.8885,0.8885,0.8885,0.8885,0.8885,0.8885,0.8885,0.8885,0.8885,0.8885,0.8885,0.8885,0.8885,0.8885,0.8885,0.8888,0.9059,0.9208,0.0,0.0,0.0,0.0,1.3391,0.0,0.0,0.0,0.0,0.0,0.0,0.0,0.0,0.0,0.0,0.0,0.0,0.0,0.0,0.0,0.0,0.0,0.0,0.0,0.0,0.0,2.0995,2.2635,2.1224,2.0901,2.2312,2.2618,2.275,2.275,2.275,2.2838,2.3013,2.2838,2.275,2.275,2.275,2.2618,2.2397,2.2299,2.1784,2.1006,2.0907,2.0732,2.0521,2.0184,2.0464,2.0818,1.8513,1.7582,1.7582,1.7582,1.7582,1.7582,1.7582,1.7582,1.7582,1.7582,1.7582,1.7582,1.7582,1.7582,1.7582,1.7582,1.7582,1.7483,1.7279,1.7126,1.6967,1.643,1.6271,1.6164,1.5945,1.5891,1.5838,1.5725,1.4756,1.3295,1.1055,0.9699,0.8885,0.8885,0.8885,0.8885,0.8885,0.8885,0.8885,0.8885,0.8885,0.8885,0.8885,0.8885,0.8885,0.8885,0.8885,0.8885,0.8885,0.8885,0.8885,0.8885,0.8885,0.8885,0.8885,0.8885,0.8885,0.8885,0.8898,0.9113,0.0,0.0,0.0,0.0,0.0,0.0,1.2826,0.0,1.2382,0.0,0.0,0.0,0.0,0.0,0.0,0.0,0.0,0.0,0.0,0.0,0.0,0.0,0.0,0.0,0.0,0.0,0.0,0.0,0.0,2.1779,2.258,2.2838,2.2969,2.2969,2.2969,2.3013,2.3091,2.3013,2.2969,2.2969,2.2969,2.2925,2.2794,2.2794,2.2599,2.2227,2.2227,2.2241,2.2177,2.1686,2.163,2.1745,2.033,1.9228,1.8461,1.7838,1.7582,1.7582,1.7582,1.7582,1.7582,1.7582,1.7582,1.7582,1.7582,1.7582,1.7582,1.7582,1.7582,1.7582,1.7483,1.7331,1.7126,1.6861,1.6696,1.6471,1.6211,1.6105,1.6105,1.5945,1.4976,1.3673,1.1978,1.0731,0.9699,0.8992,0.8885,0.8885,0.8885,0.8885,0.8885,0.8885,0.8885,0.8885,0.8885,0.8885,0.8885,0.8885,0.8885,0.8885,0.8885,0.8885,0.8885,0.8885,0.8885,0.8885,0.8885,0.8885,0.8885,0.8885,0.9025,0.9178,1.5768,0.0,0.0,0.0,0.0,0.0,0.0,0.0,0.0,0.0,0.0,0.0,0.0,0.0,0.0,0.0,0.0,0.0,0.0,0.0,0.0,0.0,0.0,0.0,0.0,0.0,0.0,0.0,0.0,0.0,2.2775,2.3013,2.3091,2.3091,2.3091,2.3091,2.3091,2.3091,2.3091,2.3091,2.3091,2.3091,2.3091,2.3091,2.3091,2.3091,2.3091,2.3246,2.3448,2.301,2.2897,2.2868,2.2046,2.092,1.9635,1.8454,1.7838,1.7582,1.7582,1.7582,1.7582,1.7582,1.7582,1.7582,1.7582,1.7582,1.7582,1.7582,1.7582,1.7582,1.7582,1.7483,1.7279,1.7232,1.7008,1.6736,1.6477,1.6377,1.6217,1.6051,1.5298,1.4272,1.3127,1.1651,1.0292,0.9103,0.8885,0.8885,0.8885,0.8885,0.8885,0.8885,0.8885,0.8885,0.8885,0.8885,0.8885,0.8885,0.8885,0.8885,0.8885,0.8885,0.8885,0.8885,0.8885,0.8885,0.8885,0.8885,0.8902,0.8998,0.9103,0.9292,0.0,0.0,0.0,1.4752,0.0,0.0,0.0,0.0,1.3613,0.0,0.0,0.0,0.0,0.0,0.0,1.2859,0.0,0.0,0.0,0.0,0.0,0.0,0.0,0.0,0.0,0.0,0.0,0.0,0.0,0.0,2.2707,2.3013,2.3091,2.3091,2.3091,2.3091,2.3091,2.3091,2.3091,2.3091,2.3091,2.3091,2.3091,2.3091,2.3091,2.3091,2.3091,2.3344,2.3818,2.3907,2.421,2.4507,2.33,2.2181,2.1081,1.9635,1.8506,1.7582,1.7582,1.7582,1.7582,1.7582,1.7582,1.7582,1.7582,1.7582,1.7582,1.7582,1.7582,1.7582,1.7582,1.7582,1.7536,1.7279,1.7179,1.7067,1.6736,1.6477,1.6324,1.6271,1.6051,1.5458,1.4331,1.2254,1.0292,0.9103,0.8885,0.8885,0.8885,0.8885,0.8885,0.8885,0.8885,0.8885,0.8885,0.8885,0.8885,0.8885,0.8885,0.8885,0.8885,0.8885,0.8885,0.8885,0.8885,0.8885,0.8885,0.8885,0.9011,0.9204,0.9207,0.9292,0.0,0.0,2.0771,1.7155,0.0,0.0,0.0,0.0,0.0,0.0,0.0,0.0,0.0,0.0,1.3355,1.2969,1.2621,0.0,0.0,0.0,0.0,0.0,0.0,0.0,0.0,0.0,0.0,0.0,0.0,0.0,0.0,2.3047,2.3091,2.3091,2.3091,2.3091,2.3091,2.3091,2.3091,2.3091,2.3091,2.3091,2.3091,2.3091,2.3091,2.3091,2.3091,2.3179,2.3364,2.403,2.4196,2.4041,2.4161,2.3452,2.208,1.9996,1.8506,1.7582,1.7582,1.7582,1.7582,1.7582,1.7582,1.7582,1.7582,1.7582,1.7582,1.7582,1.7582,1.7582,1.7582,1.7582,1.7582,1.7483,1.7483,1.7378,1.7113,1.6961,1.6855,1.6636,1.6471,1.6092,1.4911,1.3927,1.2571,1.0402,1.0076,0.9805,0.8992,0.8885,0.8885,0.8885,0.8885,0.8885,0.8885,0.8885,0.8885,0.8885,0.9103,0.9213,0.9213,0.9213,0.9213,0.9213,0.8995,0.8885,0.8885,0.8885,0.9011,0.921,0.9313,0.9388,2.1701,2.2347,0.0,1.9102,1.8906,0.0,1.5371,0.0,0.0,0.0,0.0,0.0,0.0,0.0,0.0,1.3976,1.315,0.0,0.0,1.0634,0.0,0.0,0.0,0.0,0.0,0.0,0.0,0.0,0.0,0.0,0.0,0.0,2.3091,2.3091,2.3091,2.3091,2.3091,2.3091,2.3091,2.3091,2.3091,2.3091,2.3091,2.3091,2.3091,2.3091,2.3091,2.3091,2.3159,2.4062,2.4193,2.402,2.4658,2.4165,2.2835,2.1014,1.9435,1.8094,1.7733,1.7582,1.7582,1.7582,1.7582,1.7582,1.7582,1.7582,1.7582,1.7582,1.7582,1.7582,1.7582,1.7582,1.7582,1.7582,1.7582,1.7529,1.7378,1.7279,1.712,1.6902,1.6783,1.6465,1.5707,1.5441,1.446,1.186,1.1105,1.0511,0.9644,0.9265,0.9103,0.9103,0.8995,0.8937,0.9051,0.9158,0.9213,0.9213,0.9434,0.9541,0.9541,0.9541,0.957,0.9624,0.9457,0.9349,0.9349,0.9349,0.9367,0.9407,0.9507,0.9607]}]]